[[{"header":{"parameterUnit":"m.s-1","parameterCategory":1,"la1":30.6,"la2":28.766,"lo1":-90.7593,"lo2":-88.6598,"dx":0.0162,"dy":0.0183,"nx":116,"ny":114,"refTime":"2022-12-30T18:00:00:Z","depth":0,"parameterNumber":2,"parameterNumberName":"U-component_of_WINDS"},"data":[0.0,0.0,0.0,0.0,0.0,0.0,0.0,0.0,0.0,0.0,0.0,0.0,0.0,0.0,0.0,0.0,0.0,0.0,0.0,0.0,0.0,0.0,0.0,0.0,0.0,0.0,0.0,0.0,0.0,0.0,0.0,0.0,0.0,0.0,0.0,0.0,0.0,0.0,0.0,0.0,0.0,0.0,0.0,0.0,0.0,0.0,0.0,0.0,0.0,0.0,0.0,0.0,0.0,0.0,0.0,0.0,0.0,0.0,0.0,0.0,0.0,0.0,0.0,0.0,0.0,0.0,0.0,0.0,0.0,0.0,0.0,0.0,0.0,0.0,0.0,0.0,0.0,0.0,0.0,0.0,0.0,0.0,0.0,0.0,0.0,0.0,0.0,0.0,0.0,0.0,0.0,0.0,0.0,0.0,0.0,0.0,0.0,0.0,0.0,0.0,0.0,0.0,0.0,0.0,0.0,0.0,0.0,0.0,0.0,0.0,0.0,0.0,0.0,0.0,0.0,0.0,0.0,0.0,0.0,0.0,0.0,0.0,0.0,0.0,0.0,0.0,0.0,0.0,0.0,0.0,0.0,0.0,0.0,0.0,0.0,0.0,0.0,0.0,0.0,0.0,0.0,0.0,0.0,0.0,0.0,0.0,0.0,0.0,0.0,0.0,0.0,0.0,0.0,0.0,0.0,0.0,0.0,0.0,0.0,0.0,0.0,0.0,0.0,0.0,0.0,0.0,0.0,0.0,0.0,0.0,0.0,0.0,0.0,0.0,0.0,0.0,0.0,0.0,0.0,0.0,0.0,0.0,0.0,0.0,0.0,0.0,0.0,0.0,0.0,0.0,0.0,0.0,0.0,0.0,0.0,0.0,0.0,0.0,0.0,0.0,0.0,0.0,0.0,0.0,0.0,0.0,0.0,0.0,0.0,0.0,0.0,0.0,0.0,0.0,0.0,0.0,0.0,0.0,0.0,0.0,0.0,0.0,0.0,0.0,0.0,0.0,0.0,0.0,0.0,0.0,0.0,0.0,0.0,0.0,0.0,0.0,0.0,0.0,0.0,0.0,0.0,0.0,0.0,0.0,0.0,0.0,0.0,0.0,0.0,0.0,0.0,0.0,0.0,0.0,0.0,0.0,0.0,0.0,0.0,0.0,0.0,0.0,0.0,0.0,0.0,0.0,0.0,0.0,0.0,0.0,0.0,0.0,0.0,0.0,0.0,0.0,0.0,0.0,0.0,0.0,0.0,0.0,0.0,0.0,0.0,0.0,0.0,0.0,0.0,0.0,0.0,0.0,0.0,0.0,0.0,0.0,0.0,0.0,0.0,0.0,0.0,0.0,0.0,0.0,0.0,0.0,0.0,0.0,0.0,0.0,0.0,0.0,0.0,0.0,0.0,0.0,0.0,0.0,0.0,0.0,0.0,0.0,0.0,0.0,0.0,0.0,0.0,0.0,0.0,0.0,0.0,0.0,0.0,0.0,0.0,0.0,0.0,0.0,0.0,0.0,0.0,0.0,0.0,0.0,0.0,0.0,0.0,0.0,0.0,0.0,0.0,0.0,0.0,0.0,0.0,0.0,0.0,0.0,0.0,0.0,0.0,0.0,0.0,0.0,0.0,0.0,0.0,0.0,0.0,0.0,0.0,0.0,0.0,0.0,0.0,0.0,0.0,0.0,0.0,0.0,0.0,0.0,0.0,0.0,0.0,0.0,0.0,0.0,0.0,0.0,0.0,0.0,0.0,0.0,0.0,0.0,0.0,0.0,0.0,0.0,0.0,0.0,0.0,0.0,0.0,0.0,0.0,0.0,0.0,0.0,0.0,0.0,0.0,0.0,0.0,0.0,0.0,0.0,0.0,0.0,0.0,0.0,0.0,0.0,0.0,0.0,0.0,0.0,0.0,0.0,0.0,0.0,0.0,0.0,0.0,0.0,0.0,0.0,0.0,0.0,0.0,0.0,0.0,0.0,0.0,0.0,0.0,0.0,0.0,0.0,0.0,0.0,0.0,0.0,0.0,0.0,0.0,0.0,0.0,0.0,0.0,0.0,0.0,0.0,0.0,0.0,0.0,0.0,0.0,0.0,0.0,0.0,0.0,0.0,0.0,0.0,0.0,0.0,0.0,0.0,0.0,0.0,0.0,0.0,0.0,0.0,0.0,0.0,0.0,0.0,0.0,0.0,0.0,0.0,0.0,0.0,0.0,0.0,0.0,0.0,0.0,0.0,0.0,0.0,0.0,0.0,0.0,0.0,0.0,0.0,0.0,0.0,0.0,0.0,0.0,0.0,0.0,0.0,0.0,0.0,0.0,0.0,0.0,0.0,0.0,0.0,0.0,0.0,0.0,0.0,0.0,0.0,0.0,0.0,0.0,0.0,0.0,0.0,0.0,0.0,0.0,0.0,0.0,0.0,0.0,0.0,0.0,0.0,0.0,0.0,0.0,0.0,0.0,0.0,0.0,0.0,0.0,0.0,0.0,0.0,0.0,0.0,0.0,0.0,0.0,0.0,0.0,0.0,0.0,0.0,0.0,0.0,0.0,0.0,0.0,0.0,0.0,0.0,0.0,0.0,0.0,0.0,0.0,0.0,0.0,0.0,0.0,0.0,0.0,0.0,0.0,0.0,0.0,0.0,0.0,0.0,0.0,0.0,0.0,0.0,0.0,0.0,0.0,0.0,0.0,0.0,0.0,0.0,0.0,0.0,0.0,0.0,0.0,0.0,0.0,0.0,0.0,0.0,0.0,0.0,0.0,0.0,0.0,0.0,0.0,0.0,0.0,0.0,0.0,0.0,0.0,0.0,0.0,0.0,0.0,0.0,0.0,0.0,0.0,0.0,0.0,0.0,0.0,0.0,0.0,0.0,0.0,0.0,0.0,0.0,0.0,0.0,0.0,0.0,0.0,0.0,0.0,0.0,0.0,0.0,0.0,0.0,0.0,0.0,0.0,0.0,0.0,0.0,0.0,0.0,0.0,0.0,0.0,0.0,0.0,0.0,0.0,0.0,0.0,0.0,0.0,0.0,0.0,0.0,0.0,0.0,0.0,0.0,0.0,0.0,0.0,0.0,0.0,0.0,0.0,0.0,0.0,0.0,0.0,0.0,0.0,0.0,0.0,0.0,0.0,0.0,0.0,0.0,0.0,0.0,0.0,0.0,0.0,0.0,0.0,0.0,0.0,0.0,0.0,0.0,0.0,0.0,0.0,0.0,0.0,0.0,0.0,0.0,0.0,0.0,0.0,0.0,0.0,0.0,0.0,0.0,0.0,0.0,0.0,0.0,0.0,0.0,0.0,0.0,0.0,0.0,0.0,0.0,0.0,0.0,0.0,0.0,0.0,0.0,0.0,0.0,0.0,0.0,0.0,0.0,0.0,0.0,0.0,0.0,0.0,0.0,0.0,0.0,0.0,0.0,0.0,0.0,0.0,0.0,0.0,0.0,0.0,0.0,0.0,0.0,0.0,0.0,0.0,0.0,0.0,0.0,0.0,0.0,0.0,0.0,0.0,0.0,0.0,0.0,0.0,0.0,0.0,0.0,0.0,0.0,0.0,0.0,0.0,0.0,0.0,0.0,0.0,0.0,0.0,0.0,0.0,0.0,0.0,0.0,0.0,0.0,0.0,0.0,0.0,0.0,0.0,0.0,0.0,0.0,0.0,0.0,0.0,0.0,0.0,0.0,0.0,0.0,0.0,0.0,0.0,0.0,0.0,0.0,0.0,0.0,0.0,0.0,0.0,0.0,0.0,0.0,0.0,0.0,0.0,0.0,0.0,0.0,0.0,0.0,0.0,0.0,0.0,0.0,0.0,0.0,0.0,0.0,0.0,0.0,0.0,0.0,0.0,0.0,0.0,0.0,0.0,0.0,0.0,0.0,0.0,0.0,0.0,0.0,0.0,0.0,0.0,0.0,0.0,0.0,0.0,0.0,0.0,0.0,0.0,0.0,0.0,0.0,0.0,0.0,0.0,0.0,0.0,0.0,0.0,0.0,0.0,0.0,0.0,0.0,0.0,0.0,0.0,0.0,0.0,0.0,0.0,0.0,0.0,0.0,0.0,0.0,0.0,0.0,0.0,0.0,0.0,0.0,0.0,0.0,0.0,0.0,0.0,0.0,0.0,0.0,0.0,0.0,0.0,0.0,0.0,0.0,0.0,0.0,0.0,0.0,0.0,0.0,0.0,0.0,0.0,0.0,0.0,0.0,0.0,0.0,0.0,0.0,0.0,0.0,0.0,0.0,0.0,0.0,0.0,0.0,0.0,0.0,0.0,0.0,0.0,0.0,0.0,0.0,0.0,0.0,0.0,0.0,0.0,0.0,0.0,0.0,0.0,0.0,0.0,0.0,0.0,0.0,0.0,0.0,0.0,0.0,0.0,0.0,0.0,0.0,0.0,0.0,0.0,0.0,0.0,0.0,0.0,0.0,0.0,0.0,0.0,0.0,0.0,0.0,0.0,0.0,0.0,0.0,0.0,0.0,0.0,0.0,0.0,0.0,0.0,0.0,0.0,0.0,0.0,0.0,0.0,0.0,0.0,0.0,0.0,0.0,0.0,0.0,0.0,0.0,0.0,0.0,0.0,0.0,0.0,0.0,0.0,0.0,0.0,0.0,0.0,0.0,0.0,0.0,0.0,0.0,0.0,0.0,0.0,0.0,0.0,0.0,0.0,0.0,0.0,0.0,0.0,0.0,0.0,0.0,0.0,0.0,0.0,0.0,0.0,0.0,0.0,0.0,0.0,0.0,0.0,0.0,0.0,0.0,0.0,0.0,0.0,0.0,0.0,0.0,0.0,0.0,0.0,0.0,0.0,0.0,0.0,0.0,0.0,0.0,0.0,0.0,0.0,0.0,0.0,0.0,0.0,0.0,0.0,0.0,0.0,0.0,0.0,0.0,0.0,0.0,0.0,0.0,0.0,0.0,0.0,0.0,0.0,0.0,0.0,0.0,0.0,0.0,0.0,0.0,0.0,0.0,0.0,0.0,0.0,0.0,0.0,0.0,0.0,0.0,0.0,0.0,0.0,0.0,0.0,0.0,0.0,0.0,0.0,0.0,0.0,0.0,0.0,0.0,0.0,0.0,0.0,0.0,0.0,0.0,0.0,0.0,0.0,0.0,0.0,0.0,0.0,0.0,0.0,0.0,0.0,0.0,0.0,0.0,0.0,0.0,0.0,0.0,0.0,0.0,0.0,0.0,0.0,0.0,0.0,0.0,0.0,0.0,0.0,0.0,0.0,0.0,0.0,0.0,0.0,0.0,0.0,0.0,0.0,0.0,0.0,0.0,0.0,0.0,0.0,0.0,0.0,0.0,0.0,0.0,0.0,0.0,0.0,0.0,0.0,0.0,0.0,0.0,0.0,0.0,0.0,0.0,0.0,0.0,0.0,0.0,0.0,0.0,0.0,0.0,0.0,0.0,0.0,0.0,0.0,0.0,0.0,0.0,0.0,0.0,0.0,0.0,0.0,0.0,0.0,0.0,0.0,0.0,0.0,0.0,0.0,0.0,0.0,0.0,0.0,0.0,0.0,0.0,0.0,0.0,0.0,0.0,0.0,0.0,0.0,0.0,0.0,0.0,0.0,0.0,0.0,0.0,0.0,0.0,0.0,0.0,0.0,0.0,0.0,0.0,0.0,0.0,0.0,0.0,0.0,0.0,0.0,0.0,0.0,0.0,0.0,0.0,0.0,0.0,0.0,0.0,0.0,0.0,0.0,0.0,0.0,0.0,0.0,0.0,0.0,0.0,0.0,0.0,0.0,0.0,0.0,0.0,0.0,0.0,0.0,0.0,0.0,0.0,0.0,0.0,0.0,0.0,0.0,0.0,0.0,0.0,0.0,0.0,0.0,0.0,0.0,0.0,0.0,0.0,0.0,0.0,0.0,0.0,0.0,0.0,0.0,0.0,0.0,0.0,0.0,0.0,0.0,0.0,0.0,0.0,0.0,0.0,0.0,0.0,0.0,0.0,0.0,0.0,0.0,0.0,0.0,0.0,0.0,0.0,0.0,0.0,0.0,0.0,0.0,0.0,0.0,0.0,0.0,0.0,0.0,0.0,0.0,0.0,0.0,0.0,0.0,0.0,0.0,0.0,0.0,0.0,0.0,0.0,0.0,0.0,2.3448,2.1263,0.0,0.0,0.0,0.0,0.0,0.0,0.0,0.0,0.0,0.0,0.0,0.0,0.0,0.0,0.0,0.0,0.0,0.0,0.0,0.0,0.0,0.0,0.0,1.0538,1.0538,1.0538,1.0538,0.0,0.0,0.0,0.0,0.0,0.0,0.0,0.0,0.0,1.2646,1.3557,1.4393,1.5659,1.7294,1.6378,1.5749,1.54,0.0,0.0,0.0,0.0,0.0,0.0,0.0,0.0,0.0,0.0,0.0,0.0,0.0,0.0,0.0,0.0,0.0,0.0,0.0,0.0,0.0,0.0,0.0,0.0,0.0,0.0,0.0,0.0,0.0,0.0,0.0,0.0,0.0,0.0,0.0,0.0,0.0,0.0,0.0,0.0,0.0,0.0,0.0,0.0,0.0,0.0,0.0,0.0,0.0,0.0,0.0,0.0,0.0,0.0,0.0,0.0,0.0,0.0,0.0,0.0,0.0,0.0,0.0,0.0,0.0,0.0,0.0,0.0,0.0,0.0,2.5637,2.3959,0.0,0.0,0.0,0.0,0.0,0.0,0.0,0.0,0.0,0.0,0.0,0.0,0.0,0.0,0.0,0.0,0.0,0.0,0.0,0.0,0.0,1.0538,1.14,1.1502,1.1553,1.1671,1.1688,1.1637,1.1502,1.1502,0.0,0.0,0.0,0.0,1.2669,1.3532,1.4469,1.5488,1.7133,1.8712,2.0223,2.0366,1.9758,1.8537,1.8163,0.0,0.0,0.0,0.0,0.0,0.0,0.0,0.0,0.0,0.0,0.0,0.0,0.0,0.0,0.0,0.0,0.0,0.0,0.0,0.0,0.0,0.0,0.0,0.0,0.0,0.0,0.0,0.0,0.0,0.0,0.0,0.0,0.0,0.0,0.0,0.0,0.0,0.0,0.0,0.0,0.0,0.0,0.0,0.0,0.0,0.0,0.0,0.0,0.0,0.0,0.0,0.0,0.0,0.0,0.0,0.0,0.0,0.0,0.0,0.0,0.0,0.0,0.0,2.8503,2.898,2.9617,2.9764,2.9837,2.9745,2.8429,2.7378,2.6607,2.6607,0.0,0.0,0.0,0.0,0.0,0.0,0.0,0.0,0.0,0.0,0.0,0.0,0.0,0.0,0.0,0.0,0.0,0.0,0.0,1.1502,1.2939,1.3108,1.3346,1.4005,1.4038,1.3785,1.3142,1.3108,0.0,0.0,0.0,1.4089,1.4207,1.5544,1.6795,1.7857,1.986,2.1079,2.1551,2.2264,2.2484,2.2209,2.0407,1.9536,1.9341,0.0,0.0,0.0,0.0,0.0,0.0,0.0,0.0,0.0,0.0,0.0,0.0,0.0,0.0,0.0,0.0,0.0,0.0,0.0,0.0,0.0,0.0,0.0,0.0,0.0,0.0,0.0,0.0,0.0,0.0,0.0,0.0,0.0,0.0,0.0,0.0,0.0,0.0,0.0,0.0,0.0,2.068,2.1148,0.0,0.0,0.0,0.0,0.0,0.0,0.0,0.0,0.0,0.0,0.0,0.0,0.0,2.7824,2.8521,2.9329,2.9787,2.9898,3.1311,3.2027,3.2155,3.2852,3.3164,3.3164,3.2944,0.0,2.8617,2.8617,0.0,0.0,0.0,0.0,0.0,0.0,0.0,0.0,0.0,0.0,0.0,0.0,0.0,0.0,0.0,0.0,0.0,0.0,0.0,0.0,0.0,1.4649,1.4766,1.5088,1.5122,1.4986,1.4648,1.5022,0.0,0.0,1.5967,1.6559,1.6965,1.7791,1.9046,2.0733,2.2221,2.327,2.3841,2.4649,2.5034,2.4959,2.3613,2.2478,2.1533,1.9831,0.0,0.0,0.0,0.0,0.0,0.0,0.0,0.0,0.0,0.0,0.0,0.0,0.0,0.0,0.0,0.0,0.0,0.0,0.0,0.0,0.0,0.0,0.0,0.0,0.0,0.0,0.0,0.0,0.0,0.0,0.0,0.0,0.0,0.0,0.0,0.0,0.0,0.0,0.0,2.1424,2.2496,2.3523,2.3373,2.3595,0.0,0.0,0.0,0.0,0.0,0.0,0.0,0.0,0.0,2.8907,2.952,3.021,3.1011,3.1825,3.2449,3.2926,3.3597,3.4211,3.4688,3.5037,3.5202,3.5202,3.5202,3.4412,3.2999,3.1604,3.1011,3.0882,0.0,0.0,0.0,0.0,2.7349,2.7273,0.0,0.0,0.0,0.0,0.0,0.0,0.0,0.0,0.0,0.0,0.0,0.0,1.5731,1.6052,1.6238,1.6424,1.6627,1.6728,1.6728,1.7236,1.754,1.754,1.8082,1.8623,1.9164,1.9992,2.1316,2.3193,2.4273,2.5107,2.5713,2.6319,2.6612,2.6576,2.597,2.4924,2.3492,2.1735,2.0953,2.068,0.0,0.0,0.0,0.0,0.0,0.0,0.0,0.0,0.0,0.0,0.0,0.0,0.0,0.0,0.0,0.0,0.0,0.0,0.0,0.0,0.0,0.0,0.0,0.0,0.0,0.0,0.0,0.0,0.0,0.0,0.0,0.0,0.0,0.0,0.0,0.0,0.0,2.3148,2.4135,2.5529,2.5491,2.5651,0.0,0.0,0.0,0.0,0.0,0.0,2.8705,2.9494,3.0393,3.1403,3.2008,3.2724,3.355,3.4339,3.5055,3.5661,3.6064,3.6597,3.7221,3.7422,3.7533,3.7533,3.7533,3.7533,3.7331,3.4651,3.355,3.3376,3.1727,3.1056,3.0947,3.0148,2.9875,2.9901,0.0,0.0,0.0,0.0,0.0,0.0,0.0,0.0,0.0,0.0,0.0,1.5781,1.6563,1.727,1.798,1.8674,1.9384,1.9782,1.9782,1.9816,1.9833,1.9833,1.9866,1.99,1.9934,2.2013,2.3647,2.4775,2.5935,2.6502,2.6539,2.6594,2.6612,2.6612,2.6557,2.6062,2.5182,2.3547,2.272,2.2345,2.0735,0.0,0.0,0.0,0.0,0.0,0.0,0.0,0.0,0.0,0.0,0.0,0.0,0.0,0.0,0.0,0.0,0.0,0.0,0.0,0.0,0.0,0.0,0.0,0.0,0.0,0.0,0.0,0.0,0.0,0.0,0.0,0.0,0.0,0.0,0.0,0.0,0.0,0.0,2.6447,2.6518,0.0,0.0,0.0,0.0,2.881,2.9599,3.0411,3.1164,3.199,3.3146,3.4697,3.4789,3.5257,3.6101,3.689,3.7342,3.7386,3.8909,3.968,3.9735,4.0506,4.0873,4.0873,4.0873,4.0873,4.0616,3.7441,3.6101,3.6028,3.5082,3.4734,3.4642,3.3835,3.3523,3.3523,0.0,0.0,0.0,0.9523,0.9815,1.0423,1.1688,1.2753,1.4006,1.568,1.6136,1.6948,1.864,1.883,1.9047,1.9553,2.0055,2.0216,2.001,2.0483,2.0771,2.0771,2.1684,2.2627,2.3536,2.4557,2.5651,2.6775,2.7706,2.8411,2.8925,2.9439,2.9677,2.9659,2.9145,2.876,2.8356,2.6227,2.4957,2.4292,2.306,2.2121,0.0,0.0,0.0,0.0,0.0,0.0,0.0,0.0,0.0,0.0,0.0,0.0,0.0,0.0,0.0,0.0,0.0,0.0,0.0,0.0,0.0,0.0,0.0,0.0,0.0,0.0,0.0,0.0,0.0,0.0,0.0,0.0,0.0,0.0,0.0,0.0,0.0,2.8062,2.8613,0.0,3.0026,3.0595,3.1017,3.1311,3.2559,3.3421,3.3715,3.5018,3.6009,3.6597,3.7606,3.8303,3.8597,3.9405,3.9827,3.9827,4.0414,4.0671,4.0689,4.0983,4.1111,4.1111,4.1111,4.1111,4.102,3.9863,3.9074,3.8524,3.7698,3.7386,3.7349,3.7055,3.6945,3.6945,0.0,0.0,0.0,0.9866,1.0203,1.0893,1.2432,1.3515,1.4768,1.6479,1.7139,1.7997,1.9461,1.9857,2.011,2.0365,2.0841,2.1105,2.1143,2.1651,2.204,2.2304,2.3369,2.4646,2.6061,2.6633,2.7458,2.8613,2.942,3.0081,3.0613,3.1146,3.1384,3.1366,3.0834,3.0595,3.0503,2.8906,2.7438,2.6117,2.5147,2.4203,2.3208,0.0,0.0,0.0,0.0,0.0,0.0,0.0,0.0,0.0,0.0,0.0,0.0,0.0,0.0,0.0,0.0,0.0,0.0,0.0,0.0,0.0,0.0,0.0,0.0,0.0,0.0,0.0,0.0,0.0,0.0,0.0,0.0,0.0,0.0,2.7314,2.8705,3.0039,3.0705,3.1439,3.2504,3.3109,3.366,3.4211,3.5238,3.6083,3.6633,3.7698,3.8414,3.8707,3.9753,4.0304,4.0304,4.1111,4.1515,4.1515,4.1791,4.1919,4.1919,4.1919,4.1919,4.1919,4.1919,4.1919,4.1919,4.1919,4.1607,4.1001,3.9937,3.9515,3.9515,3.9515,3.9515,3.9515,0.0,0.0,0.9145,0.9899,1.0639,1.162,1.3193,1.4665,1.5866,1.6631,1.7997,1.891,1.8961,2.0323,2.1221,2.1237,2.1887,2.2615,2.3342,2.3393,2.3761,2.4506,2.4988,2.5879,2.7332,2.8171,2.9155,3.032,3.1091,3.1494,3.1549,3.1549,3.1549,3.1549,3.1549,3.1549,3.1531,3.1494,3.0118,2.7897,2.7034,2.5983,2.4906,0.0,0.0,0.0,0.0,0.0,0.0,0.0,0.0,0.0,0.0,0.0,0.0,0.0,0.0,0.0,0.0,0.0,0.0,0.0,0.0,0.0,0.0,0.0,0.0,0.0,0.0,0.0,0.0,0.0,0.0,0.0,0.0,0.0,2.8601,2.8907,3.0002,3.2375,3.2687,3.3348,3.4917,3.5082,3.5807,3.7441,3.7588,3.8285,3.9845,3.9955,4.0322,4.113,4.1167,4.1185,4.1185,4.1956,4.2341,4.2359,4.313,4.3497,4.3497,4.3516,4.3534,4.3534,4.3552,4.3552,4.3552,4.3552,4.3552,4.3406,4.1809,4.1185,4.1185,4.1185,4.1185,4.1185,0.901,0.8891,0.9298,1.0572,1.0961,1.1806,1.3887,1.5003,1.6052,1.7337,1.8318,1.9316,2.0458,2.1105,2.1636,2.1983,2.2405,2.287,2.3371,2.3393,2.41,2.5665,2.6896,2.8003,2.8951,3.0043,3.1327,3.2816,3.3036,3.3752,3.4945,3.4945,3.4945,3.4945,3.4945,3.4945,3.4871,3.366,3.2761,3.1935,2.9384,2.7798,2.6885,0.0,0.0,0.0,0.0,0.0,0.0,0.0,0.0,0.0,0.0,0.0,0.0,0.0,0.0,0.0,0.0,0.0,0.0,0.0,0.0,0.0,0.0,0.0,0.0,0.0,0.0,0.0,0.0,0.0,0.0,0.0,2.9564,3.0497,2.9838,3.1316,3.2724,3.3385,3.4541,3.5679,3.6707,3.7349,3.812,3.9148,3.9772,4.0304,4.0763,4.1332,4.1735,4.1974,4.2543,4.2837,4.2837,4.3057,4.3167,4.3167,4.3387,4.3497,4.3516,4.4103,4.4378,4.4397,4.4984,4.5241,4.5241,4.5241,4.5241,4.5076,4.3461,4.2837,4.2837,4.2837,4.2837,4.2837,0.9044,0.9145,0.9726,1.0893,1.1383,1.2365,1.4631,1.5325,1.6136,1.7625,1.8724,1.9705,2.0602,2.1412,2.2002,2.2276,2.2743,2.3294,2.3829,2.4607,2.5764,2.7362,2.8416,2.9554,3.0828,3.185,3.3036,3.4302,3.4669,3.5349,3.6303,3.6303,3.6303,3.6303,3.6303,3.6303,3.6229,3.5257,3.4633,3.4119,3.1916,2.9934,2.8223,2.757,2.6609,2.5496,2.4512,2.3891,2.331,2.2072,0.0,0.0,0.0,0.0,0.0,0.0,0.0,0.0,0.0,0.0,0.0,0.0,0.0,0.0,0.0,0.0,0.0,0.0,0.0,0.0,0.0,0.0,0.0,0.0,3.1492,3.2596,3.3183,3.3862,3.4688,3.5734,3.6707,3.7753,3.8891,3.9441,4.0047,4.0836,4.135,4.1754,4.2084,4.2543,4.28,4.28,4.3259,4.3644,4.3993,4.3993,4.4176,4.4507,4.4507,4.4507,4.4507,4.4984,4.5204,4.5241,4.57,4.5902,4.5902,4.5902,4.5902,4.581,0.0,0.0,0.0,0.0,4.4507,4.4507,0.9196,0.9557,1.022,1.0961,1.1773,1.3041,1.5257,1.5595,1.6136,1.7625,1.9072,2.0002,2.0002,2.137,2.231,2.231,2.297,2.3748,2.456,2.6385,2.7922,2.9053,2.9557,3.0683,3.2551,3.3476,3.4339,3.5137,3.6009,3.6468,3.656,3.656,3.656,3.656,3.656,3.656,3.656,3.6468,3.5991,3.5192,3.4302,3.2118,2.9397,2.9329,2.8282,2.6778,2.6062,2.5697,2.5271,2.3517,0.0,0.0,0.0,0.0,0.0,0.0,0.0,0.0,0.0,0.0,0.0,0.0,0.0,0.0,0.0,0.0,0.0,0.0,0.0,0.0,0.0,0.0,0.0,0.0,3.3478,3.511,3.7312,3.6523,3.6457,3.8579,3.8927,3.957,4.1093,4.1258,4.1589,4.2378,4.2433,4.2745,4.3442,4.3589,0.0,0.0,0.0,4.4103,4.4837,4.4856,4.5186,4.5902,4.5902,4.5902,4.5902,4.5993,4.6049,4.6049,4.6122,4.6177,4.6177,4.6177,4.6177,4.614,4.5975,4.5902,4.5902,4.5902,4.5902,4.5902,1.0064,0.9899,1.022,1.0961,1.1773,1.3041,1.5257,1.5595,1.6136,1.7625,1.9072,2.0002,2.0002,2.137,2.231,2.231,2.297,2.3968,2.5304,2.7133,2.8469,2.9053,3.0359,3.1554,3.2596,3.4,3.5202,3.6046,3.6853,3.7588,3.8248,3.8248,3.8248,3.8248,3.8248,3.8248,3.8193,3.7533,3.7165,3.6872,3.5385,3.3615,3.1843,3.1182,2.9934,2.8517,2.8374,2.7475,2.6209,2.5196,2.4866,2.4699,2.3855,2.3141,0.0,0.0,0.0,0.0,0.0,0.0,0.0,0.0,0.0,0.0,0.0,0.0,0.0,0.0,0.0,0.0,0.0,0.0,0.0,3.3369,3.5889,3.7918,3.8395,3.9313,3.9863,3.968,4.0249,4.102,4.1974,4.2066,4.2396,4.3204,4.3259,4.3332,4.3479,4.4121,4.447,4.447,4.5094,4.5516,4.5663,4.5663,4.5755,4.5902,4.5902,0.0,4.592,4.6581,4.6874,4.6911,4.7553,4.7847,4.7847,4.7847,4.7847,4.7719,4.6416,4.5902,4.5902,4.5902,4.5902,4.5902,1.1299,1.1164,1.1265,1.1637,1.2331,1.3464,1.5308,1.5595,1.6136,1.7625,1.9072,2.0002,2.0002,2.137,2.231,2.231,2.3494,2.4876,2.6336,2.766,2.8882,2.9948,3.0891,3.1971,3.3183,3.4816,3.5862,3.6303,3.7514,3.8303,3.8707,3.8707,3.8707,3.8707,3.8707,3.8707,3.867,3.8267,3.7863,3.7397,3.6156,3.4926,3.3652,3.2467,3.0999,2.9549,2.9122,2.8227,2.7071,2.6264,2.5988,2.586,2.5034,2.452,2.4116,0.0,0.0,0.0,0.0,0.0,0.0,0.0,0.0,0.0,0.0,0.0,0.0,0.0,0.0,3.0124,3.1482,0.0,3.46,3.6017,3.7643,3.9129,4.0341,4.1203,4.1552,4.1148,4.146,4.2029,4.2818,4.2892,4.3057,4.3461,4.3864,4.4103,4.4103,4.4856,4.5296,4.5296,4.5681,4.6085,4.6507,4.6507,4.6709,4.7095,4.7095,4.7095,4.7113,4.7535,4.7719,4.7737,4.8141,4.8306,4.8343,4.8765,4.9187,4.9481,4.8673,4.7847,4.7095,4.7095,4.7095,4.7095,1.25,1.25,1.2466,1.2331,1.2922,1.3904,1.5375,1.5595,1.6136,1.7625,1.8954,1.9833,1.9985,2.1235,2.2209,2.2496,2.4005,2.5564,2.6974,2.7825,2.9075,3.0812,3.1206,3.2137,3.3752,3.5275,3.6138,3.6303,3.7753,3.856,3.8707,3.8707,3.8707,3.8707,3.8707,3.8707,3.8707,3.8707,3.823,3.7422,3.6615,3.5789,3.4825,3.3403,3.1935,3.0558,2.9769,2.8962,2.8117,2.7163,2.6833,2.6686,2.5878,2.5621,2.5493,2.485,2.4667,0.0,0.0,0.0,0.0,0.0,0.0,0.0,0.0,2.8049,2.8427,3.0473,3.1421,3.2357,3.399,3.5073,3.6376,3.8395,3.9093,4.0084,4.2029,4.2433,4.2525,4.2525,4.2525,4.2782,4.3424,4.3626,4.3718,4.3718,4.4488,4.4947,4.4947,4.57,4.614,4.614,4.6287,4.6691,4.7352,4.7352,4.7682,4.8306,4.8306,4.8398,4.8545,4.8545,4.8636,4.8802,4.8802,4.8802,4.8838,4.9536,5.0215,5.0802,5.0802,4.9976,4.8802,4.8802,4.8802,4.8802,1.3278,1.3278,1.3074,1.2415,1.2922,1.3904,1.5375,1.5595,1.6136,1.7625,1.8521,1.9283,1.9917,2.0788,2.1837,2.3156,2.4015,2.4989,2.6242,2.7273,2.8755,3.0821,3.1206,3.2137,3.3752,3.4688,3.5532,3.6303,3.7184,3.7991,3.8707,3.8707,3.8707,3.8707,3.8707,3.8707,3.8707,3.8707,3.823,3.7422,3.6615,3.5789,3.4899,3.4009,3.3109,3.2247,3.1421,3.0613,2.9696,2.8172,2.7658,2.753,2.6722,2.6465,2.6447,2.6355,2.6337,2.6255,2.5959,2.5945,2.6222,2.7332,2.7574,2.7976,0.0,2.9892,3.0552,3.2926,3.3476,3.4045,3.5716,3.7257,3.8395,3.8652,4.0506,4.1992,4.2268,4.291,4.3369,4.3369,4.3369,4.3387,4.3479,4.4158,4.458,4.458,4.5314,4.5773,4.5773,4.6544,4.6985,4.6985,4.7664,4.8086,4.8159,4.8177,4.8214,4.8306,4.8306,4.871,4.9444,4.9444,4.9829,5.0527,5.0527,5.0527,5.0527,5.0637,5.0729,5.0802,5.0802,5.0692,5.0527,5.0527,5.0527,5.0527,1.3396,1.3396,1.3295,1.299,1.321,1.3752,1.48,1.5325,1.5967,1.7016,1.8166,1.9012,1.9333,2.045,2.1769,2.3257,2.4007,2.5022,2.6448,2.7339,2.8622,3.0414,3.1071,3.1935,3.3091,3.433,3.5174,3.555,3.6395,3.6964,3.7294,3.7294,3.7294,3.7294,3.7294,3.7294,3.7294,3.7294,3.711,3.6725,3.5881,3.5349,3.4899,3.4119,3.3311,3.2577,3.2228,3.1586,0.0,2.9586,2.92,2.8962,2.7695,2.7291,2.7291,2.7291,2.7291,2.7471,2.8273,2.8487,2.8712,2.9654,2.9898,3.032,3.1935,3.2302,3.2852,3.4853,3.5624,3.6303,3.7477,3.8634,3.9698,4.0634,4.1644,4.2451,4.2928,4.3277,4.3497,4.3497,4.3901,4.4195,4.4195,4.4507,4.4892,4.5369,4.614,4.6617,4.6617,4.737,4.781,4.781,4.8122,4.8306,4.8306,4.8802,4.9058,4.9058,4.9536,4.9958,5.0288,5.0288,5.0472,5.0802,5.0802,5.1077,5.1499,5.1499,5.1775,5.2215,5.2215,5.2215,5.2087,5.1151,5.0802,5.0802,1.3396,1.3396,1.3396,1.3396,1.3396,1.365,1.4394,1.4952,1.5629,1.658,1.7647,1.8521,1.9147,2.0399,2.1701,2.2987,2.3614,2.4547,2.6047,2.6904,2.8105,2.9806,3.0632,3.1439,3.2265,3.3642,3.444,3.4688,3.5532,3.6064,3.6303,3.6303,3.6303,3.6303,3.6303,3.6303,3.6303,3.6303,3.6156,3.5899,3.5247,3.4715,3.4257,3.3697,3.2981,3.2302,3.2522,3.2005,3.113,3.0442,3.0119,2.9814,2.8535,2.8282,2.8466,2.8466,2.8778,2.9329,3.0265,3.0687,3.1054,3.1861,3.2045,3.2485,3.4119,3.4486,3.489,3.6321,3.7257,3.8065,3.8872,3.9863,4.0928,4.2103,4.2488,4.2818,4.3406,4.3497,4.3571,4.3791,4.436,4.4874,4.5333,4.5369,4.5608,4.6195,4.6985,4.7443,4.7443,4.7994,4.8416,4.8655,4.8655,4.8765,4.9003,4.9609,4.9921,4.9921,5.0508,5.093,5.1132,5.1371,5.1463,5.1463,5.1463,5.1793,5.2325,5.2325,5.2674,5.3206,5.3206,5.3206,5.3078,5.1903,5.1463,5.1463,1.3396,1.3396,1.3396,1.3396,1.3396,1.365,1.4394,1.4511,1.5054,1.6512,1.6749,1.7574,1.9731,2.0703,2.1498,2.2276,2.2598,2.3239,2.4392,2.5542,2.7022,2.8957,2.9824,3.0613,3.1403,3.2247,3.3073,3.3844,3.4651,3.5477,3.6303,3.6303,3.6303,3.6303,3.6303,3.6303,3.6303,3.6303,3.5807,3.5027,3.5009,3.4055,3.2687,3.2669,3.2137,3.1531,3.232,3.1828,3.0757,3.0344,2.9951,2.9529,2.9101,2.9512,3.0136,3.0136,3.1237,3.2302,3.1549,3.1935,3.2724,3.3532,3.3733,3.4174,3.5844,3.6211,3.645,3.7276,3.8102,3.8909,3.9717,4.1148,4.2249,4.2286,4.2947,4.3461,4.3497,4.3497,4.3791,4.458,4.469,4.5314,4.6893,4.704,4.702,4.7076,4.7829,4.8269,4.8269,4.8306,4.8691,4.9517,4.9536,4.9921,5.0729,5.0747,5.0765,5.0765,5.0802,5.1206,5.1977,5.2766,5.3133,5.3133,5.3133,5.3151,5.317,5.317,5.3188,5.3206,5.3206,5.3206,5.3206,5.317,5.3133,5.3133,1.3396,1.3396,1.3396,1.3396,1.3396,1.3481,1.3718,1.4191,1.4663,1.5189,1.6086,0.0,0.0,0.0,0.0,0.0,2.1825,2.2581,2.4042,2.4861,2.5837,2.7022,2.8576,2.9549,2.9806,3.1127,3.1935,3.221,3.2485,3.2761,3.3054,3.3605,3.3862,3.3862,3.3862,3.3862,3.3807,3.3275,3.2871,3.2614,3.2614,3.2284,3.1806,3.1806,3.1292,3.0705,0.0,3.1417,3.0757,3.0059,2.9717,2.9583,2.9435,2.9764,3.0503,3.2118,3.3348,3.4266,3.4578,3.4431,3.4412,3.5257,3.5459,3.5752,3.6835,3.7092,3.7312,3.812,3.8927,3.9735,4.0561,4.157,4.247,4.3002,4.3314,4.3497,4.3497,4.3497,4.3791,4.4617,4.5168,4.592,4.7021,4.7113,4.7333,4.7865,4.8159,4.8545,4.9132,4.915,4.9536,5.0362,5.0398,5.0527,5.0802,5.1334,5.1591,5.1591,5.2142,5.2546,5.2821,5.3096,5.3206,5.3206,5.3206,5.3206,5.3206,5.3206,5.3206,5.3206,5.3206,5.3206,5.3206,5.3206,5.3206,5.3206,0.0,1.3396,1.3396,1.3396,1.3633,0.0,0.0,0.0,0.0,0.0,0.0,0.0,0.0,0.0,0.0,0.0,0.0,2.2056,2.3458,2.4201,2.4843,2.5464,2.6977,2.7779,2.7779,2.9366,3.0184,3.0184,3.0888,3.1232,3.125,3.1865,3.2173,3.2173,3.2173,3.2173,3.2137,3.1623,3.1898,3.2596,3.1421,3.1311,3.1696,3.054,2.9604,0.0,2.9494,2.9466,2.9222,2.966,2.9717,2.9638,2.9769,3.0567,3.1788,3.3348,3.4798,3.5881,3.5862,3.5862,3.6028,3.6578,3.6725,3.6927,3.7734,3.7918,3.8065,3.8597,3.957,4.0487,4.102,4.1992,4.2892,4.3406,4.3497,4.3497,4.3497,4.3497,4.3901,4.5002,4.559,4.6324,4.7425,4.7535,4.7755,4.8269,4.86,4.9003,4.9554,4.9848,5.0398,5.1206,5.1224,5.1371,5.1665,5.2179,5.2435,5.2435,5.2968,5.3206,5.3206,5.3206,5.3206,5.3206,5.3206,5.3206,5.3206,5.3206,5.3206,5.3206,5.3206,5.3206,5.3206,5.3206,5.3206,5.3206,0.0,0.0,1.3413,0.0,0.0,0.0,0.0,0.0,0.0,0.0,0.0,0.0,0.0,0.0,0.0,0.0,0.0,0.0,2.2539,2.3432,2.4051,2.4304,2.5098,2.5532,2.5532,2.7059,2.7885,2.7885,2.9727,3.0649,3.0677,3.1031,3.1201,3.1201,3.1201,3.1201,3.1201,3.1164,3.2485,3.4293,3.1256,3.0944,3.1971,2.8906,2.7255,2.6612,2.6573,2.634,2.6423,2.9137,2.989,2.9746,3.0124,3.1916,3.3862,3.3917,3.5587,3.711,3.5605,3.6321,3.7526,3.7562,3.7551,3.7753,3.8524,3.8707,3.8707,3.8707,3.9955,4.1056,4.1111,4.2378,4.3442,4.3479,4.3497,4.3497,4.3497,4.3497,4.4085,4.57,4.5902,4.6526,4.8141,4.8306,4.8324,4.8361,4.9132,4.9627,4.9701,5.0453,5.1224,5.2032,5.205,5.2435,5.3206,5.3206,5.3206,5.3206,5.3206,5.3206,5.3206,5.3206,5.3206,5.3206,5.3206,5.3206,5.3206,5.3206,5.3225,5.328,5.328,5.3298,5.3335,5.3335,5.3335,5.3335,0.0,0.0,0.0,0.0,0.0,0.0,0.0,0.0,0.0,0.0,0.0,0.0,0.0,0.0,0.0,0.0,0.0,0.0,2.154,2.2479,2.3041,2.3144,2.4134,2.4708,2.4708,2.5691,2.6189,2.6189,2.6702,2.7072,2.735,2.8027,2.8481,2.8705,2.8705,2.8705,2.8668,2.8081,2.8191,2.8686,2.786,2.7769,2.8044,2.7218,2.6778,2.6573,2.6318,2.6322,2.6589,2.7616,2.913,3.0631,3.0972,3.2761,3.4835,3.5477,3.6101,3.6762,3.7551,3.7624,3.7624,3.823,3.8395,3.845,3.8652,3.8707,3.8707,3.8707,3.9496,4.0396,4.1001,4.1937,4.28,4.3387,4.3497,4.3497,4.3497,4.3497,4.4085,4.57,4.5902,4.6526,4.8141,4.8306,4.8563,4.9205,4.9462,5.0105,5.1316,5.1573,5.205,5.2876,5.2894,5.3004,5.3206,5.3206,5.3206,5.3206,5.3206,5.3206,5.3206,5.3206,5.3206,5.3206,5.3206,5.3206,5.3206,5.3206,5.3555,5.4087,5.4087,5.4454,5.4987,5.4987,5.4987,5.4987,0.0,0.0,0.0,0.0,0.0,0.0,0.0,0.0,0.0,0.0,0.0,0.0,0.0,0.0,0.0,0.0,0.0,0.0,0.0,2.1541,2.2039,2.2039,2.2946,2.3467,2.3467,2.4224,2.4634,2.4634,2.5129,2.5491,2.5689,2.6251,2.6639,2.6843,2.6843,2.6843,2.6807,2.6522,2.6986,0.0,0.0,2.6704,2.7512,2.608,2.5548,2.5489,2.5179,2.5615,2.6435,2.6809,2.8809,3.1154,3.1334,3.3054,3.5082,3.5605,3.6248,3.7019,3.7918,3.8102,3.8138,3.8597,3.8707,3.8707,3.8707,3.8707,3.8707,3.8707,3.9331,4.0029,4.0487,4.1515,4.2451,4.2892,4.3259,4.3497,4.3497,4.3497,4.4085,4.57,4.5902,4.6526,4.8141,4.8655,4.9224,5.005,5.0123,5.0655,5.1922,5.2325,5.2729,5.3206,5.3206,5.3206,5.3206,5.3206,5.3206,5.3206,5.3206,5.3206,5.3206,5.3206,5.339,5.3739,5.3739,5.394,5.4252,5.4252,5.4528,5.4932,5.4932,5.5188,5.5592,5.5592,5.5592,5.5647,0.0,0.0,0.0,0.0,0.0,0.0,0.0,0.0,0.0,0.0,0.0,1.6885,1.6987,1.7473,0.0,0.0,0.0,0.0,0.0,0.0,2.1025,2.1025,2.1752,2.2158,2.2158,2.2885,2.3241,2.3241,2.423,2.4739,2.4778,2.5077,2.5232,2.5283,2.5333,2.5358,2.5358,2.5661,2.6989,2.8667,2.6129,2.638,2.7976,0.0,2.417,2.4151,2.3816,2.4671,2.6,2.641,2.8645,3.1256,3.1366,3.2908,3.4715,3.4935,3.6119,3.7379,3.7489,3.8083,3.8707,3.8707,3.8707,3.8707,3.8707,3.8707,3.867,3.856,3.9093,3.9606,3.9717,4.0873,4.1937,4.2249,4.2892,4.3369,4.3461,4.3497,4.4085,4.57,4.5902,4.6526,4.8141,4.9077,4.9921,5.0747,5.0894,5.1316,5.2105,5.2821,5.3206,5.3206,5.3206,5.3206,5.3206,5.3206,5.3206,5.3206,5.3206,5.328,5.3371,5.3371,5.3812,5.4564,5.4564,5.495,5.5592,5.5592,5.5647,5.5757,5.5757,5.5812,5.5904,5.5904,5.5904,5.6014,0.0,0.0,0.0,0.0,0.0,0.0,0.0,0.0,0.0,0.0,1.8302,1.7845,0.0,0.0,0.0,0.0,0.0,0.0,0.0,0.0,0.0,2.0204,2.0974,2.138,2.138,2.2107,2.2496,2.2496,2.27,2.2911,2.312,2.3172,2.3333,2.362,2.3912,2.4024,2.4024,2.4086,2.4364,2.4667,2.3889,2.3993,2.4556,2.3994,2.3976,0.0,2.3816,2.4306,2.5231,2.595,2.8062,3.0522,3.1182,3.2137,3.3293,3.4605,3.5734,3.6652,3.7312,3.8083,3.8707,3.8707,3.8707,3.8707,3.8707,3.8707,3.8505,3.7845,3.7808,3.8102,3.8799,3.9148,3.9974,4.1974,4.2415,4.2745,4.3406,4.3497,4.4085,4.57,4.5902,4.6526,4.8141,4.9077,4.9921,5.0747,5.1426,5.2142,5.2968,5.3133,5.3206,5.3206,5.3206,5.3206,5.3206,5.3206,5.3206,5.3206,5.3206,5.3555,5.4197,5.4197,5.4638,5.5372,5.5372,5.5464,5.5592,5.5592,5.5978,5.6602,5.6602,5.7005,5.7574,5.7574,5.7574,5.7593,0.0,0.0,0.0,0.0,0.0,0.0,0.0,1.9232,1.9596,1.9951,1.9376,1.9072,1.9435,1.8809,1.8504,0.0,0.0,0.0,0.0,0.0,0.0,1.9435,2.0162,2.0585,2.0585,2.0914,2.1083,2.1083,0.0,2.1172,2.1302,2.1302,2.1584,2.2166,2.2037,2.221,2.2546,2.2482,2.2365,2.2243,2.226,2.2282,2.2324,2.2445,2.2837,0.0,2.381,2.4259,2.4831,2.5982,2.7401,2.9016,3.0846,3.1953,3.2926,3.4513,3.5624,3.6468,3.7276,3.8083,3.8707,3.8707,3.8707,3.8597,3.8175,3.8065,3.7845,3.7037,3.6872,3.6982,3.7386,3.8138,3.9093,4.0249,4.1479,4.2433,4.2818,4.3222,4.4085,4.57,4.5902,4.6526,4.8141,4.9462,5.038,5.0765,5.194,5.2803,5.3188,5.3206,5.3206,5.3206,5.3206,5.3206,5.3206,5.3206,5.3427,5.383,5.383,5.4252,5.5023,5.5023,5.5464,5.6216,5.6216,5.6455,5.684,5.684,5.7079,5.7428,5.7428,5.7666,5.7997,5.7997,5.7997,5.7997,0.0,0.0,0.0,0.0,0.0,0.0,0.0,1.9773,2.0306,2.0475,2.0491,2.0491,2.0491,1.9688,1.9147,0.0,0.0,0.0,0.0,0.0,0.0,0.0,0.0,0.0,1.9748,0.0,0.0,2.0002,2.0002,0.0,0.0,0.0,0.0,0.0,2.0563,2.0742,2.1285,2.1175,2.101,0.0,0.0,2.1031,2.0926,0.0,0.0,0.0,0.0,2.4151,2.4556,2.5812,2.6636,2.7622,3.0308,3.1696,3.2669,3.4257,3.5349,3.6156,3.678,3.7551,3.8193,3.8193,3.8193,3.8028,3.7386,3.7221,3.7,3.6193,3.6028,3.6028,3.6028,3.7055,3.8083,3.8615,4.0432,4.1901,4.2249,4.2983,4.4085,4.57,4.5902,4.6526,4.8141,4.9829,5.0802,5.0802,5.2307,5.3206,5.3206,5.3206,5.3206,5.3206,5.3206,5.3206,5.3206,5.339,5.3775,5.4399,5.4564,5.5078,5.5849,5.5849,5.629,5.706,5.706,5.7428,5.7997,5.7997,5.7997,5.7997,5.7997,5.7997,5.7997,5.7997,5.7997,5.7997,0.0,0.0,0.0,0.0,0.0,0.0,0.0,2.0585,2.1329,2.2006,2.2107,2.2107,2.2107,2.0779,1.99,0.0,0.0,0.0,0.0,0.0,0.0,0.0,0.0,0.0,0.0,0.0,0.0,2.0002,2.0002,0.0,0.0,0.0,0.0,0.0,0.0,2.0535,2.0587,2.0587,0.0,0.0,0.0,0.0,0.0,0.0,0.0,0.0,0.0,2.3685,2.4312,2.4867,2.5754,2.7083,2.9549,3.0852,3.1825,3.344,3.4486,3.5137,3.5192,3.5862,3.6523,3.6523,3.6523,3.6486,3.6431,3.6413,3.6156,3.5312,3.5119,3.5119,3.5119,3.5229,3.6072,3.834,3.9496,4.0616,4.2084,4.2983,4.4085,4.57,4.5902,4.6526,4.8141,4.9829,5.0802,5.0802,5.2307,5.3206,5.3206,5.3206,5.3206,5.3206,5.3206,5.3206,5.3206,5.3922,5.4326,5.4418,5.5133,5.5904,5.6693,5.6693,5.7134,5.7886,5.7886,5.7923,5.7997,5.7997,5.7997,5.7997,5.7997,5.7997,5.7997,5.7997,5.7997,5.7997,0.0,0.0,0.0,0.0,0.0,0.0,1.9951,2.1075,2.1972,2.2276,2.231,2.231,2.231,2.1742,2.0998,2.0086,0.0,0.0,0.0,0.0,0.0,0.0,0.0,0.0,0.0,0.0,1.8667,1.8667,1.8667,0.0,0.0,0.0,0.0,0.0,0.0,1.9351,1.975,1.9472,0.0,0.0,0.0,0.0,0.0,0.0,0.0,0.0,0.0,0.0,2.3757,2.4844,2.5688,2.6668,2.8824,3.0356,3.1715,3.333,3.4376,3.499,3.499,3.5642,3.6303,3.6303,3.6303,3.6028,3.5018,3.4798,3.4412,3.3109,3.2834,3.2834,3.2834,3.3623,3.4761,3.6248,3.8395,4.0286,4.1423,4.269,4.4085,4.57,4.5902,4.6526,4.8141,4.9829,5.1206,5.2179,5.2858,5.3206,5.3206,5.3206,5.3206,5.3206,5.3206,5.3445,5.3922,5.4234,5.4895,5.5849,5.618,5.6748,5.7519,5.7519,5.7703,5.7997,5.7997,5.7997,5.7997,5.7997,5.7997,5.7997,5.7997,5.7997,5.7997,5.7997,5.7997,5.7997,0.0,0.0,0.0,0.0,0.0,2.0002,2.0002,2.1302,2.231,2.231,2.231,2.231,2.231,2.231,2.1674,2.0137,1.9536,0.0,0.0,0.0,0.0,0.0,0.0,0.0,0.0,0.0,1.7811,1.7811,1.7811,1.7811,0.0,0.0,1.8082,1.8555,0.0,0.0,0.0,0.0,0.0,0.0,0.0,0.0,0.0,0.0,0.0,0.0,0.0,0.0,0.0,0.0,0.0,2.6227,2.805,2.9586,3.1054,3.2908,3.4027,3.4669,3.4669,3.5092,3.555,3.555,3.5385,3.4908,3.3715,3.3256,3.2761,3.1623,3.1384,3.1384,3.1384,3.2522,3.3788,3.4825,3.7569,3.9918,4.0965,4.2488,4.4085,4.57,4.5902,4.6526,4.8141,4.9829,5.1481,5.3096,5.3206,5.3206,5.3206,5.3206,5.3206,5.3206,5.3445,5.383,5.4399,5.4876,5.5684,5.6804,5.7042,5.7446,5.7997,5.7997,5.7997,5.7997,5.7997,5.7997,5.7997,5.7997,5.7997,5.7997,5.7997,5.7997,5.7997,5.7997,5.7997,5.7997,0.0,0.0,0.0,0.0,0.0,0.0,2.0002,2.1302,2.231,2.231,2.231,2.231,2.231,2.231,2.1674,2.0137,1.9985,0.0,0.0,0.0,0.0,0.0,0.0,0.0,0.0,0.0,1.7811,1.7811,1.7811,1.7811,1.7811,1.7811,1.7811,1.7805,0.0,0.0,0.0,0.0,0.0,0.0,0.0,0.0,0.0,0.0,0.0,0.0,0.0,0.0,0.0,0.0,0.0,0.0,0.0,2.8374,2.9489,3.1916,3.3183,3.3807,3.3807,3.3825,3.3825,3.3825,3.3238,3.2632,3.2632,3.2008,3.1403,3.1384,3.1384,3.1384,3.1384,3.2063,3.3146,3.4734,3.7092,3.9276,4.0891,4.2488,4.4085,4.57,4.5902,4.6526,4.8141,4.9829,5.1481,5.3096,5.3206,5.3206,5.3206,5.3206,5.3206,5.3206,5.3977,5.4399,5.4399,5.5978,5.6785,5.6822,5.7611,5.7997,5.7997,5.7997,5.7997,5.7997,5.7997,5.7997,5.7997,5.7997,5.7997,5.7997,5.7997,5.7997,5.7997,5.7997,5.7997,5.7997,0.0,0.0,0.0,0.0,0.0,0.0,0.0,2.1302,2.231,2.231,2.231,2.231,2.231,2.1854,2.1126,2.0086,2.0002,0.0,0.0,0.0,0.0,0.0,0.0,0.0,0.0,1.8555,1.8809,1.9292,1.9292,1.9292,1.9292,1.9292,1.9292,1.9275,1.8775,1.8555,0.0,0.0,0.0,0.0,0.0,0.0,1.7988,0.0,0.0,0.0,0.0,0.0,0.0,0.0,0.0,0.0,0.0,0.0,0.0,2.991,3.1494,3.2981,3.2981,3.3385,3.3678,3.3128,3.2797,3.232,3.1219,3.076,3.0411,2.9879,2.9769,2.9769,2.9769,3.087,3.2302,3.3917,3.6725,3.9258,4.0891,4.2488,4.4085,4.57,4.6874,4.8196,4.9848,5.049,5.1481,5.3096,5.3206,5.3206,5.3206,5.3206,5.3206,5.3206,5.3977,5.4656,5.5207,5.6271,5.7079,5.7611,5.7886,5.7997,5.7997,5.7997,5.7997,5.7997,5.7997,5.7997,5.7997,5.7997,5.7997,5.7997,5.7997,5.7997,5.7997,5.7997,5.7997,5.7997,0.0,0.0,0.0,0.0,0.0,0.0,0.0,2.0627,2.1421,2.1421,2.1421,2.1421,2.1421,2.1025,2.0433,1.9655,1.9562,0.0,0.0,0.0,0.0,0.0,0.0,0.0,1.8877,1.9164,1.9529,2.0002,2.0002,2.0002,2.0002,2.0002,2.0002,1.9985,1.9536,1.9164,0.0,0.0,0.0,0.0,0.0,0.0,1.827,0.0,0.0,0.0,0.0,0.0,0.0,0.0,0.0,0.0,0.0,0.0,0.0,0.0,2.9843,3.1384,3.199,3.2504,3.2761,3.2265,3.1935,3.1439,3.043,2.9971,2.9622,2.9085,2.8994,2.9085,2.9402,3.0522,3.2027,3.3954,3.6762,3.9258,4.0891,4.2488,4.4085,4.57,4.7315,4.8967,5.0637,5.0802,5.1481,5.3096,5.3206,5.3206,5.3206,5.3206,5.3353,5.3647,5.4436,5.5244,5.6033,5.6859,5.7501,5.7997,5.7997,5.7997,5.7997,5.7997,5.7997,5.7997,5.7997,5.7997,0.0,5.7997,5.7997,5.7997,5.7997,5.7997,5.7997,5.7997,5.7997,5.7997,0.0,0.0,0.0,0.0,0.0,0.0,0.0,1.9536,2.0002,2.0002,2.0002,2.0002,2.0002,1.9951,1.9655,1.8961,0.0,0.0,0.0,0.0,0.0,0.0,0.0,0.0,1.8978,1.9722,2.0103,2.0154,2.0154,2.0154,2.0154,2.0154,2.0154,2.0154,2.0103,1.963,0.0,0.0,0.0,0.0,1.7826,1.8128,0.0,0.0,0.0,0.0,0.0,0.0,0.0,0.0,0.0,0.0,0.0,0.0,0.0,0.0,0.0,0.0,0.0,3.1256,3.1384,3.1329,3.0742,3.0191,3.0136,2.9586,0.0,2.9085,2.9122,2.9402,3.0155,3.098,3.232,3.4623,3.7147,3.9331,4.0891,4.258,4.4213,4.5718,4.7388,4.904,5.0637,5.0857,5.1536,5.3096,5.3206,5.3206,5.3206,5.3261,5.3665,5.4454,5.5262,5.6033,5.6804,5.7593,5.7997,5.7997,5.7997,5.7997,5.7997,5.7997,5.7997,5.7997,5.7997,5.7997,5.7997,5.7997,5.7997,5.7997,5.7997,5.7997,5.7997,5.7997,5.7997,5.7997,0.0,0.0,0.0,0.0,0.0,0.0,0.0,0.0,0.0,0.0,2.0002,2.0002,2.0002,1.9502,1.9096,0.0,0.0,0.0,0.0,0.0,0.0,0.0,0.0,0.0,1.9714,2.0517,2.1194,2.1769,2.1769,2.1769,2.1769,2.1769,2.1769,2.1725,2.1177,2.0162,0.0,0.0,0.0,0.0,1.8257,1.8369,0.0,0.0,0.0,0.0,2.0982,2.1872,0.0,0.0,0.0,0.0,0.0,0.0,0.0,0.0,2.6521,2.7383,2.8374,0.0,3.1237,3.0632,3.0338,3.0044,0.0,2.9622,2.9934,2.9934,3.0411,3.0889,3.1072,3.2265,3.3623,3.4807,3.7606,3.9955,4.0965,4.3552,4.548,4.5865,4.7902,4.9682,5.071,5.1353,5.2123,5.3133,5.3206,5.3206,5.3206,5.3794,5.4491,5.528,5.6106,5.662,5.6804,5.7593,5.7997,5.7997,5.7997,5.7997,5.7997,5.7997,5.7997,5.7997,5.7997,5.7997,5.7997,5.7997,5.7997,5.7997,5.7997,5.7997,5.7997,5.7997,5.7997,5.7997,0.0,0.0,0.0,0.0,0.0,0.0,0.0,0.0,0.0,0.0,0.0,1.8988,0.0,0.0,0.0,0.0,0.0,0.0,0.0,0.0,0.0,0.0,0.0,1.9773,2.0534,2.1312,2.1904,2.231,2.231,2.231,2.231,2.231,2.231,2.2276,2.1515,2.0517,0.0,0.0,0.0,1.798,1.7927,0.0,0.0,0.0,0.0,0.0,2.0626,2.1498,0.0,2.2919,2.3626,2.4151,0.0,0.0,0.0,0.0,2.5695,2.6227,2.7034,2.8466,2.9732,2.9677,2.9659,2.9641,2.9586,2.9898,3.0301,3.0668,3.1091,3.1623,3.2357,3.3513,3.4871,3.645,3.8817,4.1001,4.2543,4.458,4.6049,4.6416,4.8306,4.9903,5.0729,5.1518,5.2325,5.3151,5.3206,5.3206,5.3206,5.3959,5.4766,5.5556,5.6381,5.6987,5.7354,5.7776,5.7997,5.7997,5.7997,5.7997,5.7997,5.7997,5.7997,5.7997,5.7997,5.7997,5.7997,5.7997,5.7997,5.7997,5.7997,5.7997,5.7997,5.7997,5.7997,5.8042,0.0,0.0,0.0,0.0,0.0,0.0,0.0,0.0,0.0,0.0,0.0,0.0,0.0,0.0,0.0,0.0,0.0,0.0,0.0,0.0,0.0,0.0,1.9664,2.0382,2.1187,2.1921,2.231,2.231,2.231,2.231,2.231,2.231,2.231,2.2276,2.1515,2.0754,1.9917,1.8532,1.8029,1.8094,1.7557,0.0,0.0,0.0,0.0,0.0,0.0,0.0,0.0,2.2287,2.3222,2.4113,2.3753,0.0,0.0,0.0,0.0,0.0,2.6355,2.7181,2.7952,2.865,2.8902,2.9195,3.0026,3.0301,3.065,3.1568,3.1861,3.243,3.4064,3.5037,3.6303,3.8524,4.023,4.2084,4.4397,4.5388,4.6195,4.7021,4.8691,5.005,5.0729,5.1646,5.2472,5.317,5.3206,5.3206,5.3206,5.4087,5.4895,5.5574,5.6492,5.7317,5.7997,5.7997,5.7997,5.7997,5.7997,5.7997,5.7997,5.7997,5.7997,5.7997,5.7997,5.7997,5.7997,5.7997,5.7997,5.7997,5.7997,5.7997,5.7997,5.7997,5.7997,5.807,0.0,0.0,0.0,0.0,0.0,0.0,0.0,0.0,0.0,0.0,0.0,0.0,0.0,0.0,0.0,0.0,0.0,0.0,0.0,0.0,0.0,1.9765,1.9934,2.0382,2.1187,2.1921,2.231,2.231,2.231,2.231,2.231,2.231,2.231,2.2276,2.1515,2.0754,1.9934,1.9096,1.8392,1.7905,1.8231,0.0,0.0,0.0,0.0,0.0,0.0,0.0,0.0,2.2003,2.3022,2.4094,2.3459,0.0,0.0,0.0,0.0,0.0,2.6209,2.7181,2.7824,2.7952,2.8503,2.9195,3.0026,3.0723,3.1641,3.3128,3.3972,3.4963,3.6615,3.7588,3.8487,3.9533,4.1075,4.2727,4.447,4.5388,4.6195,4.7021,4.9187,5.0655,5.0802,5.2142,5.3078,5.3206,5.3206,5.3206,5.3206,5.4601,5.5464,5.5592,5.7042,5.7886,5.7997,5.7997,5.7997,5.7997,5.7997,5.7997,5.7997,5.7997,5.7997,5.7997,5.7997,5.7997,5.7997,5.7997,5.7997,5.7997,5.7997,5.7997,5.7997,5.7997,5.7997,5.807,0.0,0.0,0.0,0.0,0.0,0.0,0.0,0.0,0.0,0.0,0.0,0.0,0.0,0.0,0.0,0.0,0.0,0.0,0.0,0.0,1.8447,1.9934,2.0002,2.0559,2.1769,2.2141,2.231,2.231,2.2699,2.2699,2.231,2.231,2.231,2.2293,2.1955,2.1126,1.9985,1.963,1.8843,1.7856,0.0,0.0,0.0,0.0,0.0,0.0,0.0,0.0,0.0,0.0,2.262,2.4074,2.3414,0.0,0.0,0.0,0.0,0.0,2.5621,2.6539,2.7365,2.8227,2.9384,3.0613,3.1861,3.243,3.3164,3.4798,3.5789,3.6725,3.7918,3.9166,4.0414,4.1644,4.2837,4.4011,4.5186,4.6049,4.7021,4.8306,4.9848,5.0967,5.1408,5.2509,5.3206,5.3206,5.3206,5.3206,5.3206,5.473,5.5592,5.5592,5.7152,5.7997,5.7997,5.7997,5.7997,5.7997,5.7997,5.7997,5.7997,5.7997,5.7997,5.7997,5.7997,5.7997,5.7997,5.7997,5.7997,5.7997,5.7997,5.7997,5.8042,5.8264,5.8694,5.9158,0.0,0.0,0.0,0.0,0.0,0.0,0.0,0.0,0.0,0.0,0.0,0.0,0.0,0.0,0.0,0.0,0.0,0.0,0.0,0.0,1.8447,1.9934,2.0002,2.0711,2.2276,2.231,2.231,2.231,2.2868,2.2852,2.231,2.231,2.231,2.231,2.231,2.1566,2.0281,2.0069,1.9241,1.8093,0.0,0.0,0.0,0.0,0.0,0.0,0.0,0.0,0.0,0.0,0.0,0.0,0.0,0.0,0.0,2.419,2.4318,2.4649,2.5456,2.6539,2.7787,2.9219,3.0356,3.1586,3.3385,3.3807,3.4376,3.6431,3.7349,3.8138,3.9331,4.0708,4.2139,4.3552,4.4305,4.5057,4.6049,4.6728,4.7737,4.9389,5.0306,5.1114,5.1903,5.2729,5.3206,5.3206,5.3206,5.3206,5.3206,5.473,5.5592,5.5592,5.7152,5.7997,5.7997,5.7997,5.7997,5.7997,5.7997,5.7997,5.7997,5.7997,5.7997,5.7997,5.7997,5.7997,5.7997,5.7997,5.7997,5.7997,5.7997,5.807,5.8213,5.8549,5.9284,6.0103,0.0,0.0,0.0,0.0,0.0,0.0,0.0,0.0,0.0,0.0,0.0,0.0,0.0,0.0,0.0,0.0,0.0,0.0,0.0,0.0,1.8447,1.9934,2.0002,2.0711,2.2276,2.231,2.231,2.231,2.2361,2.2361,2.231,2.231,2.231,2.231,2.231,2.1854,2.1042,2.0331,1.9529,1.8782,1.8379,0.0,0.0,0.0,0.0,0.0,0.0,0.0,0.0,0.0,0.0,0.0,0.0,0.0,2.419,2.419,2.4722,2.5495,2.63,2.8191,3.0155,3.0999,3.0742,3.0907,3.3256,3.3807,3.4706,3.7881,3.8579,3.9331,4.1625,4.2745,4.3608,4.447,4.4672,4.5259,4.6819,4.7076,4.7737,4.9389,5.0306,5.1114,5.1903,5.2729,5.3206,5.3206,5.3206,5.3206,5.3206,5.473,5.5592,5.5592,5.7152,5.7997,5.7997,5.7997,5.7997,5.7997,5.7997,5.7997,5.7997,5.7997,5.7997,5.7997,5.7997,5.7997,5.7997,5.7997,5.7997,5.7997,5.7997,5.8282,5.8654,5.8694,5.9284,6.0103,0.0,0.0,0.0,0.0,0.0,0.0,0.0,0.0,0.0,0.0,0.0,0.0,0.0,0.0,0.0,0.0,0.0,0.0,0.0,1.8234,1.8944,1.9951,2.0483,2.1228,2.2293,2.231,2.231,2.231,2.231,2.2547,2.297,2.2513,2.231,2.231,2.231,2.1887,2.1153,2.0348,1.9562,1.885,1.8392,1.827,0.0,0.0,0.0,0.0,0.0,0.0,0.0,0.0,2.1416,2.275,2.2758,2.3436,2.419,2.419,2.4759,2.5697,2.6979,2.8374,3.0026,3.232,3.3036,3.3587,3.5018,3.6138,3.7349,3.9093,4.0249,4.1368,4.2782,4.3699,4.436,4.4654,4.5553,4.6416,4.6984,4.8012,4.9077,5.0196,5.1059,5.1867,5.2674,5.3023,5.3206,5.3206,5.3206,5.3206,5.3206,5.473,5.5592,5.5592,5.7152,5.7997,5.7997,5.7997,5.7997,5.7997,5.7997,5.7997,5.7997,5.7997,5.7997,5.7997,5.7997,5.7997,5.7997,5.7997,5.7997,5.8042,5.8307,5.8735,5.9195,5.9458,5.9996,6.0553,0.0,0.0,0.0,0.0,0.0,0.0,0.0,0.0,0.0,0.0,0.0,0.0,0.0,0.0,0.0,0.0,0.0,0.0,1.7811,1.8268,1.8995,1.9951,2.0534,2.1295,2.2293,2.231,2.231,2.231,2.231,2.2564,2.3038,2.2547,2.231,2.231,2.231,2.2023,2.1465,2.045,1.9697,1.9188,1.8386,1.8166,0.0,0.0,0.0,0.0,0.0,0.0,0.0,0.0,2.1039,2.2369,2.2486,2.328,2.4245,2.4502,2.5144,2.6117,2.7732,2.9145,3.0742,3.3183,3.4798,3.6009,3.6853,3.8102,3.9386,4.0432,4.1937,4.3149,4.3442,4.436,4.5094,4.5094,4.6232,4.7297,4.781,4.8875,4.9976,5.1041,5.1665,5.2307,5.3133,5.3206,5.3206,5.3206,5.3206,5.3206,5.3206,5.473,5.5592,5.5592,5.7152,5.7997,5.7997,5.7997,5.7997,5.7997,5.7997,5.7997,5.7997,5.7997,5.7997,5.7997,5.7997,5.7997,5.7997,5.7997,5.8115,5.8238,5.8549,5.9084,5.9677,5.9996,6.0411,6.08,0.0,0.0,0.0,0.0,0.0,0.0,0.0,0.0,1.7811,1.7811,1.7811,0.0,0.0,0.0,0.0,0.0,0.0,0.0,1.7811,1.7811,1.8488,1.9934,2.0002,2.0728,2.2276,2.231,2.231,2.231,2.231,2.231,2.231,2.231,2.231,2.231,2.231,2.231,2.2209,2.0643,2.0002,1.9866,1.842,1.8125,1.8566,0.0,0.0,0.0,0.0,0.0,0.0,0.0,2.0641,2.1879,2.2345,2.328,2.4337,2.5164,2.5952,2.6961,2.8553,3.0779,3.2797,3.3623,3.5679,3.7716,3.8542,3.9331,4.0359,4.1974,4.3589,4.4452,4.3644,4.4819,4.5902,4.5902,4.6599,4.77,4.9352,4.9591,5.0196,5.1793,5.1995,5.2325,5.3133,5.3206,5.3206,5.3206,5.3206,5.3206,5.3206,5.473,5.5592,5.5592,5.7152,5.7997,5.7997,5.7997,5.7997,5.7997,5.7997,5.7997,5.7997,5.7997,5.7997,5.7997,5.7997,5.7997,5.7997,5.7997,5.8282,5.8694,5.8694,5.9248,6.0084,6.0084,6.0411,6.08,0.0,0.0,0.0,0.0,0.0,0.0,0.0,0.0,1.7811,1.7811,1.7811,0.0,0.0,0.0,0.0,0.0,0.0,0.0,1.7811,1.8285,1.9012,1.9951,2.0551,2.1295,2.2293,2.231,2.231,2.231,2.231,2.231,2.231,2.231,2.231,2.231,2.231,2.231,2.2209,2.0643,2.0002,1.9891,1.8591,1.8061,1.8078,0.0,0.0,0.0,0.0,0.0,0.0,0.0,0.0,0.0,2.1735,2.263,2.3511,2.4318,2.5529,2.6961,2.8553,3.0356,3.2375,3.4908,3.6964,3.8707,4.0084,4.0579,4.1203,4.28,4.3516,4.3956,4.4287,4.5204,4.6085,4.6654,4.7425,4.8324,4.9426,5.0086,5.082,5.1867,5.2509,5.2949,5.3188,5.3206,5.3206,5.3206,5.3206,5.3206,5.3206,5.473,5.5592,5.5592,5.7152,5.7997,5.7997,5.7997,5.7997,5.7997,5.7997,5.7997,5.7997,5.7997,5.7997,5.7997,5.7997,5.7997,5.7997,5.7997,5.807,5.8282,5.8933,5.9354,5.9677,6.0338,6.069,6.08,0.0,0.0,0.0,0.0,0.0,0.0,1.7811,1.7811,1.7811,1.7811,1.7811,1.7693,0.0,0.0,0.0,1.7354,1.7354,1.749,1.7794,1.8217,1.8792,1.9536,2.0027,2.0771,2.1837,2.2158,2.231,2.231,2.231,2.231,2.231,2.231,2.231,2.231,2.231,2.231,2.2209,2.0643,2.0002,1.9891,1.8569,1.8014,1.7992,0.0,0.0,0.0,0.0,0.0,0.0,0.0,0.0,0.0,2.1494,2.2354,2.3235,2.4337,2.5585,2.7034,2.8962,3.065,3.2596,3.555,3.7514,3.9221,4.1148,4.1827,4.2323,4.3296,4.3993,4.4507,4.4672,4.5883,4.6911,4.7076,4.8067,4.9114,4.9958,5.0765,5.1573,5.238,5.2913,5.3206,5.3206,5.3206,5.3206,5.3206,5.3206,5.3206,5.3206,5.473,5.5592,5.5592,5.7152,5.7997,5.7997,5.7997,5.7997,5.7997,5.7997,5.7997,5.7997,5.7997,5.7997,5.7997,5.7997,5.7997,5.7997,5.8213,5.8375,5.8632,5.9389,5.9773,6.0025,6.0578,6.08,6.08,0.0,0.0,0.0,0.0,0.0,0.0,1.7608,1.7608,1.7608,1.7608,1.7608,1.7337,0.0,0.0,0.0,1.6597,1.6665,1.6965,1.7659,1.7755,1.8132,1.886,1.8961,1.9655,2.1042,2.182,2.2209,2.2209,2.2276,2.231,2.231,2.231,2.231,2.231,2.231,2.231,2.2181,2.0728,2.0069,1.9866,1.8494,1.8039,1.8166,1.8208,0.0,0.0,0.0,0.0,0.0,0.0,0.0,0.0,2.1492,2.2299,2.3217,2.4814,2.5915,2.7108,2.9457,3.1274,3.3109,3.5661,3.7624,3.9533,4.1882,4.2983,4.3516,4.3589,4.4764,4.5608,4.5039,4.6728,4.7994,4.7333,4.8545,4.9866,5.0692,5.1481,5.2289,5.3115,5.3206,5.3206,5.3206,5.3206,5.3206,5.3206,5.3206,5.3206,5.3206,5.4656,5.55,5.5592,5.7079,5.7923,5.7997,5.7997,5.7997,5.7997,5.7997,5.7997,5.7997,5.7997,5.7997,5.7997,5.7997,5.7997,5.8024,5.8526,5.8933,5.9408,5.9885,6.0365,6.0734,6.0781,6.08,6.08,0.0,0.0,0.0,0.0,0.0,0.0,1.6069,1.6069,1.6069,1.6069,1.6069,1.6001,1.5849,1.5832,0.0,1.5832,1.6377,1.6766,1.6936,1.749,1.8132,1.886,1.9452,1.9917,2.0264,2.1025,2.1431,2.1431,2.2023,2.231,2.231,2.231,2.231,2.231,2.231,2.231,2.2243,2.1329,2.0585,1.9942,1.9247,1.855,1.7927,1.8351,1.841,0.0,0.0,0.0,0.0,0.0,0.0,0.0,2.1343,2.1931,2.2373,2.3988,2.5474,2.6998,2.8755,3.043,3.2412,3.5514,3.8469,4.1056,4.2837,4.3369,4.3663,4.4305,4.4727,4.5296,4.6397,4.7021,4.7517,4.7976,4.8912,4.9866,5.0692,5.1481,5.2289,5.3115,5.3206,5.3206,5.3206,5.3206,5.3206,5.3206,5.3206,5.3206,5.3206,5.4124,5.495,5.5574,5.6547,5.7373,5.7997,5.7997,5.7997,5.7997,5.7997,5.7997,5.7997,5.7997,5.7997,5.7997,5.7997,5.7997,5.8024,5.8526,5.8775,5.8933,5.9773,6.0161,6.0311,6.0647,6.08,6.08,0.0,0.0,0.0,0.0,0.0,0.0,0.0,0.0,1.5595,1.5595,1.5595,1.546,1.5122,1.5071,0.0,0.0,1.5426,1.5933,1.6648,1.705,1.7591,1.8335,1.908,1.9486,1.9486,2.0602,2.1204,2.1204,2.1938,2.231,2.231,2.231,2.231,2.231,2.231,2.231,2.226,2.1498,2.0957,2.05,1.9894,1.919,1.855,1.8829,1.8705,1.843,1.8697,0.0,0.0,0.0,0.0,0.0,0.0,0.0,2.2133,2.3731,2.5346,2.6869,2.8099,2.9879,3.2265,3.5954,3.9001,4.1423,4.2653,4.3222,4.3828,4.5039,4.5278,4.5663,4.6893,4.7425,4.7957,4.8783,4.9627,5.0453,5.1261,5.2068,5.2729,5.317,5.3206,5.3206,5.3206,5.3206,5.3206,5.3206,5.3206,5.3206,5.3206,5.3959,5.4583,5.5005,5.5812,5.6602,5.7428,5.7428,5.7611,5.7997,5.7997,5.7997,5.7997,5.7997,5.7997,5.7997,5.7997,5.7997,5.807,5.8735,5.9047,5.9121,6.0055,6.0456,6.0463,6.0714,6.08,6.08,0.0,0.0,0.0,0.0,0.0,0.0,0.0,0.0,0.0,1.5223,1.5223,1.4986,1.4377,1.431,1.431,0.0,0.0,0.0,1.6282,1.6486,1.6825,1.7449,1.8155,1.8521,1.8521,2.001,2.0788,2.0788,2.1684,2.2124,2.2124,2.2243,2.231,2.231,2.231,2.231,2.226,2.1651,2.1322,2.1153,2.0518,1.9959,1.9525,1.9617,1.9421,1.9126,1.9398,1.9468,1.9484,1.9502,0.0,0.0,0.0,0.0,2.2133,2.3731,2.5236,2.6594,2.753,2.9861,3.2889,3.656,3.9313,4.1313,4.2121,4.291,4.392,4.5388,4.5792,4.6195,4.715,4.7865,4.86,4.9444,5.027,5.1077,5.1885,5.2692,5.3206,5.3206,5.3206,5.3206,5.3206,5.3206,5.3206,5.3206,5.3206,5.3206,5.3206,5.383,5.4252,5.4399,5.5042,5.5776,5.6602,5.6602,5.7005,5.7795,5.7923,5.7997,5.7997,5.8051,5.807,5.7997,5.8168,5.8213,5.8213,5.9121,5.9526,5.9611,6.0482,6.08,6.08,6.08,6.08,6.08,0.0,0.0,0.0,0.0,0.0,0.0,0.0,0.0,0.0,0.0,1.3701,1.3667,1.3566,1.3549,1.3549,1.3549,1.4281,1.4848,1.5037,0.0,0.0,1.6157,1.668,1.7004,1.7004,1.8437,1.9198,1.9198,2.0636,2.1356,2.1373,2.2006,2.231,2.231,2.231,2.231,2.231,2.2192,2.1786,2.1213,2.1326,2.0956,2.0413,2.0912,2.1093,2.106,2.1333,2.1421,2.1311,2.0594,2.0338,0.0,0.0,0.0,2.2133,2.3731,2.485,2.5899,2.7383,3.1091,3.5018,3.6982,3.9313,4.1313,4.2121,4.291,4.3754,4.4672,4.5406,4.6361,4.7865,4.8233,4.86,4.9444,5.027,5.1077,5.1885,5.2692,5.3206,5.3206,5.3206,5.3206,5.3206,5.3206,5.3206,5.3206,5.3206,5.3206,5.3206,5.3316,5.3683,5.4381,5.4491,5.495,5.5739,5.5757,5.6161,5.6969,5.7666,5.7997,5.7997,5.8418,5.8375,5.8024,5.8874,5.8971,5.8654,5.9611,5.9996,6.0055,6.0578,6.08,6.08,6.08,6.08,6.08,0.0,0.0,0.0,0.0,0.0,0.0,0.0,0.0,0.0,0.0,0.0,1.3566,1.3971,1.365,1.3429,1.3509,1.3898,1.4342,1.4875,1.5627,1.6081,1.6081,1.6193,1.6456,1.6867,1.7793,1.8488,1.8894,1.9993,2.0534,2.0534,2.1011,2.1615,2.231,2.2463,2.2436,2.231,2.2463,2.2348,2.2065,2.2359,2.2141,2.1647,2.1916,2.186,2.1643,2.1768,2.1803,2.1748,2.1363,2.1235,2.1363,2.2208,0.0,0.0,0.0,2.4759,2.5954,2.8466,3.1347,3.4174,3.6285,3.8634,4.0634,4.1442,4.2598,4.3718,4.4544,4.4984,4.5718,4.7333,4.8012,4.86,4.9444,5.027,5.1077,5.1885,5.2692,5.3206,5.3206,5.3206,5.3206,5.3206,5.3206,5.3206,5.3206,5.3206,5.3206,5.3206,5.3206,5.3371,5.372,5.3739,5.4106,5.4913,5.4932,5.5556,5.6804,5.7171,5.7556,5.8042,5.8484,5.8442,5.807,5.8971,5.9121,5.8756,5.9709,6.0103,6.0132,6.0622,6.08,6.08,6.08,6.08,6.08,0.0,0.0,0.0,0.0,0.0,0.0,0.0,0.0,0.0,0.0,0.0,1.4157,1.4733,0.0,0.0,0.0,1.4222,1.4535,1.5134,1.55,1.5683,1.5683,1.5679,1.5922,1.6438,1.7202,1.7844,1.8335,1.9283,1.9764,1.9821,2.0304,2.1011,2.1943,2.2246,2.2297,2.2143,2.2539,2.2746,2.2873,2.3189,2.3119,2.2806,2.2906,2.2719,2.2409,2.2409,2.2409,2.239,2.2171,2.2097,2.2208,2.2813,2.2997,0.0,0.0,0.0,2.6027,2.8833,3.0907,3.2889,3.5349,3.779,3.9863,4.0873,4.2194,4.3424,4.4232,4.4562,4.5076,4.6287,4.7315,4.8361,4.9426,5.0086,5.0839,5.1848,5.2527,5.2968,5.3188,5.3206,5.3206,5.3206,5.3206,5.3206,5.3206,5.3206,5.3206,5.3206,5.3206,5.3206,5.3206,5.3206,5.35,5.4087,5.4308,5.5005,5.6198,5.6496,5.7099,5.7918,5.8356,5.8468,5.8418,5.9212,5.9319,5.8933,5.9885,6.0264,6.0311,6.0647,6.08,6.08,6.08,6.08,6.08,0.0,0.0,0.0,0.0,0.0,0.0,0.0,0.0,0.0,0.0,0.0,1.5494,1.5544,1.5511,1.5477,1.5496,1.5888,1.6018,1.5678,1.4821,1.4301,1.4301,1.4787,0.0,1.4916,1.6315,1.6973,1.6817,1.8251,1.9086,1.9359,2.0385,2.088,2.0899,2.1357,2.1589,2.169,2.24,2.288,2.3189,2.3544,2.3674,2.3681,2.3981,2.4116,2.408,2.408,2.408,2.3951,2.3199,2.2942,2.2942,2.2997,2.2997,2.3162,0.0,0.0,0.0,2.7457,2.9659,3.2045,3.444,3.6945,3.9184,4.0744,4.1754,4.2598,4.3387,4.4176,4.4745,4.4819,4.6122,4.77,4.9315,4.9627,5.0196,5.1775,5.2032,5.2344,5.3115,5.3206,5.3206,5.3206,5.3206,5.3206,5.3206,5.3206,5.3206,5.3206,5.3206,5.3206,5.3206,5.3206,5.3225,5.328,5.4014,5.4436,5.4528,5.5677,5.6679,5.7558,5.7938,5.8565,5.9354,5.9855,5.9823,5.9424,6.0384,6.0757,6.0757,6.08,6.08,6.08,6.08,6.08,6.08,0.0,0.0,0.0,0.0,0.0,0.0,0.0,0.0,0.0,0.0,0.0,0.0,0.0,1.5866,1.5654,1.5771,1.6063,1.6013,1.547,1.5103,1.4738,1.4405,1.4333,1.455,1.5109,1.5435,1.6095,1.716,1.7681,1.8243,1.8854,1.9428,1.9572,1.9467,2.132,2.2033,2.1908,2.2916,2.3414,2.3544,2.3896,2.4016,2.4091,2.4739,2.498,2.5034,2.5566,2.575,2.5621,2.4814,2.4538,2.4447,2.3933,2.3768,2.3823,2.4116,2.4759,2.5752,2.7346,2.8815,3.0558,3.3513,3.5716,3.7588,3.9203,4.0983,4.2378,4.2671,4.3369,4.4085,4.4617,4.603,4.7315,4.7902,4.8857,4.9738,5.0362,5.0894,5.1536,5.2325,5.2435,5.2637,5.317,5.3206,5.3206,5.3206,5.3206,5.3206,5.3206,5.3206,5.3206,5.3206,5.3206,5.3206,5.3206,5.35,5.3904,5.4399,5.4852,5.5918,5.7484,5.7659,5.8333,5.9443,5.9885,5.9977,5.9885,6.0553,6.08,6.08,6.08,6.08,6.08,6.08,6.08,6.08,0.0,0.0,0.0,0.0,0.0,0.0,0.0,0.0,1.6509,1.6999,0.0,0.0,0.0,0.0,1.6603,1.6905,1.6799,1.6467,1.5886,1.5574,1.5137,1.4524,1.4227,1.4356,1.4918,1.4692,1.5359,1.7029,1.7011,1.7577,1.8734,1.8914,1.8931,1.895,2.124,2.2082,2.1868,2.3156,2.3756,2.3915,2.4406,2.4593,2.4722,2.5807,2.6211,2.6284,2.6814,2.6998,2.6888,2.6062,2.5786,2.5658,2.485,2.441,2.419,2.419,2.4575,2.5293,2.6612,2.7787,2.931,3.2265,3.4229,3.6028,3.8212,3.9937,4.1332,4.2139,4.2727,4.3332,4.4158,4.5406,4.6489,4.6984,4.8012,4.8912,4.9499,5.005,5.0692,5.1499,5.1591,5.1903,5.2729,5.2803,5.2913,5.3188,5.3206,5.3206,5.3206,5.3206,5.3206,5.3206,5.3206,5.3206,5.3206,5.3206,5.3482,5.3995,5.411,5.5145,5.6912,5.7192,5.8062,5.9467,5.9911,6.0103,6.0132,6.0622,6.08,6.08,6.08,6.08,6.08,6.08,6.08,6.08,0.0,0.0,0.0,0.0,0.0,0.0,0.0,0.0,1.7845,1.7856,0.0,0.0,0.0,0.0,0.0,1.8967,1.8246,1.7514,1.6954,1.6193,1.5398,1.4561,1.4524,1.4435,1.4201,1.4136,1.4824,1.6284,1.6217,1.715,1.8965,1.8965,1.9082,1.9378,2.105,2.1661,2.1494,2.3066,2.3915,2.43,2.509,2.5421,2.5623,2.7218,2.7824,2.7842,2.7879,2.7897,2.7769,2.6979,2.6704,2.6539,2.5695,2.4869,2.4245,2.4245,2.4208,2.4373,0.0,0.0,0.0,3.0723,3.2559,3.4614,3.7826,3.8634,3.9368,4.1717,4.2249,4.2543,4.3314,4.4121,4.5186,4.6783,4.7076,4.7645,4.9279,4.9517,4.9811,5.0674,5.0765,5.1077,5.1885,5.1958,5.2307,5.3115,5.317,5.3188,5.3206,5.3206,5.3206,5.3206,5.3206,5.3206,5.3206,5.3206,5.3206,5.3206,5.3604,5.446,5.5724,5.654,5.7862,5.9508,5.9928,6.0132,6.0161,6.0622,6.08,6.08,6.08,6.08,6.08,6.08,6.08,6.08,0.0,0.0,0.0,0.0,0.0,1.7743,1.8488,1.8589,1.8792,0.0,0.0,0.0,1.9498,1.9717,1.9695,1.9248,1.9224,1.8717,1.755,1.7276,1.6609,1.5417,1.5231,1.4914,1.4429,1.4257,1.4733,1.5878,1.5864,1.6711,1.8356,1.8356,1.8679,1.9378,2.105,2.1768,2.1789,2.3398,2.4443,2.509,2.5311,2.575,2.6447,2.8062,2.8686,2.8833,2.9989,3.0393,3.0265,2.9475,2.8833,2.8077,2.6704,2.5713,2.5072,2.5072,2.4649,2.4373,2.5182,0.0,0.0,0.0,0.0,0.0,3.4816,3.7,3.8891,3.957,4.1075,4.2378,4.2598,4.3277,4.4176,4.5204,4.5865,4.6599,4.7645,4.7792,4.8324,4.9756,4.9921,5.0233,5.1041,5.1132,5.1463,5.227,5.2325,5.2582,5.3188,5.3206,5.3206,5.3206,5.3206,5.3206,5.3206,5.3206,5.3206,5.3206,5.3604,5.446,5.5724,5.6888,5.8173,5.955,6.0282,6.0622,6.0622,6.0757,6.08,6.08,6.08,6.08,6.08,6.08,6.08,6.08,0.0,0.0,1.7927,1.7833,1.8065,1.8403,1.8826,1.9164,1.9519,0.0,0.0,0.0,2.0159,2.0437,2.0495,2.0167,2.0296,1.9829,1.8465,1.8372,1.7709,1.6248,1.5767,1.5366,1.5013,1.4222,1.4441,1.5692,1.5362,1.6188,1.8096,1.8096,1.8537,1.9378,2.105,2.1803,2.1931,2.3878,2.498,2.5439,2.5768,2.6576,2.7787,2.9402,3.021,3.0687,3.1935,3.2394,3.2265,3.1476,3.0448,2.9292,2.8007,2.7053,2.6284,2.5605,2.5072,2.4722,2.485,2.5731,2.6924,2.8191,0.0,0.0,3.3458,3.555,3.7459,3.8505,4.0084,4.1405,4.1754,4.2451,4.3149,4.3626,4.4378,4.5296,4.6452,4.6617,4.6966,4.7939,4.8343,4.8875,4.9682,5.0086,5.0618,5.1444,5.1499,5.1848,5.2656,5.2711,5.2858,5.3206,5.3206,5.3206,5.3206,5.3206,5.3206,5.3206,5.3604,5.4292,5.5252,5.6892,5.8125,5.9069,6.0281,6.08,6.08,6.08,6.08,6.08,6.08,6.08,6.08,6.08,6.08,6.08,0.0,0.0,1.8082,1.7856,1.8403,1.8927,1.9012,1.9655,2.0154,0.0,2.0289,2.0398,2.0673,2.0978,2.1224,2.1414,2.1473,2.0934,1.9675,1.9491,1.8757,1.722,1.6408,1.5876,1.5692,1.4309,1.4217,1.5564,1.4848,1.5643,1.7839,1.7931,1.8408,1.9234,2.1013,2.1803,2.1968,2.4393,2.5513,2.5752,2.6539,2.7787,2.9305,3.1017,3.21,3.2852,3.3752,3.4082,3.3954,3.3146,3.1935,3.0595,2.9672,2.8851,2.7879,2.6264,2.5752,2.5495,2.4685,2.5585,2.6906,2.7622,2.8998,0.0,3.2908,3.4174,3.5495,3.7698,3.8946,3.9882,4.0708,4.1497,4.2066,4.2158,4.2837,4.392,4.5535,4.5773,4.5792,4.5883,4.6544,4.726,4.7976,4.882,4.9646,5.0472,5.0692,5.1114,5.183,5.194,5.2325,5.3059,5.317,5.3206,5.3206,5.3206,5.3206,5.3206,5.3663,5.4083,5.4591,5.6616,5.7806,5.8396,5.9973,6.0704,6.08,6.08,6.08,6.08,6.08,6.08,6.08,6.08,6.08,6.08,1.7927,1.7883,1.7878,1.7811,1.8403,1.9096,1.9681,2.0467,2.1177,2.1786,2.2029,2.2287,2.2629,2.2946,2.2908,2.2316,2.2516,2.2282,2.1363,2.0666,1.984,1.8867,1.806,1.7032,1.5729,1.538,1.5068,1.4738,1.4579,1.5068,1.6169,1.6817,1.755,1.8445,2.0758,2.1803,2.1968,2.4393,2.6156,2.7402,2.8209,2.9127,3.021,3.2467,3.344,3.3752,3.5275,3.5807,3.5679,3.4835,3.4312,3.3798,3.2349,3.1347,3.0375,2.8778,2.7842,2.7145,2.6355,2.6833,2.7603,2.775,2.8998,0.0,3.0797,3.254,3.4174,3.4669,3.6468,3.8193,3.9019,3.9827,4.0579,4.124,4.2011,4.3094,4.4709,4.4947,4.5168,4.581,4.6049,4.6195,4.6342,4.7113,4.7921,4.8728,5.005,5.0875,5.1041,5.1646,5.2068,5.2234,5.2858,5.3206,5.3206,5.3206,5.3206,5.3206,5.3979,5.4387,5.4572,5.6333,5.7562,5.8357,5.9338,6.0146,6.08,6.08,6.08,6.08,6.08,6.08,6.08,6.08,6.08,6.08,1.8229,1.8187,1.8329,1.8714,1.9408,2.0154,2.0934,2.1697,2.2339,2.2695,2.3214,2.3766,2.4329,2.4551,2.4405,2.3743,2.3855,2.3504,2.2483,2.2006,2.14,2.059,1.9363,1.8317,1.7509,1.6316,1.549,1.5105,1.4701,1.5111,1.6316,1.6707,1.7752,1.9381,2.1051,2.2006,2.2556,2.4961,2.6686,2.786,2.8686,3.021,3.2137,3.333,3.4559,3.5807,3.7055,3.7753,3.8028,3.7588,3.7184,3.6578,3.4963,3.4174,3.3348,3.0907,2.9641,2.8723,2.753,2.7493,2.7787,2.7787,2.8705,0.0,0.0,3.1439,3.2724,3.3128,3.4835,3.6376,3.6798,3.7863,3.8836,3.9239,4.0322,4.1387,4.2194,4.3351,4.425,4.4654,4.5057,4.5296,4.5296,4.603,4.6856,4.7645,4.8489,4.9334,5.016,5.0563,5.1151,5.1958,5.238,5.2803,5.3206,5.3206,5.3206,5.3206,5.4086,5.4503,5.4554,5.6231,5.7473,5.8338,5.9146,5.9992,6.08,6.08,6.08,6.08,6.08,6.08,6.08,6.08,6.08,6.08,1.8658,1.8728,1.9048,1.9688,2.054,2.1352,2.2012,2.2734,2.3283,2.3495,2.423,2.5009,2.5707,2.5804,2.5644,2.5258,2.5226,2.4787,2.3767,2.34,2.2942,2.2299,2.0682,1.9635,1.9323,1.7381,1.6243,1.5931,1.5288,1.5625,1.6908,1.7055,1.8247,2.0301,2.1327,2.2318,2.34,2.5823,2.7383,2.8356,2.9494,3.1586,3.4082,3.4559,3.6083,3.8065,3.8872,3.9588,4.012,4.012,3.9698,3.8909,3.7441,3.689,3.6174,3.3201,3.1641,3.0577,2.9108,2.8613,2.8448,2.8301,2.876,2.9365,0.0,0.0,0.0,3.2008,3.3285,3.433,3.4495,3.5771,3.6725,3.656,3.8175,3.9313,3.9001,4.1038,4.269,4.3002,4.3754,4.425,4.425,4.5112,4.6012,4.6819,4.7021,4.77,4.904,4.9407,5.0178,5.1481,5.183,5.2307,5.2968,5.3133,5.323,5.3336,5.4102,5.4535,5.4659,5.6083,5.7319,5.8338,5.8992,5.9858,6.08,6.08,6.08,6.08,6.08,6.08,6.08,6.08,6.08,6.08,1.8821,1.9172,1.9688,1.9777,2.1001,2.1994,2.21,2.2734,2.3572,2.4559,2.542,2.6059,2.6428,2.649,2.6454,2.6402,2.6423,2.635,2.6209,2.4869,2.4025,2.3933,2.2373,2.0829,1.9326,1.9014,1.8188,1.6762,1.667,1.6725,1.6927,1.7624,1.85,1.951,2.1105,2.263,2.4226,2.6631,2.8539,3.0118,3.2357,3.3899,3.5082,3.7312,3.8762,3.9717,4.0543,4.091,4.0965,4.0965,4.091,4.0671,3.9772,3.9001,3.8083,3.6266,3.4633,3.3201,3.2302,3.1531,3.0815,3.0118,3.0008,2.9898,2.9292,0.0,3.0356,3.0448,0.0,3.2027,3.2742,0.0,0.0,3.3275,3.5752,3.7239,3.5789,3.7698,3.9772,4.1203,4.2084,4.258,4.258,4.3956,4.5168,4.5975,4.6709,4.7205,4.7388,4.8783,4.9664,4.9848,5.1242,5.2032,5.2142,5.2839,5.34,5.3758,5.4255,5.4689,5.5034,5.5585,5.6742,5.8319,5.8396,5.9338,6.08,6.08,6.08,6.08,6.08,6.08,6.08,6.08,6.08,6.08,2.0571,2.0318,2.0499,2.1496,2.2184,2.2781,2.3254,2.3976,2.5143,2.7018,2.757,2.8182,2.9274,2.9384,2.92,2.8741,2.8264,2.7805,2.7328,2.6227,2.5383,2.4905,2.3786,2.263,2.1473,2.0042,1.8959,1.8298,1.7348,1.7147,1.7605,1.8427,1.9491,2.0829,2.2446,2.3823,2.5034,2.7475,2.9439,3.1109,3.3532,3.5844,3.7918,3.8487,3.9772,4.1405,4.2194,4.2488,4.2488,4.2488,4.2488,4.2341,4.1552,4.1056,4.0469,3.8854,3.7221,3.5771,3.4963,3.3788,3.2596,3.1788,3.1604,3.1384,3.0577,3.065,3.076,3.0301,0.0,0.0,0.0,0.0,0.0,0.0,3.344,3.4412,3.3715,3.4926,3.6817,3.9405,4.0414,4.1277,4.2213,4.3332,4.4342,4.5149,4.5535,4.6122,4.7076,4.7774,4.86,4.9554,5.0251,5.1041,5.1977,5.2576,5.3161,5.3814,5.4497,5.4952,5.5115,5.5512,5.6646,5.83,5.83,5.9242,6.08,6.08,6.08,6.08,6.08,6.08,6.08,6.08,6.08,6.08,2.2409,2.1767,2.1566,2.2777,2.318,2.3602,2.441,2.5585,2.7016,2.8755,2.9562,3.043,3.1604,3.1733,3.1494,3.0907,3.0118,2.942,2.8815,2.8026,2.7236,2.641,2.5401,2.4373,2.3364,2.1345,2.0207,2.0003,1.8831,1.8537,1.9124,1.9711,2.0739,2.2189,2.3584,2.4887,2.6211,2.8411,3.0393,3.2265,3.4706,3.7643,4.0506,4.0157,4.1093,4.2708,4.3277,4.3497,4.3497,4.3497,4.3497,4.3387,4.28,4.2488,4.2066,4.0891,3.9405,3.801,3.7441,3.6083,3.4614,3.3825,3.344,3.2999,3.1953,3.1733,3.1439,3.0411,3.065,0.0,0.0,0.0,3.0852,3.0191,0.0,3.1715,3.1054,3.1843,3.3788,3.7276,3.8799,4.012,4.1515,4.2561,4.3406,4.4011,4.4452,4.5223,4.6397,4.6874,4.7664,4.8875,4.9352,5.0251,5.1665,5.2289,5.3067,5.4013,5.4741,5.516,5.5262,5.5577,5.6646,5.83,5.83,5.9242,6.08,6.08,6.08,6.08,6.08,6.08,6.08,6.08,6.08,6.08,2.3969,2.3474,2.2942,2.2978,2.3639,2.4428,2.5256,2.7365,2.8902,2.8975,3.1035,3.2504,3.2577,3.2577,3.2559,3.254,3.1788,3.1311,3.1274,3.0522,2.9732,2.892,2.7383,2.5786,2.419,2.3327,2.2501,2.1729,2.1674,2.1674,2.1692,2.1711,2.2152,2.3015,2.3823,2.5511,2.7824,2.9475,3.1531,3.3935,3.6413,3.935,4.2304,4.3057,4.3387,4.3442,4.3479,4.3497,4.3497,4.3497,4.3497,4.3497,4.3461,4.2928,4.2286,4.2249,4.1075,3.9808,3.979,3.8597,3.7213,3.6376,3.555,3.4495,3.2926,3.2577,3.2118,3.054,3.0228,2.9989,2.92,2.9714,2.9475,2.7145,2.8741,0.0,0.0,2.8172,3.0626,3.4623,3.7276,3.9056,3.99,4.1405,4.2359,4.2378,4.3828,4.4727,4.4782,4.6269,4.7094,4.7205,4.8746,4.9994,5.0839,5.2011,5.3225,5.4503,5.4905,5.5306,5.5684,5.5684,5.6646,5.83,5.83,5.9242,6.08,6.08,6.08,6.08,6.08,6.08,6.08,6.08,6.08,6.08,2.4153,2.3988,2.3786,2.3786,2.4025,2.4832,2.6686,2.8136,2.9745,3.1898,3.2889,3.3825,3.4926,3.5055,3.5055,3.5055,3.4284,3.3788,3.3788,3.3036,3.199,3.065,2.9567,2.7989,2.5841,2.4483,2.34,2.2593,2.2061,2.1803,2.1821,2.2336,2.274,2.307,2.4961,2.6539,2.797,3.065,3.322,3.5752,3.9258,4.1644,4.3112,4.3387,4.3828,4.4287,4.4287,4.4635,4.5094,4.5094,4.4727,4.4287,4.4287,4.3736,4.3075,4.3075,4.2323,4.1497,4.1497,4.0708,3.9698,3.8872,3.8065,3.7184,3.6083,3.4981,3.3899,3.2797,3.2173,3.1384,3.0044,3.0026,2.9769,2.8411,2.8429,2.8319,0.0,2.786,2.8906,3.0791,3.411,3.6597,3.7441,3.9441,4.0928,4.1479,4.2506,4.3589,4.4654,4.5223,4.6012,4.7095,4.7664,4.8857,5.0784,5.1473,5.2701,5.4503,5.4924,5.5306,5.5703,5.5703,5.6646,5.83,5.83,5.9242,6.08,6.08,6.08,6.08,6.08,6.08,6.08,6.08,6.08,6.08,2.419,2.419,2.419,2.419,2.4667,2.5768,2.7897,2.9402,3.1146,3.3495,3.4559,3.5642,3.7,3.7147,3.7276,3.7551,3.6817,3.634,3.634,3.5569,3.4376,3.2742,3.1641,3.0063,2.7934,2.6025,2.4795,2.4281,2.318,2.2648,2.2648,2.318,2.3437,2.3529,2.5658,2.7365,2.8833,3.1494,3.4376,3.7441,4.091,4.2947,4.392,4.392,4.4433,4.5131,4.5131,4.5461,4.5902,4.5902,4.5571,4.5131,4.5131,4.4764,4.4287,4.4011,4.3571,4.3094,4.28,4.2139,4.1405,4.0873,4.0157,3.935,3.8524,3.7294,3.6028,3.4908,3.3807,3.2706,3.1678,3.1017,3.0356,2.9567,2.876,2.7934,0.0,2.7181,2.7567,2.8081,3.1458,3.4284,3.5697,3.7771,3.9625,4.102,4.1864,4.2873,4.4195,4.4544,4.5314,4.6636,4.6966,4.8159,5.0343,5.1208,5.2419,5.4031,5.4909,5.5446,5.5703,5.5703,5.6646,5.83,5.83,5.9242,6.08,6.08,6.08,6.08,6.08,6.08,6.08,6.08,6.08,6.08,2.4208,2.4226,2.43,2.441,2.5695,2.7273,2.8865,3.1121,3.2999,3.3917,3.6083,3.7863,3.8726,3.8817,3.9129,3.9882,3.9289,3.8848,3.8817,3.8143,3.6967,3.5247,3.3705,3.207,3.0356,2.8011,2.6762,2.6667,2.5052,2.4263,2.4263,2.4208,2.4226,2.4318,2.5952,2.8007,3.0375,3.2063,3.5147,3.9093,4.1423,4.3332,4.4764,4.4764,4.5278,4.6012,4.5975,4.5975,4.6012,4.6012,4.5993,4.5957,4.5957,4.592,4.5755,4.4984,4.4764,4.458,4.3773,4.3002,4.2415,4.2378,4.1754,4.0965,4.0194,3.9368,3.834,3.678,3.5147,3.3972,3.3935,3.2596,3.1256,3.0448,2.9586,2.8172,2.5807,2.608,2.6576,2.6649,2.9365,3.2173,3.4587,3.6376,3.8358,4.0744,4.1754,4.2598,4.3387,4.4195,4.5039,4.5865,4.6654,4.7865,4.9593,5.1181,5.2383,5.3263,5.4886,5.5684,5.5703,5.5703,5.6646,5.83,5.83,5.9242,6.08,6.08,6.08,6.08,6.08,6.08,6.08,6.08,6.08,6.08,2.4318,2.4667,2.5658,2.7457,2.8095,2.8943,3.054,3.2339,3.4449,3.711,3.7991,3.8927,4.0341,4.0487,4.0579,4.0781,4.0836,4.0737,4.0487,4.0756,3.9981,3.7856,3.7261,3.5432,3.2045,3.045,2.8934,2.7493,2.5878,2.509,2.509,2.4483,2.452,2.5164,2.6759,2.8833,3.1274,3.4137,3.7679,4.1479,4.269,4.4158,4.559,4.559,4.6471,4.7609,4.7021,4.7186,4.7682,4.7682,4.7297,4.6801,4.6801,4.6379,4.5865,4.5645,4.559,4.5424,4.4617,4.425,4.3938,4.3332,4.2598,4.1937,4.1735,4.0598,3.946,3.9056,3.7679,3.6358,3.5771,3.4302,3.2926,3.2118,3.0296,2.8374,2.6557,2.5952,2.6135,2.7346,2.8209,2.9659,3.2082,3.4339,3.6431,3.8267,4.0286,4.1772,4.2561,4.3369,4.4452,4.5865,4.6104,4.7426,4.9933,5.1015,5.2266,5.3677,5.474,5.5399,5.5703,5.5703,5.6646,5.83,5.83,5.9242,6.08,6.08,6.08,6.08,6.08,6.08,6.08,6.08,6.08,6.08,2.5401,2.6172,2.7622,2.9696,3.0757,3.1607,3.2538,3.4226,3.6232,3.8559,3.9369,4.0276,4.168,4.1841,4.1989,4.2358,4.2715,4.2772,4.2408,4.2519,4.1907,4.0272,3.9438,3.7811,3.5248,3.3412,3.1534,2.9598,2.7988,2.676,2.5897,2.5456,2.5676,2.6484,2.775,2.9861,3.2706,3.6707,3.9918,4.2396,4.3552,4.4782,0.0,4.6287,4.7443,4.8802,4.8361,4.8489,4.8912,4.9279,4.9095,4.8673,4.8306,4.7884,4.737,4.6636,4.6434,4.625,4.5443,4.5223,4.5039,4.4232,4.3681,4.3259,4.2892,4.1846,4.0946,4.0946,3.9662,3.8505,3.8414,3.6762,3.4908,3.3366,3.1696,2.9874,2.7934,2.7255,2.7181,2.7732,2.7787,2.8741,3.1164,3.3587,3.5716,3.7349,3.9405,4.1075,4.2249,4.2727,4.3699,4.5333,4.5718,4.6926,4.9046,5.0792,5.2201,5.3277,5.4689,5.5489,5.5703,5.5703,5.6646,5.83,5.83,5.9242,6.08,6.08,6.08,6.08,6.08,6.08,6.08,6.08,6.08,6.08,2.7365,2.8356,2.9898,3.1715,3.3549,3.4867,3.5119,3.6652,3.8229,3.9488,4.0656,4.1816,4.292,4.3052,4.3303,4.4031,4.4447,4.4501,4.4087,4.3766,4.3194,4.2308,4.1003,3.9851,3.8839,3.6516,3.4374,3.239,3.0653,2.8869,2.7071,2.6961,2.7346,2.8154,2.9072,3.1409,3.4954,3.9399,4.1824,4.2794,4.414,4.5259,4.6159,4.6966,4.8233,4.9609,4.9829,4.9829,4.9848,5.0563,5.0802,5.0674,4.9976,4.9738,4.9462,4.8012,4.7517,4.726,4.6434,4.614,4.5865,4.5057,4.4874,4.4654,4.3828,4.3112,4.258,4.2488,4.1258,4.0432,4.1148,3.9276,3.6872,3.4504,3.3458,3.2155,2.9929,2.9525,2.9219,2.8503,2.8429,0.0,3.1201,3.3403,3.5422,3.7202,3.8817,4.0451,4.2066,4.2249,4.3039,4.4654,4.5533,4.659,4.7835,5.0659,5.2304,5.2768,5.4764,5.5703,5.5703,5.5703,5.6646,5.83,5.83,5.9242,6.08,6.08,6.08,6.08,6.08,6.08,6.08,6.08,6.08,6.08,3.0577,3.0779,3.1916,3.4908,3.6496,3.7897,3.9491,3.951,4.0107,4.2259,4.2754,4.3262,4.418,4.4275,4.4331,4.4482,4.4806,4.4872,4.4527,4.4944,4.4571,4.3139,4.3345,4.2546,4.0522,3.8974,3.7108,3.4951,3.2614,3.082,2.9549,2.8906,2.9017,2.9843,3.1311,3.4674,3.937,4.1291,4.3092,4.4679,4.4702,4.559,4.6985,4.7792,4.8728,4.9756,5.1096,5.1151,5.0618,5.0747,5.0802,5.0784,5.0637,5.0582,5.0527,5.0251,4.9682,4.8967,4.8104,4.7407,4.6709,4.5883,4.5681,4.548,4.4672,4.4397,4.4103,4.3424,4.2543,4.1919,4.2066,4.012,3.7918,3.6156,3.5147,3.4211,3.3109,3.2394,3.1935,3.1788,3.177,3.1659,3.1403,3.2394,0.0,3.6321,3.7991,3.9606,4.124,4.1937,4.3039,4.4654,4.5823,4.7117,4.8673,5.1225,5.287,5.362,5.5032,5.5703,5.5703,5.5703,5.6646,5.83,5.83,5.9242,6.08,6.08,6.08,6.08,6.08,6.08,6.08,6.08,6.08,6.08,3.377,3.3935,3.4898,3.7877,3.9037,4.0174,4.2158,4.2233,4.2446,4.3411,4.3799,4.4354,4.5361,4.548,4.5651,4.613,4.6459,4.6502,4.6168,4.6222,4.5956,4.5197,4.4595,4.3787,4.2678,4.1626,3.9757,3.7111,3.5907,3.4218,3.2063,3.1678,3.1935,3.2797,3.504,3.7652,4.0486,4.1957,4.3571,4.5201,4.5289,4.6305,4.7829,4.8655,4.9738,5.093,5.172,5.2013,5.205,5.205,5.205,5.1977,5.1555,5.1426,5.1334,5.093,5.0527,5.0123,4.9719,4.9022,4.8196,4.7352,4.6838,4.6324,4.5516,4.5333,4.5094,4.4287,4.3809,4.3296,4.2451,4.135,4.0047,3.8432,3.7826,3.6982,3.533,3.4761,3.4211,3.333,3.322,0.0,0.0,0.0,0.0,0.0,0.0,3.8964,4.1001,4.1479,4.2496,4.4295,4.576,4.7061,4.8211,5.1128,5.29,5.3502,5.4984,5.5703,5.5703,5.5703,5.6646,5.83,5.83,5.9242,6.08,6.08,6.08,6.08,6.08,6.08,6.08,6.08,6.08,6.08,3.6859,3.7163,3.7988,4.0587,4.1299,4.2193,4.4105,4.4652,4.4765,4.4496,4.4832,4.5489,4.6577,4.6694,4.6961,4.7649,4.7952,4.7991,4.7728,4.7357,4.7163,4.7163,4.5682,4.4855,4.4855,4.3874,4.2047,3.938,3.9145,3.7169,3.3707,3.4485,3.5312,3.6242,3.8627,4.0221,4.1233,4.2782,4.4306,4.5758,4.6224,4.7332,4.8771,4.975,5.089,5.2055,5.2265,5.272,5.3206,5.3206,5.3206,5.3096,5.2454,5.2252,5.2123,5.1499,5.1187,5.1059,5.1059,5.0472,4.9703,4.912,4.829,4.7463,4.6833,4.6396,4.5956,4.5236,4.489,4.4323,4.3039,4.2525,4.1882,4.0616,4.0267,3.9496,3.7588,3.7312,3.6762,3.5275,3.4945,0.0,3.4835,0.0,0.0,0.0,0.0,3.8726,4.0983,4.1277,4.2138,4.3825,4.5662,4.6938,4.7612,5.1013,5.2943,5.3347,5.4951,5.5703,5.5703,5.5703,5.6646,5.83,5.83,5.9242,6.08,6.08,6.08,6.08,6.08,6.08,6.08,6.08,6.08,6.08,3.9779,4.003,4.0643,4.2674,4.3354,4.4183,4.5824,4.6416,4.6645,4.6607,4.6646,4.7011,4.7837,4.7933,4.7953,4.8049,4.8068,4.8087,4.8049,4.801,4.799,4.799,4.7144,4.6663,4.6663,4.5028,4.3558,4.2315,4.1222,3.8135,3.3321,3.6685,3.8826,3.9955,4.0933,4.2171,4.3662,4.4966,4.624,4.7414,4.788,4.8815,5.0073,5.1311,5.1857,5.2151,5.3254,5.345,5.3206,5.3206,5.3206,5.3206,5.3115,5.3096,5.3078,5.3004,5.2454,5.1885,5.1885,5.1298,5.0756,5.1045,5.025,4.9344,4.9276,4.81,4.6856,4.642,4.5463,4.4654,4.4507,4.3277,4.2249,4.2103,4.146,4.0928,4.0689,4.0653,4.0322,3.9423,3.8689,3.8248,3.8248,3.7,0.0,0.0,3.8505,3.9331,4.102,4.1791,4.2613,4.3511,4.5814,4.7249,4.7684,5.1318,5.3338,5.3741,5.5071,5.5703,5.5703,5.5703,5.6646,5.83,5.83,5.9242,6.08,6.08,6.08,6.08,6.08,6.08,6.08,6.08,6.08,6.08,4.1942,4.2138,4.2775,4.4759,4.5243,4.5812,4.7163,4.753,4.7817,4.8336,4.7952,4.7952,4.8798,4.8875,4.9298,5.0298,4.9933,4.9875,5.0356,4.9452,4.8875,4.8875,4.8067,4.7394,4.6913,4.622,4.5054,4.3423,4.2697,4.0929,3.8264,3.9751,4.0775,4.1468,4.2521,4.3586,4.4701,4.5669,4.6963,4.8367,4.8886,4.9954,5.1362,5.2328,5.3067,5.3566,5.404,5.4102,5.3979,5.3979,5.3777,5.3565,5.3565,5.3739,5.3979,5.3979,5.3755,5.3493,5.3493,5.2858,5.2292,5.2423,5.1738,5.1031,5.1051,5.0141,4.9145,4.8506,4.6981,4.5719,4.5442,4.4507,4.3754,4.3754,4.3075,4.2378,4.1901,4.1827,4.1534,4.0726,4.0341,3.9955,3.946,3.9276,3.9258,3.9405,3.8964,3.9405,4.102,4.1864,4.2769,4.3786,4.596,4.7265,4.764,5.1335,5.3275,5.3472,5.4987,5.5703,5.5703,5.5703,5.6646,5.8357,5.9358,6.0185,6.08,6.08,6.08,6.08,6.08,6.08,6.08,6.08,6.08,6.08,4.4435,4.4549,4.5048,4.6557,4.683,4.7219,4.8318,4.8702,4.9163,5.0029,4.9817,4.974,5.0106,5.0356,5.0991,5.2183,5.176,5.1683,5.226,5.0933,5.0144,5.0144,4.9067,4.8221,4.7644,4.7375,4.657,4.513,4.4505,4.3164,4.123,4.1128,4.1895,4.3379,4.45,4.5354,4.6028,4.687,4.8034,4.9408,5.0038,5.1166,5.2588,5.3319,5.3962,5.4535,5.464,5.4597,5.4503,5.4503,5.4355,5.4168,5.4048,5.4221,5.4503,5.4503,5.4503,5.4503,5.4503,5.405,5.3591,5.3713,5.3059,5.2435,5.2683,5.1897,5.091,5.0128,4.8502,4.7062,4.6537,4.5697,4.5057,4.5057,4.4378,4.3644,4.3094,4.28,4.2433,4.1882,4.1607,4.1332,4.0983,4.1038,4.0965,4.0634,4.0084,4.0249,4.1405,4.2327,4.3278,4.4351,4.6242,4.7479,4.798,5.1444,5.3203,5.3222,5.4895,5.5703,5.5722,5.6222,5.7146,5.8396,6.0069,6.08,6.08,6.08,6.08,6.08,6.08,6.08,6.08,6.08,6.08,6.08,4.7495,4.7541,4.7649,4.801,4.8086,4.8375,4.924,5.0106,5.0952,5.176,5.2606,5.2818,5.1972,5.2645,5.3164,5.3183,5.3183,5.3164,5.3183,5.2375,5.1875,5.1875,5.0279,4.9375,4.9375,4.8529,4.8067,4.8048,4.6851,4.4206,4.0306,3.9981,4.2123,4.6279,4.7159,4.7733,4.8125,4.899,4.9875,5.0741,5.1548,5.2644,5.3836,5.4284,5.4499,5.4566,5.4952,5.4838,5.4503,5.4503,5.476,5.5007,5.4628,5.4503,5.4503,5.4503,5.4503,5.4503,5.4503,5.4484,5.4579,5.4988,5.4107,5.3394,5.4284,5.3162,5.1771,5.0948,4.9815,4.8721,4.7835,4.6683,4.5883,4.5883,4.5223,4.469,4.4672,4.3993,4.3461,4.3461,4.2763,4.2598,4.3369,4.2029,4.1442,4.2213,4.2268,4.2268,4.2286,4.3341,4.437,4.527,4.6809,4.7999,4.8876,5.1751,5.3203,5.3222,5.4895,5.5703,5.5761,5.7473,5.828,5.8396,6.0069,6.08,6.08,6.08,6.08,6.08,6.08,6.08,6.08,6.08,6.08,6.08,4.7913,4.7933,4.8336,4.9644,4.9875,5.0356,5.1779,5.2222,5.251,5.276,5.3549,5.3972,5.3703,5.3395,5.3433,5.403,5.3549,5.3453,5.4049,5.328,5.2799,5.2799,5.1722,5.0856,5.0298,4.9433,4.8702,4.8105,4.7482,4.6533,4.5277,4.5151,4.5963,4.7549,4.7818,4.8644,4.9894,5.0164,5.1106,5.2472,5.3337,5.3909,5.4342,5.5045,5.5324,5.5331,5.5446,5.5423,5.5306,5.5306,5.5399,5.5489,5.5375,5.5306,5.5306,5.5306,5.5306,5.5306,5.5306,5.5306,5.5331,5.5489,5.5212,5.4977,5.5237,5.4476,5.3388,5.2265,5.1714,5.1036,4.9646,4.8643,4.7731,4.6838,4.6049,4.5516,4.5516,4.4837,4.4323,4.4323,4.3608,4.3222,4.3461,4.3039,4.2837,4.3094,4.3112,4.2873,4.2323,4.3961,4.4997,4.5307,4.7378,4.8876,4.972,5.2039,5.351,5.4107,5.5184,5.5703,5.5742,5.6896,5.7742,5.8357,5.9435,6.0242,6.08,6.08,6.08,6.08,6.08,6.08,6.08,6.08,6.08,6.08,5.0029,5.0029,5.0356,5.1452,5.1645,5.1991,5.3049,5.3491,5.3683,5.3683,5.4434,5.4953,5.4953,5.4453,5.4357,5.4895,5.4453,5.4376,5.4914,5.4164,5.3683,5.3683,5.2856,5.2145,5.1645,5.1106,5.0394,4.9529,4.8679,4.8097,4.779,4.8116,4.8565,4.9086,4.9394,5.0317,5.1645,5.1645,5.2433,5.3741,5.428,5.4684,5.5011,5.5511,5.5703,5.5703,5.5703,5.5703,5.5703,5.5703,5.5703,5.5703,5.5703,5.5703,5.5703,5.5703,5.5703,5.5703,5.5703,5.5703,5.5703,5.5703,5.5703,5.5703,5.5703,5.5299,5.4641,5.3541,5.3192,5.2677,5.1371,5.0573,4.9716,4.8456,4.759,4.6908,4.6434,4.5663,4.5149,4.5149,4.4709,4.4397,0.0,4.4397,4.4397,4.4397,4.4397,4.4262,4.3915,4.4885,4.5838,4.6629,4.8253,4.9628,5.076,5.2389,5.3645,5.4511,5.5318,5.5703,5.5722,5.6588,5.7473,5.8338,5.9146,5.9992,6.08,6.08,6.08,6.0762,6.0435,6.03,6.0281,5.9973,5.9858,5.9858,5.3203,5.3203,5.3222,5.328,5.3299,5.3318,5.3376,5.4068,5.4587,5.4587,5.5241,5.5703,5.5703,5.5703,5.5703,5.5703,5.5703,5.5703,5.5703,5.4991,5.4587,5.4587,5.376,5.3299,5.3299,5.3241,5.2799,5.1991,5.0433,4.926,4.8471,4.9279,5.0106,5.0914,5.1664,5.2472,5.3299,5.3299,5.3799,5.4587,5.4587,5.503,5.5703,5.5761,5.578,5.5799,5.5857,5.5876,5.5876,5.5799,5.578,5.578,5.5722,5.5703,5.5703,5.5703,5.5703,5.5703,5.5703,5.5703,5.5703,5.5703,5.5703,5.5703,5.5703,5.5703,5.5491,5.4741,5.4292,5.3748,5.2844,5.237,5.1737,5.052,4.9653,4.872,4.7482,4.6562,4.6049,4.6011,4.5993,0.0,4.5992,4.5973,4.5973,4.5973,4.5973,4.6184,4.6645,4.6252,4.6904,4.8838,4.9353,5.0356,5.1972,5.2856,5.3722,5.4587,5.5338,5.5703,5.5722,5.653,5.7376,5.8261,5.8992,5.9819,6.0627,6.0627,6.0627,6.055,5.9723,5.9415,5.9338,5.8588,5.83,5.83,5.3203,5.3203,5.3414,5.4087,5.4184,5.4395,5.5011,5.528,5.5415,5.5415,5.5568,5.5703,5.5703,5.5703,5.5703,5.5703,5.5703,5.5703,5.5703,5.5511,5.5415,5.5415,5.4626,5.4184,5.4184,5.3549,5.3106,5.2895,5.2491,5.2183,5.201,5.2202,5.2414,5.2626,5.2818,5.3376,5.4184,5.4184,5.4664,5.5415,5.5415,5.553,5.5761,5.6434,5.6684,5.678,5.7453,5.7684,5.7588,5.6915,5.6684,5.6569,5.5915,5.5703,5.5703,5.5703,5.5703,5.5703,5.5703,5.5703,5.5703,5.5703,5.5703,5.5703,5.5703,5.5703,5.5645,5.5453,5.5352,5.4933,5.3792,5.3518,5.3052,5.1775,5.1162,5.0517,4.9612,4.8477,4.7629,4.7299,4.6735,4.6456,4.6794,4.6824,4.6824,0.0,4.6824,4.7259,4.827,4.8237,4.8386,4.8876,5.0464,5.1818,5.2876,5.376,5.4607,5.5415,5.5607,5.5703,5.5703,5.5915,5.6472,5.7319,5.7511,5.8088,5.8896,5.8896,5.8896,5.8877,5.8665,5.8588,5.8569,5.8377,5.83,5.83,5.4337,5.4337,5.4491,5.4972,5.5049,5.5203,5.5626,5.603,5.628,5.628,5.6646,5.6896,5.6896,5.6896,5.6896,5.6896,5.6165,5.5703,5.5703,5.5703,5.5703,5.5703,5.528,5.5049,5.5049,5.4587,5.4164,5.3799,5.3395,5.3203,5.3203,5.3203,5.3414,5.3799,5.3799,5.426,5.5049,5.5049,5.5299,5.5722,5.6126,5.628,5.6376,5.7261,5.7588,5.7665,5.8127,5.83,5.8223,5.7742,5.7588,5.7434,5.6569,5.628,5.6222,5.5818,5.5703,5.5703,5.5703,5.5703,5.5703,5.5703,5.5703,5.5703,5.5703,5.5703,5.5703,5.5703,5.5703,5.5506,5.4829,5.4728,5.4325,5.3071,5.271,5.2165,5.118,5.0411,4.9765,4.919,4.8715,4.8375,4.8202,4.8211,4.8211,4.8211,4.8211,4.8715,4.9921,5.0002,5.0092,5.0284,5.1333,5.251,5.378,5.4626,5.5261,5.5703,5.5703,5.5703,5.5703,5.5703,5.6165,5.6992,5.6992,5.7492,5.83,5.83,5.83,5.8261,5.7857,5.7703,5.7665,5.7261,5.7107,5.7107,5.6088,5.6088,5.6088,5.6088,5.6088,5.6088,5.6088,5.6722,5.7203,5.7203,5.7838,5.83,5.83,5.83,5.83,5.83,5.6953,5.6088,5.6088,5.5972,5.5895,5.5895,5.5761,5.5703,5.5703,5.5703,5.5376,5.4684,5.3933,5.3587,5.3587,5.3587,5.3972,5.4684,5.4684,5.5126,5.5895,5.5895,5.5972,5.6165,5.6896,5.7203,5.728,5.8146,5.8492,5.8511,5.8627,5.8684,5.8665,5.8531,5.8492,5.8338,5.7473,5.7107,5.6838,5.6107,5.5799,5.5703,5.5703,5.5703,5.5703,5.5703,5.5703,5.5703,5.5703,5.5703,5.5703,5.5703,5.5703,5.5703,5.5703,5.5703,5.5346,5.425,5.4084,5.3655,5.2378,5.2186,5.1903,5.1168,5.1073,5.0818,5.0127,5.0052,5.0052,5.0052,5.0052,5.051,5.1539,5.1601,5.1813,5.2278,5.2299,5.3068,5.4664,5.5357,5.5703,5.5703,5.5703,5.5703,5.5703,5.5703,5.6088,5.6799,5.6799,5.7223,5.7915,5.7915,5.7915,5.7838,5.7088,5.6799,5.6703,5.5972,5.5703,5.5703,5.7896,5.7896,5.7896,5.7896,5.7896,5.7896,5.7896,5.8011,5.8107,5.8107,5.8223,5.83,5.83,5.83,5.83,5.83,5.805,5.7896,5.7896,5.7203,5.6799,5.6799,5.6088,5.5703,5.5703,5.5703,5.5645,5.5511,5.5376,5.5299,5.5299,5.5299,5.5376,5.5511,5.5511,5.5992,5.6799,5.6799,5.7223,5.7915,5.805,5.8107,5.8184,5.8992,5.9319,5.9415,6.0146,6.0416,6.03,5.9569,5.9319,5.9165,5.8357,5.7588,5.6953,5.6838,5.628,5.5703,5.5703,5.5703,5.5703,5.5703,5.5703,5.5703,5.5703,5.5703,5.5703,5.5703,5.5703,5.5703,5.5703,5.5703,5.5538,5.4988,5.4897,5.4485,5.3199,5.3025,5.2843,5.2379,5.231,5.2392,5.2612,5.2634,5.2634,5.2634,5.2634,5.2713,5.2909,5.2909,5.3276,5.4068,5.4107,5.4549,5.5491,5.5645,5.5703,5.5703,5.5703,5.5703,5.5703,5.5703,5.5761,5.5895,5.5895,5.5972,5.6107,5.6107,5.6107,5.6088,5.5953,5.5895,5.5876,5.5742,5.5703,5.5703,5.83,5.83,5.83,5.83,5.83,5.83,5.83,5.8665,5.8954,5.8954,5.9358,5.9646,5.9646,5.9646,5.9646,5.9646,5.9646,5.9646,5.9646,5.8415,5.7703,5.7703,5.73,5.7107,5.7107,5.7107,5.7107,5.7107,5.7107,5.7107,5.7107,5.7107,5.7107,5.7107,5.7107,5.7319,5.7703,5.7703,5.7934,5.8338,5.8781,5.8954,5.905,5.9877,6.0204,6.0242,6.0666,6.08,6.0742,6.0339,6.0204,6.005,5.9204,5.8665,5.8261,5.7819,5.6742,5.5703,5.5703,5.5703,5.5703,5.5703,5.5703,5.5703,5.5703,5.5703,5.5703,5.5703,5.5703,5.5703,5.5703,5.5703,5.564,5.5446,5.5423,5.5222,5.4632,5.4549,5.4314,5.3698,5.3625,5.3517,5.322,5.3203,5.3203,5.3203,5.3203,5.3395,5.3876,5.3895,5.428,5.5126,5.5145,5.5318,5.5703,5.5703,5.5703,5.5703,5.5703,5.5703,5.5703,5.5703,5.5703,5.5703,5.5703,5.5703,5.5703,5.5703,5.5703,5.5703,5.5703,5.5703,5.5703,5.5703,5.5703,5.5703,5.8877,5.8877,5.8877,5.8877,5.8877,5.8877,5.8877,5.9415,5.98,5.98,6.0377,6.08,6.08,6.08,6.08,6.08,6.08,6.08,6.08,5.9608,5.88,5.8588,5.8396,5.83,5.83,5.83,5.83,5.83,5.83,5.83,5.83,5.83,5.83,5.83,5.83,5.8396,5.8588,5.8588,5.8704,5.8934,5.955,5.98,5.9877,6.055,6.08,6.08,6.08,6.08,6.08,6.08,6.08,6.0685,6.0012,5.9665,5.9377,5.8761,5.7357,5.5953,5.5761,5.5703,5.5703,5.5703,5.5703,5.5703,5.5703,5.5703,5.5703,5.5703,5.5703,5.5703,5.5703,5.5703,5.5662,5.5577,5.564,5.5662,5.5577,5.564,5.5472,5.4857,5.478,5.4511,5.3857,5.378,5.378,5.378,5.378,5.4068,5.4741,5.478,5.5049,5.5684,5.5703,5.5703,5.5703,5.5703,5.5703,5.5703,5.5703,5.5703,5.5703,5.5703,5.5703,5.5703,5.5703,5.5703,5.5703,5.5703,5.5703,5.5703,5.5703,5.5703,5.5703,5.5703,5.5703,5.5703,6.0608,6.0608,6.0608,6.0608,6.0608,6.0608,6.0608,6.0666,6.0704,6.0704,6.0762,6.08,6.08,6.08,6.08,6.08,6.08,6.08,6.08,6.0685,6.0262,5.9454,5.8704,5.83,5.83,5.83,5.83,5.83,5.83,5.83,5.83,5.83,5.83,5.83,5.83,5.8704,5.9415,5.9415,5.9877,6.0608,6.0685,6.0704,6.0704,6.0781,6.08,6.08,6.08,6.08,6.08,6.08,6.08,6.0781,6.0723,6.0146,5.9492,5.9435,5.8223,5.6722,5.5915,5.5703,5.5703,5.5703,5.5703,5.5703,5.5703,5.5703,5.5703,5.5703,5.5703,5.5703,5.5703,5.5703,5.5577,5.5212,5.5466,5.5577,5.5186,5.5466,5.5684,5.5607,5.5607,5.5588,5.5511,5.5511,5.5511,5.5511,5.5511,5.553,5.5607,5.5607,5.5645,5.5703,5.5703,5.5703,5.5703,5.5703,5.5703,5.5703,5.5703,5.5703,5.5703,5.5703,5.5703,5.5703,5.5703,5.5703,5.5703,5.5703,5.5703,5.5703,5.5703,5.5703,5.5703,5.5703,5.5703,5.5703,6.08,6.08,6.08,6.08,6.08,6.08,6.08,6.08,6.08,6.08,6.08,6.08,6.08,6.08,6.08,6.08,6.08,6.08,6.08,6.08,6.0646,6.0319,6.0012,5.9858,5.9858,5.9858,5.9858,5.9858,5.9858,5.9858,5.9858,5.9858,5.9858,5.9858,5.9858,6.0012,6.03,6.03,6.0492,6.08,6.08,6.08,6.08,6.08,6.08,6.08,6.08,6.08,6.08,6.08,6.08,6.08,6.08,6.0569,6.0204,5.9665,5.905,5.8377,5.755,5.6511,5.5703,5.5703,5.5703,5.5703,5.5703,5.5703,5.5703,5.5703,5.5703,5.5703,5.5703,5.5703,5.5662,5.5489,5.5599,5.564,5.5489,5.5599,5.5703,5.5703,5.5703,5.5703,5.5703,5.5703,5.5703,5.5703,5.5703,5.5703,5.5703,5.5703,5.5703,5.5703,5.5703,5.5703,5.5703,5.5703,5.5703,5.5703,5.5703,5.5703,5.5703,5.5703,5.5703,5.5703,5.5703,5.5703,5.5703,5.5703,5.5703,5.5703,5.5703,5.5703,5.5703,5.5703,5.5703,5.5703,6.08,6.08,6.08,6.08,6.08,6.08,6.08,6.08,6.08,6.08,6.08,6.08,6.08,6.08,6.08,6.08,6.08,6.08,6.08,6.08,6.08,6.08,6.08,6.08,6.08,6.08,6.08,6.08,6.08,6.08,6.08,6.08,6.08,6.08,6.08,6.08,6.08,6.08,6.08,6.08,6.08,6.08,6.08,6.08,6.08,6.08,6.08,6.08,6.08,6.08,6.08,6.08,6.08,6.08,6.0685,6.0089,5.9704,5.9377,5.8838,5.7627,5.6453,5.6184,5.5895,5.5703,5.5703,5.5703,5.5703,5.5703,5.5703,5.5703,5.5703,5.5703,5.5703,5.5703,5.5703,5.5703,5.5703,5.5703,5.5703,5.5703,5.5703,5.5703,5.5703,5.5703,5.5703,5.5703,5.5703,5.5703,5.5703,5.5703,5.5703,5.5703,5.5703,5.5703,5.5703,5.5703,5.5703,5.5703,5.5703,5.5703,5.5703,5.5703,5.5703,5.5703,5.5703,5.5703,5.5703,5.5703,5.5703,5.5703,5.5703,5.5703,5.5703,5.5703,5.5703,5.5703,6.08,6.08,6.08,6.08,6.08,6.08,6.08,6.08,6.08,6.08,6.08,6.08,6.08,6.08,6.08,6.08,6.08,6.08,6.08,6.08,6.08,6.08,6.08,6.08,6.08,6.08,6.08,6.08,6.08,6.08,6.08,6.08,6.08,6.08,6.08,6.08,6.08,6.08,6.08,6.08,6.08,6.08,6.08,6.08,6.08,6.08,6.08,6.08,6.08,6.08,6.08,6.08,6.08,6.08,6.08,6.08,6.0185,5.9511,5.9511,5.8915,5.8107,5.7223,5.6338,5.5703,5.5703,5.5703,5.5703,5.5703,5.5703,5.5703,5.5703,5.5703,5.5703,5.5703,5.5703,5.5703,5.5703,5.5703,5.5703,5.5703,5.5703,5.5703,5.5703,5.5703,5.5703,5.5703,5.5703,5.5703,5.5703,5.5703,5.5703,5.5703,5.5703,5.5703,5.5703,5.5703,5.5703,5.5703,5.5703,5.5703,5.5703,5.5703,5.5703,5.5703,5.5703,5.5703,5.5703,5.5703,5.5703,5.5703,5.5703,5.5703,5.5703,5.5703,5.5703,5.5703,6.08,6.08,6.08,6.08,6.08,6.08,6.08,6.08,6.08,6.08,6.08,6.08,6.08,6.08,6.08,6.08,6.08,6.08,6.08,6.08,6.08,6.08,6.08,6.08,6.08,6.08,6.08,6.08,6.08,6.08,6.08,6.08,6.08,6.08,6.08,6.08,6.08,6.08,6.08,6.08,6.08,6.08,6.08,6.08,6.08,6.08,6.08,6.08,6.08,6.08,6.08,6.08,6.08,6.08,6.08,6.08,6.0608,6.0416,6.0416,5.9781,5.88,5.7357,5.6799,5.6434,5.5838,5.5703,5.5703,5.5703,5.5703,5.5703,5.5703,5.5703,5.5703,5.5703,5.5703,5.5703,5.5703,5.5703,5.5703,5.5703,5.5703,5.5703,5.5703,5.5703,5.5703,5.5703,5.5703,5.5703,5.5703,5.5703,5.5703,5.5703,5.5703,5.5703,5.5703,5.5703,5.5703,5.5703,5.5703,5.5703,5.5703,5.5703,5.5703,5.5703,5.5703,5.5703,5.5703,5.5703,5.5703,5.5703,5.5703,5.5703,5.5703,5.5703,5.5703,5.5703,6.08,6.08,6.08,6.08,6.08,6.08,6.08,6.08,6.08,6.08,6.08,6.08,6.08,6.08,6.08,6.08,6.08,6.08,6.08,6.08,6.08,6.08,6.08,6.08,6.08,6.08,6.08,6.08,6.08,6.08,6.08,6.08,6.08,6.08,6.08,6.08,6.08,6.08,6.08,6.08,6.08,6.08,6.08,6.08,6.08,6.08,6.08,6.08,6.08,6.08,6.08,6.08,6.08,6.08,6.08,6.08,6.08,6.08,6.08,6.0416,5.9608,5.7934,5.7261,5.6761,5.5895,5.5703,5.5703,5.5703,5.5703,5.5703,5.5703,5.5703,5.5703,5.5703,5.5703,5.5703,5.5703,5.5703,5.5703,5.5703,5.5703,5.5703,5.5703,5.5703,5.5703,5.5703,5.5703,5.5703,5.5703,5.5703,5.5703,5.5703,5.5703,5.5703,5.5703,5.5703,5.5703,5.5703,5.5703,5.5703,5.5703,5.5703,5.5703,5.5703,5.5703,5.5703,5.5703,5.5703,5.5703,5.5703,5.5703,5.5703,5.5703,5.5703,5.5703,5.5703,6.08,6.08,6.08,6.08,6.08,6.08,6.08,6.08,6.08,6.08,6.08,6.08,6.08,6.08,6.08,6.08,6.08,6.08,6.08,6.08,6.08,6.08,6.08,6.08,6.08,6.08,6.08,6.08,6.08,6.08,6.08,6.08,6.08,6.08,6.08,6.08,6.08,6.08,6.08,6.08,6.08,6.08,6.08,6.08,6.08,6.08,6.08,6.08,6.08,6.08,6.08,6.08,6.08,6.08,6.08,6.08,6.08,6.08,6.08,6.08,6.0416,5.8819,5.7761,5.6857,5.5915,5.5703,5.5703,5.5703,5.5703,5.5703,5.5703,5.5703,5.5703,5.5703,5.5703,5.5703,5.5703,5.5703,5.5703,5.5703,5.5703,5.5703,5.5703,5.5703,5.5703,5.5703,5.5703,5.5703,5.5703,5.5703,5.5703,5.5703,5.5703,5.5703,5.5703,5.5703,5.5703,5.5703,5.5703,5.5703,5.5703,5.5703,5.5703,5.5703,5.5703,5.5703,5.5703,5.5703,5.5703,5.5703,5.5703,5.5703,5.5703,5.5703,5.5703,5.5703,6.08,6.08,6.08,6.08,6.08,6.08,6.08,6.08,6.08,6.08,6.08,6.08,6.08,6.08,6.08,6.08,6.08,6.08,6.08,6.08,6.08,6.08,6.08,6.08,6.08,6.08,6.08,6.08,6.08,6.08,6.08,6.08,6.08,6.08,6.08,6.08,6.08,6.08,6.08,6.08,6.08,6.08,6.08,6.08,6.08,6.08,6.08,6.08,6.08,6.08,6.08,6.08,6.08,6.08,6.08,6.08,6.08,6.08,6.08,6.08,6.055,5.9492,5.8627,5.7607,5.6049,5.5703,5.5703,5.5703,5.5703,5.5703,5.5703,5.5703,5.5703,5.5703,5.5703,5.5703,5.5703,5.5703,5.5703,5.5703,5.5703,5.5703,5.5703,5.5703,5.5703,5.5703,5.5703,5.5703,5.5703,5.5703,5.5703,5.5703,5.5703,5.5703,5.5703,5.5703,5.5703,5.5703,5.5703,5.5703,5.5703,5.5703,5.5703,5.5703,5.5703,5.5703,5.5703,5.5703,5.5703,5.5703,5.5703,5.5703,5.5703,5.5703,5.5703,5.5703,6.08,6.08,6.08,6.08,6.08,6.08,6.08,6.08,6.08,6.08,6.08,6.08,6.08,6.08,6.08,6.08,6.08,6.08,6.08,6.08,6.08,6.08,6.08,6.08,6.08,6.08,6.08,6.08,6.08,6.08,6.08,6.08,6.08,6.08,6.08,6.08,6.08,6.08,6.08,6.08,6.08,6.08,6.08,6.08,6.08,6.08,6.08,6.08,6.08,6.08,6.08,6.08,6.08,6.08,6.08,6.08,6.08,6.08,6.08,6.08,6.0589,5.9723,5.8896,5.7953,5.6607,5.5992,5.5703,5.5703,5.5703,5.5703,5.5703,5.5703,5.5703,5.5703,5.5703,5.5703,5.5703,5.5703,5.5703,5.5703,5.5703,5.5703,5.5703,5.5703,5.5703,5.5703,5.5703,5.5703,5.5703,5.5703,5.5703,5.5703,5.5703,5.5703,5.5703,5.5703,5.5703,5.5703,5.5703,5.5703,5.5703,5.5703,5.5703,5.5703,5.5703,5.5703,5.5703,5.5703,5.5703,5.5703,5.5703,5.5703,5.5703,5.5703,5.5703,5.5703,6.08,6.08,6.08,6.08,6.08,6.08,6.08,6.08,6.08,6.08,6.08,6.08,6.08,6.08,6.08,6.08,6.08,6.08,6.08,6.08,6.08,6.08,6.08,6.08,6.08,6.08,6.08,6.08,6.08,6.08,6.08,6.08,6.08,6.08,6.08,6.08,6.08,6.08,6.08,6.08,6.08,6.08,6.08,6.08,6.08,6.08,6.08,6.08,6.08,6.08,6.08,6.08,6.08,6.08,6.08,6.08,6.08,6.08,6.08,6.08,6.0627,5.9896,5.9011,5.8107,5.7376,5.6434,5.5703,5.5703,5.5703,5.5703,5.5703,5.5703,5.5703,5.5703,5.5703,5.5703,5.5703,5.5703,5.5703,5.5703,5.5703,5.5703,5.5703,5.5703,5.5703,5.5703,5.5703,5.5703,5.5703,5.5703,5.5703,5.5703,5.5703,5.5703,5.5703,5.5703,5.5703,5.5703,5.5703,5.5703,5.5703,5.5703,5.5703,5.5703,5.5703,5.5703,5.5703,5.5703,5.5703,5.5703,5.5703,5.5703,5.5703,5.5703,5.5703,5.5703,6.0819,6.08,6.08,6.08,6.08,6.08,6.08,6.08,6.08,6.08,6.08,6.08,6.08,6.08,6.08,6.08,6.08,6.08,6.08,6.08,6.08,6.08,6.08,6.08,6.08,6.08,6.08,6.08,6.08,6.08,6.08,6.08,6.08,6.08,6.08,6.08,6.08,6.08,6.08,6.08,6.08,6.08,6.08,6.08,6.08,6.08,6.08,6.08,6.08,6.08,6.08,6.08,6.08,6.08,6.08,6.08,6.08,6.08,6.08,6.08,6.0762,6.0646,5.9454,5.828,5.8146,5.6876,5.5703,5.5703,5.5703,5.5703,5.5703,5.5703,5.5703,5.5703,5.5703,5.5703,5.5703,5.5703,5.5703,5.5703,5.5703,5.5703,5.5703,5.5703,5.5703,5.5703,5.5703,5.5703,5.5703,5.5703,5.5703,5.5703,5.5703,5.5703,5.5703,5.5703,5.5703,5.5703,5.5703,5.5703,5.5703,5.5703,5.5703,5.5703,5.5703,5.5703,5.5703,5.5703,5.5703,5.5703,5.5703,5.5703,5.5703,5.5703,5.5703,5.5703,6.1093,6.1093,6.1093,6.1093,6.0973,6.0935,6.105,6.0916,6.0819,6.0896,6.0839,6.08,6.08,6.08,6.08,6.08,6.08,6.08,6.08,6.08,6.08,6.08,6.08,6.08,6.08,6.08,6.08,6.08,6.08,6.08,6.08,6.08,6.08,6.08,6.08,6.08,6.08,6.08,6.08,6.08,6.08,6.08,6.08,6.08,6.08,6.08,6.08,6.08,6.08,6.08,6.08,6.08,6.08,6.08,6.08,6.08,6.08,6.08,6.08,6.08,6.08,6.08,5.9877,5.8858,5.8396,5.7319,5.628,5.5799,5.5703,5.5703,5.5703,5.5703,5.5703,5.5703,5.5703,5.5703,5.5703,5.5703,5.5703,5.5703,5.5703,5.5703,5.5703,5.5703,5.5703,5.5703,5.5703,5.5703,5.5703,5.5703,5.5703,5.5703,5.5703,5.5703,5.5703,5.5703,5.5703,5.5703,5.5703,5.5703,5.5703,5.5703,5.5703,5.5703,5.5703,5.5703,5.5703,5.5703,5.5703,5.5703,5.5703,5.5703,5.5703,5.5703,5.5703,5.5703]},{"header":{"parameterUnit":"m.s-1","parameterCategory":1,"la1":30.6,"la2":28.766,"lo1":-90.7593,"lo2":-88.6598,"dx":0.0162,"dy":0.0183,"nx":116,"ny":114,"refTime":"2022-12-30T18:00:00:Z","depth":0,"parameterNumber":3,"parameterNumberName":"V-component_of_WINDS"},"data":[0.0,0.0,0.0,0.0,0.0,0.0,0.0,0.0,0.0,0.0,0.0,0.0,0.0,0.0,0.0,0.0,0.0,0.0,0.0,0.0,0.0,0.0,0.0,0.0,0.0,0.0,0.0,0.0,0.0,0.0,0.0,0.0,0.0,0.0,0.0,0.0,0.0,0.0,0.0,0.0,0.0,0.0,0.0,0.0,0.0,0.0,0.0,0.0,0.0,0.0,0.0,0.0,0.0,0.0,0.0,0.0,0.0,0.0,0.0,0.0,0.0,0.0,0.0,0.0,0.0,0.0,0.0,0.0,0.0,0.0,0.0,0.0,0.0,0.0,0.0,0.0,0.0,0.0,0.0,0.0,0.0,0.0,0.0,0.0,0.0,0.0,0.0,0.0,0.0,0.0,0.0,0.0,0.0,0.0,0.0,0.0,0.0,0.0,0.0,0.0,0.0,0.0,0.0,0.0,0.0,0.0,0.0,0.0,0.0,0.0,0.0,0.0,0.0,0.0,0.0,0.0,0.0,0.0,0.0,0.0,0.0,0.0,0.0,0.0,0.0,0.0,0.0,0.0,0.0,0.0,0.0,0.0,0.0,0.0,0.0,0.0,0.0,0.0,0.0,0.0,0.0,0.0,0.0,0.0,0.0,0.0,0.0,0.0,0.0,0.0,0.0,0.0,0.0,0.0,0.0,0.0,0.0,0.0,0.0,0.0,0.0,0.0,0.0,0.0,0.0,0.0,0.0,0.0,0.0,0.0,0.0,0.0,0.0,0.0,0.0,0.0,0.0,0.0,0.0,0.0,0.0,0.0,0.0,0.0,0.0,0.0,0.0,0.0,0.0,0.0,0.0,0.0,0.0,0.0,0.0,0.0,0.0,0.0,0.0,0.0,0.0,0.0,0.0,0.0,0.0,0.0,0.0,0.0,0.0,0.0,0.0,0.0,0.0,0.0,0.0,0.0,0.0,0.0,0.0,0.0,0.0,0.0,0.0,0.0,0.0,0.0,0.0,0.0,0.0,0.0,0.0,0.0,0.0,0.0,0.0,0.0,0.0,0.0,0.0,0.0,0.0,0.0,0.0,0.0,0.0,0.0,0.0,0.0,0.0,0.0,0.0,0.0,0.0,0.0,0.0,0.0,0.0,0.0,0.0,0.0,0.0,0.0,0.0,0.0,0.0,0.0,0.0,0.0,0.0,0.0,0.0,0.0,0.0,0.0,0.0,0.0,0.0,0.0,0.0,0.0,0.0,0.0,0.0,0.0,0.0,0.0,0.0,0.0,0.0,0.0,0.0,0.0,0.0,0.0,0.0,0.0,0.0,0.0,0.0,0.0,0.0,0.0,0.0,0.0,0.0,0.0,0.0,0.0,0.0,0.0,0.0,0.0,0.0,0.0,0.0,0.0,0.0,0.0,0.0,0.0,0.0,0.0,0.0,0.0,0.0,0.0,0.0,0.0,0.0,0.0,0.0,0.0,0.0,0.0,0.0,0.0,0.0,0.0,0.0,0.0,0.0,0.0,0.0,0.0,0.0,0.0,0.0,0.0,0.0,0.0,0.0,0.0,0.0,0.0,0.0,0.0,0.0,0.0,0.0,0.0,0.0,0.0,0.0,0.0,0.0,0.0,0.0,0.0,0.0,0.0,0.0,0.0,0.0,0.0,0.0,0.0,0.0,0.0,0.0,0.0,0.0,0.0,0.0,0.0,0.0,0.0,0.0,0.0,0.0,0.0,0.0,0.0,0.0,0.0,0.0,0.0,0.0,0.0,0.0,0.0,0.0,0.0,0.0,0.0,0.0,0.0,0.0,0.0,0.0,0.0,0.0,0.0,0.0,0.0,0.0,0.0,0.0,0.0,0.0,0.0,0.0,0.0,0.0,0.0,0.0,0.0,0.0,0.0,0.0,0.0,0.0,0.0,0.0,0.0,0.0,0.0,0.0,0.0,0.0,0.0,0.0,0.0,0.0,0.0,0.0,0.0,0.0,0.0,0.0,0.0,0.0,0.0,0.0,0.0,0.0,0.0,0.0,0.0,0.0,0.0,0.0,0.0,0.0,0.0,0.0,0.0,0.0,0.0,0.0,0.0,0.0,0.0,0.0,0.0,0.0,0.0,0.0,0.0,0.0,0.0,0.0,0.0,0.0,0.0,0.0,0.0,0.0,0.0,0.0,0.0,0.0,0.0,0.0,0.0,0.0,0.0,0.0,0.0,0.0,0.0,0.0,0.0,0.0,0.0,0.0,0.0,0.0,0.0,0.0,0.0,0.0,0.0,0.0,0.0,0.0,0.0,0.0,0.0,0.0,0.0,0.0,0.0,0.0,0.0,0.0,0.0,0.0,0.0,0.0,0.0,0.0,0.0,0.0,0.0,0.0,0.0,0.0,0.0,0.0,0.0,0.0,0.0,0.0,0.0,0.0,0.0,0.0,0.0,0.0,0.0,0.0,0.0,0.0,0.0,0.0,0.0,0.0,0.0,0.0,0.0,0.0,0.0,0.0,0.0,0.0,0.0,0.0,0.0,0.0,0.0,0.0,0.0,0.0,0.0,0.0,0.0,0.0,0.0,0.0,0.0,0.0,0.0,0.0,0.0,0.0,0.0,0.0,0.0,0.0,0.0,0.0,0.0,0.0,0.0,0.0,0.0,0.0,0.0,0.0,0.0,0.0,0.0,0.0,0.0,0.0,0.0,0.0,0.0,0.0,0.0,0.0,0.0,0.0,0.0,0.0,0.0,0.0,0.0,0.0,0.0,0.0,0.0,0.0,0.0,0.0,0.0,0.0,0.0,0.0,0.0,0.0,0.0,0.0,0.0,0.0,0.0,0.0,0.0,0.0,0.0,0.0,0.0,0.0,0.0,0.0,0.0,0.0,0.0,0.0,0.0,0.0,0.0,0.0,0.0,0.0,0.0,0.0,0.0,0.0,0.0,0.0,0.0,0.0,0.0,0.0,0.0,0.0,0.0,0.0,0.0,0.0,0.0,0.0,0.0,0.0,0.0,0.0,0.0,0.0,0.0,0.0,0.0,0.0,0.0,0.0,0.0,0.0,0.0,0.0,0.0,0.0,0.0,0.0,0.0,0.0,0.0,0.0,0.0,0.0,0.0,0.0,0.0,0.0,0.0,0.0,0.0,0.0,0.0,0.0,0.0,0.0,0.0,0.0,0.0,0.0,0.0,0.0,0.0,0.0,0.0,0.0,0.0,0.0,0.0,0.0,0.0,0.0,0.0,0.0,0.0,0.0,0.0,0.0,0.0,0.0,0.0,0.0,0.0,0.0,0.0,0.0,0.0,0.0,0.0,0.0,0.0,0.0,0.0,0.0,0.0,0.0,0.0,0.0,0.0,0.0,0.0,0.0,0.0,0.0,0.0,0.0,0.0,0.0,0.0,0.0,0.0,0.0,0.0,0.0,0.0,0.0,0.0,0.0,0.0,0.0,0.0,0.0,0.0,0.0,0.0,0.0,0.0,0.0,0.0,0.0,0.0,0.0,0.0,0.0,0.0,0.0,0.0,0.0,0.0,0.0,0.0,0.0,0.0,0.0,0.0,0.0,0.0,0.0,0.0,0.0,0.0,0.0,0.0,0.0,0.0,0.0,0.0,0.0,0.0,0.0,0.0,0.0,0.0,0.0,0.0,0.0,0.0,0.0,0.0,0.0,0.0,0.0,0.0,0.0,0.0,0.0,0.0,0.0,0.0,0.0,0.0,0.0,0.0,0.0,0.0,0.0,0.0,0.0,0.0,0.0,0.0,0.0,0.0,0.0,0.0,0.0,0.0,0.0,0.0,0.0,0.0,0.0,0.0,0.0,0.0,0.0,0.0,0.0,0.0,0.0,0.0,0.0,0.0,0.0,0.0,0.0,0.0,0.0,0.0,0.0,0.0,0.0,0.0,0.0,0.0,0.0,0.0,0.0,0.0,0.0,0.0,0.0,0.0,0.0,0.0,0.0,0.0,0.0,0.0,0.0,0.0,0.0,0.0,0.0,0.0,0.0,0.0,0.0,0.0,0.0,0.0,0.0,0.0,0.0,0.0,0.0,0.0,0.0,0.0,0.0,0.0,0.0,0.0,0.0,0.0,0.0,0.0,0.0,0.0,0.0,0.0,0.0,0.0,0.0,0.0,0.0,0.0,0.0,0.0,0.0,0.0,0.0,0.0,0.0,0.0,0.0,0.0,0.0,0.0,0.0,0.0,0.0,0.0,0.0,0.0,0.0,0.0,0.0,0.0,0.0,0.0,0.0,0.0,0.0,0.0,0.0,0.0,0.0,0.0,0.0,0.0,0.0,0.0,0.0,0.0,0.0,0.0,0.0,0.0,0.0,0.0,0.0,0.0,0.0,0.0,0.0,0.0,0.0,0.0,0.0,0.0,0.0,0.0,0.0,0.0,0.0,0.0,0.0,0.0,0.0,0.0,0.0,0.0,0.0,0.0,0.0,0.0,0.0,0.0,0.0,0.0,0.0,0.0,0.0,0.0,0.0,0.0,0.0,0.0,0.0,0.0,0.0,0.0,0.0,0.0,0.0,0.0,0.0,0.0,0.0,0.0,0.0,0.0,0.0,0.0,0.0,0.0,0.0,0.0,0.0,0.0,0.0,0.0,0.0,0.0,0.0,0.0,0.0,0.0,0.0,0.0,0.0,0.0,0.0,0.0,0.0,0.0,0.0,0.0,0.0,0.0,0.0,0.0,0.0,0.0,0.0,0.0,0.0,0.0,0.0,0.0,0.0,0.0,0.0,0.0,0.0,0.0,0.0,0.0,0.0,0.0,0.0,0.0,0.0,0.0,0.0,0.0,0.0,0.0,0.0,0.0,0.0,0.0,0.0,0.0,0.0,0.0,0.0,0.0,0.0,0.0,0.0,0.0,0.0,0.0,0.0,0.0,0.0,0.0,0.0,0.0,0.0,0.0,0.0,0.0,0.0,0.0,0.0,0.0,0.0,0.0,0.0,0.0,0.0,0.0,0.0,0.0,0.0,0.0,0.0,0.0,0.0,0.0,0.0,0.0,0.0,0.0,0.0,0.0,0.0,0.0,0.0,0.0,0.0,0.0,0.0,0.0,0.0,0.0,0.0,0.0,0.0,0.0,0.0,0.0,0.0,0.0,0.0,0.0,0.0,0.0,0.0,0.0,0.0,0.0,0.0,0.0,0.0,0.0,0.0,0.0,0.0,0.0,0.0,0.0,0.0,0.0,0.0,0.0,0.0,0.0,0.0,0.0,0.0,0.0,0.0,0.0,0.0,0.0,0.0,0.0,0.0,0.0,0.0,0.0,0.0,0.0,0.0,0.0,0.0,0.0,0.0,0.0,0.0,0.0,0.0,0.0,0.0,0.0,0.0,0.0,0.0,0.0,0.0,0.0,0.0,0.0,0.0,0.0,0.0,0.0,0.0,0.0,0.0,0.0,0.0,0.0,0.0,0.0,0.0,0.0,0.0,0.0,0.0,0.0,0.0,0.0,0.0,0.0,0.0,0.0,0.0,0.0,0.0,0.0,0.0,0.0,0.0,0.0,0.0,0.0,0.0,0.0,0.0,0.0,0.0,0.0,0.0,0.0,0.0,0.0,0.0,0.0,0.0,0.0,0.0,0.0,0.0,0.0,0.0,0.0,0.0,0.0,0.0,0.0,0.0,0.0,0.0,0.0,0.0,0.0,0.0,0.0,0.0,0.0,0.0,0.0,0.0,0.0,0.0,0.0,0.0,0.0,0.0,0.0,0.0,0.0,0.0,0.0,0.0,0.0,0.0,0.0,0.0,0.0,0.0,0.0,0.0,0.0,0.0,0.0,0.0,0.0,0.0,0.0,0.0,0.0,0.0,0.0,0.0,0.0,0.0,0.0,0.0,0.0,0.0,0.0,0.0,0.0,0.0,0.0,0.0,0.0,0.0,0.0,0.0,0.0,0.0,0.0,0.0,0.0,0.0,0.0,0.0,0.0,0.0,0.0,0.0,0.0,0.0,0.0,0.0,0.0,0.0,0.0,0.0,0.0,0.0,0.0,0.0,0.0,0.0,0.0,0.0,0.0,0.0,0.0,0.0,0.0,0.0,0.0,0.0,0.0,0.0,0.0,0.0,0.0,0.0,0.0,0.0,0.0,0.0,0.0,0.0,0.0,-0.9893,-0.9578,0.0,0.0,0.0,0.0,0.0,0.0,0.0,0.0,0.0,0.0,0.0,0.0,0.0,0.0,0.0,0.0,0.0,0.0,0.0,0.0,0.0,0.0,0.0,-0.6084,-0.6084,-0.6084,-0.6084,0.0,0.0,0.0,0.0,0.0,0.0,0.0,0.0,0.0,-0.7118,-0.7285,-0.7373,-0.768,-0.8156,-0.8033,-0.7895,-0.772,0.0,0.0,0.0,0.0,0.0,0.0,0.0,0.0,0.0,0.0,0.0,0.0,0.0,0.0,0.0,0.0,0.0,0.0,0.0,0.0,0.0,0.0,0.0,0.0,0.0,0.0,0.0,0.0,0.0,0.0,0.0,0.0,0.0,0.0,0.0,0.0,0.0,0.0,0.0,0.0,0.0,0.0,0.0,0.0,0.0,0.0,0.0,0.0,0.0,0.0,0.0,0.0,0.0,0.0,0.0,0.0,0.0,0.0,0.0,0.0,0.0,0.0,0.0,0.0,0.0,0.0,0.0,0.0,0.0,0.0,-1.0163,-0.9986,0.0,0.0,0.0,0.0,0.0,0.0,0.0,0.0,0.0,0.0,0.0,0.0,0.0,0.0,0.0,0.0,0.0,0.0,0.0,0.0,0.0,-0.6084,-0.6582,-0.6641,-0.667,-0.6738,-0.6748,-0.6719,-0.6641,-0.6641,0.0,0.0,0.0,0.0,-0.7314,-0.7773,-0.7979,-0.7806,-0.8356,-0.8676,-0.8741,-0.8803,-0.8489,-0.7916,-0.7945,0.0,0.0,0.0,0.0,0.0,0.0,0.0,0.0,0.0,0.0,0.0,0.0,0.0,0.0,0.0,0.0,0.0,0.0,0.0,0.0,0.0,0.0,0.0,0.0,0.0,0.0,0.0,0.0,0.0,0.0,0.0,0.0,0.0,0.0,0.0,0.0,0.0,0.0,0.0,0.0,0.0,0.0,0.0,0.0,0.0,0.0,0.0,0.0,0.0,0.0,0.0,0.0,0.0,0.0,0.0,0.0,0.0,0.0,0.0,0.0,0.0,0.0,0.0,-1.0374,-1.0548,-1.0853,-1.0907,-1.0934,-1.09,-1.0347,-1.0373,-1.0683,-1.0683,0.0,0.0,0.0,0.0,0.0,0.0,0.0,0.0,0.0,0.0,0.0,0.0,0.0,0.0,0.0,0.0,0.0,0.0,0.0,-0.6641,-0.7433,-0.753,-0.7705,-0.8086,-0.8146,-0.7959,-0.7549,-0.753,0.0,0.0,0.0,-0.8175,-0.8244,-0.8975,-0.9262,-0.905,-0.879,-0.8463,-0.8057,-0.8324,-0.8406,-0.8359,-0.861,-0.8749,-0.8611,0.0,0.0,0.0,0.0,0.0,0.0,0.0,0.0,0.0,0.0,0.0,0.0,0.0,0.0,0.0,0.0,0.0,0.0,0.0,0.0,0.0,0.0,0.0,0.0,0.0,0.0,0.0,0.0,0.0,0.0,0.0,0.0,0.0,0.0,0.0,0.0,0.0,0.0,0.0,0.0,0.0,-0.9207,-0.876,0.0,0.0,0.0,0.0,0.0,0.0,0.0,0.0,0.0,0.0,0.0,0.0,0.0,-1.0127,-1.0381,-1.0675,-1.0842,-1.0882,-1.1396,-1.1657,-1.1703,-1.1957,-1.2071,-1.2071,-1.1991,0.0,-1.0628,-1.0628,0.0,0.0,0.0,0.0,0.0,0.0,0.0,0.0,0.0,0.0,0.0,0.0,0.0,0.0,0.0,0.0,0.0,0.0,0.0,0.0,0.0,-0.8415,-0.8525,-0.8711,-0.873,-0.8652,-0.8457,-0.8629,0.0,0.0,-0.9219,-0.9561,-0.9795,-0.9761,-0.96,-0.9231,-0.8922,-0.87,-0.8619,-0.8971,-0.9112,-0.9146,-0.9064,-0.8911,-0.8591,-0.8164,0.0,0.0,0.0,0.0,0.0,0.0,0.0,0.0,0.0,0.0,0.0,0.0,0.0,0.0,0.0,0.0,0.0,0.0,0.0,0.0,0.0,0.0,0.0,0.0,0.0,0.0,0.0,0.0,0.0,0.0,0.0,0.0,0.0,0.0,0.0,0.0,0.0,0.0,0.0,-0.926,-0.8918,-0.8971,-0.9562,-0.9894,0.0,0.0,0.0,0.0,0.0,0.0,0.0,0.0,0.0,-1.1024,-1.089,-1.0995,-1.1364,-1.1583,-1.181,-1.1984,-1.2311,-1.2452,-1.2625,-1.2752,-1.2812,-1.2812,-1.2812,-1.2525,-1.2011,-1.1503,-1.1364,-1.1317,0.0,0.0,0.0,0.0,-1.1398,-1.1577,0.0,0.0,0.0,0.0,0.0,0.0,0.0,0.0,0.0,0.0,0.0,0.0,-0.9082,-0.9268,-0.9375,-0.9482,-0.96,-0.9658,-0.9658,-0.9951,-1.0127,-1.0127,-1.0439,-1.0752,-1.1064,-1.0407,-0.9883,-0.9488,-0.9196,-0.9138,-0.9359,-0.9579,-0.9686,-0.9673,-0.9452,-0.9072,-0.8608,-0.8289,-0.8253,-0.8355,0.0,0.0,0.0,0.0,0.0,0.0,0.0,0.0,0.0,0.0,0.0,0.0,0.0,0.0,0.0,0.0,0.0,0.0,0.0,0.0,0.0,0.0,0.0,0.0,0.0,0.0,0.0,0.0,0.0,0.0,0.0,0.0,0.0,0.0,0.0,0.0,0.0,-0.9235,-0.8784,-0.9292,-0.9785,-1.0234,0.0,0.0,0.0,0.0,0.0,0.0,-1.0448,-1.0735,-1.1062,-1.143,-1.165,-1.1911,-1.2211,-1.2498,-1.2759,-1.2979,-1.3126,-1.332,-1.3547,-1.3621,-1.3661,-1.3661,-1.3661,-1.3661,-1.3587,-1.2612,-1.2211,-1.2231,-1.2179,-1.2233,-1.219,-1.1875,-1.1768,-1.1703,0.0,0.0,0.0,0.0,0.0,0.0,0.0,0.0,0.0,0.0,0.0,-0.9111,-0.9515,-0.9971,-1.0381,-1.0781,-1.1191,-1.1479,-1.1479,-1.1498,-1.1508,-1.1508,-1.1528,-1.1547,-1.1567,-1.0915,-1.0466,-1.0262,-0.9826,-0.9646,-0.9659,-0.9679,-0.9686,-0.9686,-0.9666,-0.9486,-0.9103,-0.8629,-0.8665,-0.9085,-0.8377,0.0,0.0,0.0,0.0,0.0,0.0,0.0,0.0,0.0,0.0,0.0,0.0,0.0,0.0,0.0,0.0,0.0,0.0,0.0,0.0,0.0,0.0,0.0,0.0,0.0,0.0,0.0,0.0,0.0,0.0,0.0,0.0,0.0,0.0,0.0,0.0,0.0,0.0,-0.9626,-0.9717,0.0,0.0,0.0,0.0,-1.0557,-1.0846,-1.1069,-1.1343,-1.1643,-1.2064,-1.2714,-1.2748,-1.2832,-1.314,-1.3427,-1.3499,-1.3607,-1.4162,-1.4442,-1.4462,-1.4743,-1.4877,-1.4877,-1.4877,-1.4877,-1.4783,-1.3627,-1.314,-1.3113,-1.2856,-1.2728,-1.2694,-1.2399,-1.2284,-1.2284,0.0,0.0,0.0,-0.5498,-0.5695,-0.6048,-0.6748,-0.7326,-0.8046,-0.9053,-0.9316,-0.9785,-1.0762,-1.0384,-1.0396,-1.1289,-1.1117,-1.1148,-1.1553,-1.1826,-1.1992,-1.1992,-1.252,-1.2478,-1.1799,-1.1062,-1.0494,-1.0144,-1.0221,-1.0341,-1.0528,-1.0715,-1.0802,-1.0795,-1.0608,-1.0468,-1.0321,-0.9546,-0.9207,-0.9203,-0.9084,-0.9219,0.0,0.0,0.0,0.0,0.0,0.0,0.0,0.0,0.0,0.0,0.0,0.0,0.0,0.0,0.0,0.0,0.0,0.0,0.0,0.0,0.0,0.0,0.0,0.0,0.0,0.0,0.0,0.0,0.0,0.0,0.0,0.0,0.0,0.0,0.0,0.0,0.0,-1.0214,-1.0414,0.0,-1.0929,-1.1136,-1.1289,-1.1396,-1.185,-1.2164,-1.2271,-1.2746,-1.3106,-1.332,-1.3687,-1.3941,-1.4048,-1.4342,-1.4496,-1.4496,-1.471,-1.4803,-1.481,-1.4917,-1.4963,-1.4963,-1.4963,-1.4963,-1.493,-1.4509,-1.4222,-1.4021,-1.3721,-1.3607,-1.3594,-1.3487,-1.3447,-1.3447,0.0,0.0,0.0,-0.5725,-0.5921,-0.6289,-0.7178,-0.7763,-0.8483,-0.9466,-0.9845,-1.0391,-1.1292,-1.095,-1.0976,-1.1758,-1.1552,-1.1639,-1.2207,-1.25,-1.2725,-1.2813,-1.3154,-1.2762,-1.1671,-1.1236,-1.0816,-1.0414,-1.0708,-1.0949,-1.1142,-1.1336,-1.1423,-1.1416,-1.1223,-1.1136,-1.1102,-1.0521,-0.9987,-0.9506,-0.959,-0.9595,-0.9554,0.0,0.0,0.0,0.0,0.0,0.0,0.0,0.0,0.0,0.0,0.0,0.0,0.0,0.0,0.0,0.0,0.0,0.0,0.0,0.0,0.0,0.0,0.0,0.0,0.0,0.0,0.0,0.0,0.0,0.0,0.0,0.0,0.0,0.0,-1.0485,-1.0448,-1.1008,-1.1176,-1.1443,-1.183,-1.2051,-1.2251,-1.2452,-1.2826,-1.3133,-1.3333,-1.3721,-1.3981,-1.4088,-1.4469,-1.4669,-1.4669,-1.4963,-1.511,-1.511,-1.5211,-1.5257,-1.5257,-1.5257,-1.5257,-1.5257,-1.5257,-1.5257,-1.5257,-1.5257,-1.5144,-1.4923,-1.4536,-1.4382,-1.4382,-1.4382,-1.4382,-1.4382,0.0,0.0,-0.5253,-0.5744,-0.6143,-0.6709,-0.7579,-0.8467,-0.916,-0.9554,-1.0391,-1.0918,-1.0947,-1.1674,-1.219,-1.22,-1.2637,-1.3057,-1.3477,-1.3506,-1.3649,-1.4077,-1.3286,-1.2344,-1.1182,-1.1453,-1.1411,-1.1035,-1.1316,-1.1463,-1.1483,-1.1483,-1.1483,-1.1483,-1.1483,-1.1483,-1.1476,-1.1463,-1.0962,-1.0154,-0.984,-0.9974,-1.0253,0.0,0.0,0.0,0.0,0.0,0.0,0.0,0.0,0.0,0.0,0.0,0.0,0.0,0.0,0.0,0.0,0.0,0.0,0.0,0.0,0.0,0.0,0.0,0.0,0.0,0.0,0.0,0.0,0.0,0.0,0.0,0.0,0.0,-1.1483,-1.1024,-1.0994,-1.1784,-1.1897,-1.2138,-1.2795,-1.2856,-1.3033,-1.3627,-1.3681,-1.3935,-1.4502,-1.4543,-1.4676,-1.497,-1.4983,-1.499,-1.499,-1.5271,-1.5411,-1.5418,-1.5698,-1.5832,-1.5832,-1.5838,-1.5845,-1.5845,-1.5852,-1.5852,-1.5852,-1.5852,-1.5852,-1.5798,-1.5217,-1.499,-1.499,-1.499,-1.499,-1.499,-0.5176,-0.5108,-0.5341,-0.6104,-0.6328,-0.6816,-0.8018,-0.8662,-0.9268,-1.001,-1.0576,-1.1152,-1.1752,-1.1639,-1.1808,-1.2628,-1.2355,-1.2482,-1.3426,-1.3506,-1.3566,-1.3718,-1.2613,-1.1959,-1.1918,-1.1608,-1.1635,-1.1944,-1.2024,-1.2285,-1.2719,-1.2719,-1.2719,-1.2719,-1.2719,-1.2719,-1.2692,-1.2251,-1.1924,-1.1623,-1.0695,-1.0255,-1.0186,0.0,0.0,0.0,0.0,0.0,0.0,0.0,0.0,0.0,0.0,0.0,0.0,0.0,0.0,0.0,0.0,0.0,0.0,0.0,0.0,0.0,0.0,0.0,0.0,0.0,0.0,0.0,0.0,0.0,0.0,0.0,-1.1053,-1.1176,-1.1156,-1.1553,-1.1911,-1.2151,-1.2572,-1.2986,-1.336,-1.3594,-1.3874,-1.4249,-1.4476,-1.4669,-1.4836,-1.5044,-1.519,-1.5277,-1.5484,-1.5591,-1.5591,-1.5671,-1.5712,-1.5712,-1.5792,-1.5832,-1.5838,-1.6052,-1.6152,-1.6159,-1.6373,-1.6466,-1.6466,-1.6466,-1.6466,-1.6406,-1.5818,-1.5591,-1.5591,-1.5591,-1.5591,-1.5591,-0.5195,-0.5253,-0.5615,-0.6289,-0.6572,-0.7139,-0.8447,-0.8848,-0.9316,-1.0176,-1.0811,-1.1377,-1.1895,-1.193,-1.2196,-1.2861,-1.2672,-1.2846,-1.3688,-1.3781,-1.3699,-1.3493,-1.2429,-1.1941,-1.2066,-1.1908,-1.2024,-1.2485,-1.2619,-1.2866,-1.3213,-1.3213,-1.3213,-1.3213,-1.3213,-1.3213,-1.3186,-1.2832,-1.2605,-1.2418,-1.1617,-1.0895,-1.0342,-1.0583,-1.0414,-1.0043,-1.0028,-0.9896,-0.9715,-0.9483,0.0,0.0,0.0,0.0,0.0,0.0,0.0,0.0,0.0,0.0,0.0,0.0,0.0,0.0,0.0,0.0,0.0,0.0,0.0,0.0,0.0,0.0,0.0,0.0,-1.1696,-1.1864,-1.2078,-1.2325,-1.2625,-1.3006,-1.336,-1.3741,-1.4155,-1.4355,-1.4576,-1.4863,-1.505,-1.5197,-1.5317,-1.5484,-1.5578,-1.5578,-1.5745,-1.5885,-1.6012,-1.6012,-1.6079,-1.6199,-1.6199,-1.6199,-1.6199,-1.6373,-1.6453,-1.6466,-1.6633,-1.6707,-1.6707,-1.6707,-1.6707,-1.6673,0.0,0.0,0.0,0.0,-1.6199,-1.6199,-0.5283,-0.5518,-0.5931,-0.6328,-0.6797,-0.7529,-0.8809,-0.9004,-0.9316,-1.0176,-1.1067,-1.1606,-1.1606,-1.24,-1.2881,-1.2881,-1.3262,-1.3711,-1.418,-1.4029,-1.377,-1.3394,-1.2546,-1.2009,-1.1928,-1.2184,-1.2498,-1.2876,-1.3106,-1.3273,-1.3307,-1.3307,-1.3307,-1.3307,-1.3307,-1.3307,-1.3307,-1.3273,-1.31,-1.2896,-1.2485,-1.169,-1.0772,-1.0675,-1.0294,-0.9746,-0.9486,-0.9289,-0.926,-0.9204,0.0,0.0,0.0,0.0,0.0,0.0,0.0,0.0,0.0,0.0,0.0,0.0,0.0,0.0,0.0,0.0,0.0,0.0,0.0,0.0,0.0,0.0,0.0,0.0,-1.2684,-1.2779,-1.3581,-1.3293,-1.336,-1.4041,-1.4168,-1.4402,-1.4957,-1.5017,-1.5137,-1.5424,-1.5444,-1.5558,-1.5812,-1.5865,0.0,0.0,0.0,-1.6052,-1.6319,-1.6326,-1.6446,-1.6707,-1.6707,-1.6707,-1.6707,-1.674,-1.676,-1.676,-1.6787,-1.6807,-1.6807,-1.6807,-1.6807,-1.6794,-1.6734,-1.6707,-1.6707,-1.6707,-1.6707,-1.6707,-0.5811,-0.5744,-0.5931,-0.6328,-0.6797,-0.7529,-0.8809,-0.9004,-0.9316,-1.0176,-1.1067,-1.1606,-1.1606,-1.24,-1.2881,-1.2881,-1.3262,-1.3838,-1.4609,-1.316,-1.2601,-1.3394,-1.2189,-1.1641,-1.1864,-1.2459,-1.2812,-1.312,-1.3414,-1.3681,-1.3921,-1.3921,-1.3921,-1.3921,-1.3921,-1.3921,-1.3901,-1.3661,-1.3527,-1.342,-1.2879,-1.2318,-1.159,-1.1349,-1.0895,-1.045,-1.0327,-1.0,-0.9539,-0.9295,-0.9173,-0.9173,-0.8978,-0.8767,0.0,0.0,0.0,0.0,0.0,0.0,0.0,0.0,0.0,0.0,0.0,0.0,0.0,0.0,0.0,0.0,0.0,0.0,0.0,-1.2476,-1.3151,-1.3801,-1.3975,-1.4309,-1.4509,-1.4442,-1.4649,-1.493,-1.5277,-1.5311,-1.5431,-1.5725,-1.5745,-1.5772,-1.5825,-1.6059,-1.6186,-1.6186,-1.6413,-1.6567,-1.662,-1.662,-1.6653,-1.6707,-1.6707,0.0,-1.6714,-1.6954,-1.7061,-1.7074,-1.7308,-1.7415,-1.7415,-1.7415,-1.7415,-1.7368,-1.6894,-1.6707,-1.6707,-1.6707,-1.6707,-1.6707,-0.6523,-0.6445,-0.6504,-0.6719,-0.7119,-0.7773,-0.8838,-0.9004,-0.9316,-1.0176,-1.1067,-1.1606,-1.1606,-1.24,-1.2881,-1.2881,-1.309,-1.3577,-1.4448,-1.2825,-1.2185,-1.3022,-1.2013,-1.1637,-1.2078,-1.2672,-1.3053,-1.3213,-1.3654,-1.3941,-1.4088,-1.4088,-1.4088,-1.4088,-1.4088,-1.4088,-1.4075,-1.3928,-1.3781,-1.3519,-1.316,-1.2712,-1.2331,-1.1817,-1.1283,-1.0755,-1.0672,-1.0274,-0.9853,-0.9559,-0.9459,-0.9412,-0.9112,-0.8925,-0.8778,0.0,0.0,0.0,0.0,0.0,0.0,0.0,0.0,0.0,0.0,0.0,0.0,0.0,0.0,-1.2094,-1.2164,0.0,-1.3195,-1.3198,-1.3701,-1.4242,-1.4683,-1.4997,-1.5124,-1.4977,-1.509,-1.5297,-1.5585,-1.5611,-1.5671,-1.5818,-1.5965,-1.6052,-1.6052,-1.6326,-1.6486,-1.6486,-1.6627,-1.6774,-1.6927,-1.6927,-1.7001,-1.7141,-1.7141,-1.7141,-1.7148,-1.7301,-1.7368,-1.7375,-1.7522,-1.7582,-1.7595,-1.7749,-1.7903,-1.8009,-1.7716,-1.7415,-1.7141,-1.7141,-1.7141,-1.7141,-0.7217,-0.7217,-0.7197,-0.7119,-0.7423,-0.7987,-0.8877,-0.9004,-0.9316,-1.0176,-1.0998,-1.1508,-1.1596,-1.2322,-1.2822,-1.2988,-1.2764,-1.3026,-1.4042,-1.2461,-1.1821,-1.2684,-1.1901,-1.1697,-1.2285,-1.2839,-1.3153,-1.3213,-1.3741,-1.4035,-1.4088,-1.4088,-1.4088,-1.4088,-1.4088,-1.4088,-1.4088,-1.4088,-1.3915,-1.3621,-1.3327,-1.3026,-1.2761,-1.2158,-1.1623,-1.1122,-1.0835,-1.0541,-1.0234,-0.9886,-0.9766,-0.9713,-0.9419,-0.9325,-0.9279,-0.9045,-0.8978,0.0,0.0,0.0,0.0,0.0,0.0,0.0,0.0,-1.0697,-1.1126,-1.1242,-1.1436,-1.1777,-1.2371,-1.2766,-1.324,-1.3975,-1.4229,-1.4589,-1.5297,-1.5444,-1.5478,-1.5478,-1.5478,-1.5571,-1.5805,-1.5879,-1.5912,-1.5912,-1.6192,-1.6359,-1.6359,-1.6633,-1.6794,-1.6794,-1.6847,-1.6994,-1.7235,-1.7235,-1.7355,-1.7582,-1.7582,-1.7615,-1.7669,-1.7669,-1.7702,-1.7762,-1.7762,-1.7762,-1.7776,-1.8029,-1.8277,-1.849,-1.849,-1.819,-1.7762,-1.7762,-1.7762,-1.7762,-0.7627,-0.7627,-0.7511,-0.7168,-0.7423,-0.7987,-0.8877,-0.9004,-0.9316,-1.0176,-1.0693,-1.1133,-1.1557,-1.2002,-1.2607,-1.3369,-1.2236,-1.2121,-1.3588,-1.1577,-1.1038,-1.2609,-1.1901,-1.1697,-1.2285,-1.2625,-1.2933,-1.3213,-1.3534,-1.3828,-1.4088,-1.4088,-1.4088,-1.4088,-1.4088,-1.4088,-1.4088,-1.4088,-1.3915,-1.3621,-1.3327,-1.3026,-1.2788,-1.2378,-1.2051,-1.1737,-1.1436,-1.1142,-1.0808,-1.0254,-1.0067,-1.002,-0.9726,-0.9633,-0.9626,-0.9593,-0.9586,-0.9751,-1.0357,-1.0549,-1.0594,-1.0219,-1.0241,-1.039,0.0,-1.0954,-1.1196,-1.1984,-1.2184,-1.2392,-1.2999,-1.3561,-1.3975,-1.4068,-1.4743,-1.5284,-1.5384,-1.5618,-1.5785,-1.5785,-1.5785,-1.5792,-1.5825,-1.6072,-1.6226,-1.6226,-1.6493,-1.666,-1.666,-1.6941,-1.7101,-1.7101,-1.7348,-1.7502,-1.7528,-1.7535,-1.7549,-1.7582,-1.7582,-1.7729,-1.7996,-1.7996,-1.8136,-1.839,-1.839,-1.839,-1.839,-1.843,-1.8464,-1.849,-1.849,-1.845,-1.839,-1.839,-1.839,-1.839,-0.7695,-0.7695,-0.7637,-0.7462,-0.7588,-0.79,-0.8545,-0.8848,-0.9219,-0.9824,-1.0488,-1.0977,-1.1162,-1.1807,-1.2568,-1.3428,-1.2166,-1.1734,-1.2828,-1.1115,-1.0559,-1.1675,-1.154,-1.1623,-1.2044,-1.258,-1.2889,-1.2939,-1.3247,-1.3454,-1.3574,-1.3574,-1.3574,-1.3574,-1.3574,-1.3574,-1.3574,-1.3574,-1.3507,-1.3367,-1.306,-1.2866,-1.2788,-1.2418,-1.2124,-1.1857,-1.173,-1.1496,0.0,-1.0768,-1.0628,-1.0541,-1.008,-0.9933,-0.9933,-0.9933,-0.9933,-1.0067,-1.0712,-1.0864,-1.0878,-1.0866,-1.0882,-1.1035,-1.1623,-1.1757,-1.1957,-1.2685,-1.2966,-1.3213,-1.3641,-1.4062,-1.4449,-1.479,-1.5157,-1.5451,-1.5625,-1.5752,-1.5832,-1.5832,-1.5979,-1.6086,-1.6086,-1.6199,-1.6339,-1.6513,-1.6794,-1.6967,-1.6967,-1.7241,-1.7402,-1.7402,-1.7515,-1.7582,-1.7582,-1.7762,-1.7856,-1.7856,-1.8029,-1.8183,-1.8303,-1.8303,-1.837,-1.849,-1.849,-1.8591,-1.8744,-1.8744,-1.8844,-1.9005,-1.9005,-1.9005,-1.8958,-1.8617,-1.849,-1.849,-0.7695,-0.7695,-0.7695,-0.7695,-0.7695,-0.7841,-0.8311,-0.8633,-0.9023,-0.9524,-1.0137,-1.0693,-1.1055,-1.1777,-1.2529,-1.3271,-1.2162,-1.1643,-1.2077,-1.0938,-1.0438,-1.0848,-1.1149,-1.1443,-1.1744,-1.2245,-1.262,-1.2625,-1.2933,-1.3126,-1.3213,-1.3213,-1.3213,-1.3213,-1.3213,-1.3213,-1.3213,-1.3213,-1.316,-1.3066,-1.2916,-1.2721,-1.2553,-1.2265,-1.2004,-1.1757,-1.1837,-1.1886,-1.1716,-1.1155,-1.1186,-1.1221,-1.0456,-1.0294,-1.0361,-1.0361,-1.0474,-1.0675,-1.1015,-1.1169,-1.1303,-1.1597,-1.1663,-1.1824,-1.2418,-1.2552,-1.2699,-1.322,-1.3561,-1.3854,-1.4148,-1.4509,-1.4897,-1.5324,-1.5464,-1.5585,-1.5798,-1.5832,-1.5858,-1.5939,-1.6146,-1.6333,-1.65,-1.6513,-1.66,-1.6814,-1.7101,-1.7268,-1.7268,-1.7468,-1.7622,-1.7709,-1.7709,-1.7749,-1.7836,-1.8056,-1.817,-1.817,-1.8384,-1.8537,-1.8611,-1.8698,-1.8731,-1.8731,-1.8731,-1.8851,-1.9045,-1.9045,-1.9172,-1.9366,-1.9366,-1.9366,-1.9319,-1.8891,-1.8731,-1.8731,-0.7695,-0.7695,-0.7695,-0.7695,-0.7695,-0.7841,-0.8311,-0.842,-0.8691,-0.9485,-0.9622,-1.0146,-1.1449,-1.1953,-1.2412,-1.2861,-1.2206,-1.165,-1.1374,-1.0908,-1.0644,-1.0611,-1.0855,-1.1142,-1.143,-1.1737,-1.2037,-1.2318,-1.2612,-1.2913,-1.3213,-1.3213,-1.3213,-1.3213,-1.3213,-1.3213,-1.3213,-1.3213,-1.3033,-1.2835,-1.2829,-1.2479,-1.1897,-1.1891,-1.1697,-1.1476,-1.1764,-1.2297,-1.2662,-1.1421,-1.1572,-1.2156,-1.0953,-1.0742,-1.0969,-1.0969,-1.1369,-1.1757,-1.1483,-1.1623,-1.1911,-1.2204,-1.2278,-1.2438,-1.3046,-1.318,-1.3267,-1.3567,-1.3868,-1.4162,-1.4456,-1.4977,-1.5378,-1.5391,-1.5631,-1.5818,-1.5832,-1.5832,-1.5939,-1.6226,-1.6266,-1.6493,-1.7068,-1.7121,-1.723,-1.7134,-1.7408,-1.7569,-1.7569,-1.7582,-1.7722,-1.8023,-1.8029,-1.817,-1.8464,-1.847,-1.8477,-1.8477,-1.849,-1.8637,-1.8918,-1.9205,-1.9339,-1.9339,-1.9339,-1.9345,-1.9352,-1.9352,-1.9359,-1.9366,-1.9366,-1.9366,-1.9366,-1.9352,-1.9339,-1.9339,-0.7695,-0.7695,-0.7695,-0.7695,-0.7695,-0.7744,-0.792,-0.8193,-0.8509,-0.877,-0.9287,0.0,0.0,0.0,0.0,0.0,-1.1788,-1.1567,-1.1922,-1.1004,-1.0504,-1.0644,-1.0684,-1.0755,-1.0848,-1.1329,-1.1623,-1.1724,-1.1824,-1.1924,-1.2031,-1.2231,-1.2325,-1.2325,-1.2325,-1.2325,-1.2305,-1.2111,-1.1964,-1.187,-1.187,-1.175,-1.1577,-1.1577,-1.139,-1.1176,0.0,-1.206,-1.2662,-1.1992,-1.2006,-1.2178,-1.1818,-1.1351,-1.1102,-1.169,-1.2138,-1.2472,-1.2585,-1.2532,-1.2525,-1.2832,-1.2906,-1.3013,-1.3407,-1.35,-1.3581,-1.3874,-1.4168,-1.4462,-1.4763,-1.513,-1.5458,-1.5651,-1.5765,-1.5832,-1.5832,-1.5832,-1.5939,-1.6239,-1.644,-1.6714,-1.7114,-1.7148,-1.7228,-1.7422,-1.7528,-1.7669,-1.7883,-1.7889,-1.8029,-1.833,-1.8343,-1.839,-1.849,-1.8684,-1.8778,-1.8778,-1.8978,-1.9125,-1.9225,-1.9325,-1.9366,-1.9366,-1.9366,-1.9366,-1.9366,-1.9366,-1.9366,-1.9366,-1.9366,-1.9366,-1.9366,-1.9366,-1.9366,-1.9366,0.0,-0.7695,-0.7695,-0.7695,-0.7832,0.0,0.0,0.0,0.0,0.0,0.0,0.0,0.0,0.0,0.0,0.0,0.0,-1.1728,-1.2082,-1.1414,-1.0996,-1.094,-1.0968,-1.1013,-1.1013,-1.1568,-1.189,-1.189,-1.1857,-1.1833,-1.184,-1.1756,-1.171,-1.171,-1.171,-1.171,-1.1697,-1.151,-1.161,-1.1864,-1.1436,-1.1396,-1.1536,-1.1116,-1.0775,0.0,-1.0735,-1.1311,-1.203,-1.1833,-1.2006,-1.2201,-1.1877,-1.1657,-1.157,-1.2138,-1.2665,-1.306,-1.3053,-1.3053,-1.3113,-1.3313,-1.3367,-1.344,-1.3734,-1.3801,-1.3854,-1.4048,-1.4402,-1.4736,-1.493,-1.5284,-1.5611,-1.5798,-1.5832,-1.5832,-1.5832,-1.5832,-1.5979,-1.638,-1.6593,-1.686,-1.7261,-1.7301,-1.7382,-1.7569,-1.7689,-1.7836,-1.8036,-1.8143,-1.8343,-1.8637,-1.8644,-1.8698,-1.8804,-1.8991,-1.9085,-1.9085,-1.9279,-1.9366,-1.9366,-1.9366,-1.9366,-1.9366,-1.9366,-1.9366,-1.9366,-1.9366,-1.9366,-1.9366,-1.9366,-1.9366,-1.9366,-1.9366,-1.9366,-1.9366,0.0,0.0,-0.7705,0.0,0.0,0.0,0.0,0.0,0.0,0.0,0.0,0.0,0.0,0.0,0.0,0.0,0.0,0.0,-1.1859,-1.2133,-1.1992,-1.1333,-1.157,-1.1703,-1.1703,-1.2403,-1.2708,-1.2708,-1.2695,-1.2617,-1.255,-1.1757,-1.1356,-1.1356,-1.1356,-1.1356,-1.1356,-1.1343,-1.1824,-1.2567,-1.1376,-1.1263,-1.1637,-1.0521,-0.992,-0.9686,-0.9737,-1.0243,-1.0877,-1.0967,-1.1623,-1.2245,-1.1338,-1.1617,-1.2325,-1.2345,-1.2953,-1.3507,-1.2959,-1.322,-1.3566,-1.3579,-1.3667,-1.3741,-1.4021,-1.4088,-1.4088,-1.4088,-1.4543,-1.4943,-1.4963,-1.5424,-1.5812,-1.5825,-1.5832,-1.5832,-1.5832,-1.5832,-1.6046,-1.6633,-1.6707,-1.6934,-1.7522,-1.7582,-1.7589,-1.7602,-1.7883,-1.8063,-1.809,-1.8364,-1.8644,-1.8938,-1.8945,-1.9085,-1.9366,-1.9366,-1.9366,-1.9366,-1.9366,-1.9366,-1.9366,-1.9366,-1.9366,-1.9366,-1.9366,-1.9366,-1.9366,-1.9366,-1.9372,-1.9392,-1.9392,-1.9399,-1.9412,-1.9412,-1.9412,-1.9412,0.0,0.0,0.0,0.0,0.0,0.0,0.0,0.0,0.0,0.0,0.0,0.0,0.0,0.0,0.0,0.0,0.0,0.0,-1.2063,-1.2015,-1.1867,-1.1666,-1.1511,-1.139,-1.139,-1.1776,-1.2004,-1.2004,-1.1958,-1.1701,-1.1189,-1.1182,-1.0933,-1.0448,-1.0448,-1.0448,-1.0434,-1.0221,-1.0261,-1.0441,-1.014,-1.0107,-1.0207,-0.9907,-0.9746,-0.9737,-1.0301,-1.0236,-1.014,-1.0948,-1.1843,-1.2454,-1.158,-1.1924,-1.2679,-1.2913,-1.314,-1.338,-1.3667,-1.3694,-1.3694,-1.3915,-1.3975,-1.3995,-1.4068,-1.4088,-1.4088,-1.4088,-1.4376,-1.4703,-1.4923,-1.5264,-1.5578,-1.5792,-1.5832,-1.5832,-1.5832,-1.5832,-1.6046,-1.6633,-1.6707,-1.6934,-1.7522,-1.7582,-1.7675,-1.7909,-1.8003,-1.8237,-1.8677,-1.8771,-1.8945,-1.9245,-1.9252,-1.9292,-1.9366,-1.9366,-1.9366,-1.9366,-1.9366,-1.9366,-1.9366,-1.9366,-1.9366,-1.9366,-1.9366,-1.9366,-1.9366,-1.9366,-1.9492,-1.9686,-1.9686,-1.982,-2.0013,-2.0013,-2.0013,-2.0013,0.0,0.0,0.0,0.0,0.0,0.0,0.0,0.0,0.0,0.0,0.0,0.0,0.0,0.0,0.0,0.0,0.0,0.0,0.0,-1.194,-1.1966,-1.1966,-1.2009,-1.2022,-1.2022,-1.2343,-1.2484,-1.2484,-1.2324,-1.2022,-1.164,-1.1482,-1.1171,-1.0777,-1.0777,-1.0777,-1.0763,-1.0314,-1.0359,0.0,0.0,-0.9719,-1.0013,-0.9492,-0.9299,-0.9403,-1.0046,-1.0219,-1.0214,-1.0493,-1.1276,-1.2037,-1.156,-1.2031,-1.2856,-1.2959,-1.3193,-1.3474,-1.3801,-1.3868,-1.3881,-1.4048,-1.4088,-1.4088,-1.4088,-1.4088,-1.4088,-1.4088,-1.4315,-1.4569,-1.4736,-1.511,-1.5451,-1.5611,-1.5745,-1.5832,-1.5832,-1.5832,-1.6046,-1.6633,-1.6707,-1.6934,-1.7522,-1.7709,-1.7916,-1.8217,-1.8243,-1.8437,-1.8898,-1.9045,-1.9192,-1.9366,-1.9366,-1.9366,-1.9366,-1.9366,-1.9366,-1.9366,-1.9366,-1.9366,-1.9366,-1.9366,-1.9432,-1.9559,-1.9559,-1.9633,-1.9746,-1.9746,-1.9846,-1.9993,-1.9993,-2.0087,-2.0234,-2.0234,-2.0234,-2.0254,0.0,0.0,0.0,0.0,0.0,0.0,0.0,0.0,0.0,0.0,0.0,-0.9699,-0.9758,-1.0088,0.0,0.0,0.0,0.0,0.0,0.0,-1.2139,-1.2139,-1.2559,-1.2793,-1.2793,-1.3213,-1.3418,-1.3418,-1.3088,-1.2878,-1.2761,-1.2028,-1.1699,-1.1589,-1.1478,-1.1423,-1.1423,-1.0826,-1.1041,-1.1582,-1.003,-0.9863,-1.039,0.0,-0.8857,-0.891,-0.9562,-1.0156,-1.0571,-1.0006,-1.0497,-1.1376,-1.1416,-1.1977,-1.2721,-1.2802,-1.3146,-1.3512,-1.3552,-1.3861,-1.4088,-1.4088,-1.4088,-1.4088,-1.4088,-1.4088,-1.4075,-1.4035,-1.4229,-1.4416,-1.4456,-1.4877,-1.5264,-1.5378,-1.5611,-1.5785,-1.5818,-1.5832,-1.6046,-1.6633,-1.6707,-1.6934,-1.7522,-1.7862,-1.817,-1.847,-1.8524,-1.8677,-1.8965,-1.9225,-1.9366,-1.9366,-1.9366,-1.9366,-1.9366,-1.9366,-1.9366,-1.9366,-1.9366,-1.9392,-1.9426,-1.9426,-1.9586,-1.986,-1.986,-2.0,-2.0234,-2.0234,-2.0254,-2.0294,-2.0294,-2.0314,-2.0347,-2.0347,-2.0347,-2.0388,0.0,0.0,0.0,0.0,0.0,0.0,0.0,0.0,0.0,0.0,-1.0566,-1.0303,0.0,0.0,0.0,0.0,0.0,0.0,0.0,0.0,0.0,-1.1724,-1.2109,-1.2344,-1.2344,-1.2764,-1.2988,-1.2988,-1.2908,-1.257,-1.1971,-1.187,-1.1506,-1.0951,-1.0397,-1.0136,-1.0136,-1.0038,-1.003,-1.0217,-1.0449,-1.0308,-0.9921,-0.9694,-0.9263,0.0,-0.9562,-1.0068,-1.0387,-1.0485,-1.0772,-1.1109,-1.1349,-1.1697,-1.2118,-1.2681,-1.3006,-1.334,-1.3581,-1.3861,-1.4088,-1.4088,-1.4088,-1.4088,-1.4088,-1.4088,-1.4015,-1.3774,-1.3761,-1.3868,-1.4122,-1.4249,-1.4549,-1.5277,-1.5438,-1.5558,-1.5798,-1.5832,-1.6046,-1.6633,-1.6707,-1.6934,-1.7522,-1.7862,-1.817,-1.847,-1.8718,-1.8978,-1.9279,-1.9339,-1.9366,-1.9366,-1.9366,-1.9366,-1.9366,-1.9366,-1.9366,-1.9366,-1.9366,-1.9492,-1.9726,-1.9726,-1.9887,-2.0154,-2.0154,-2.0187,-2.0234,-2.0234,-2.0374,-2.0601,-2.0601,-2.0748,-2.0955,-2.0955,-2.0955,-2.0962,0.0,0.0,0.0,0.0,0.0,0.0,0.0,-1.1103,-1.1371,-1.1577,-1.1243,-1.1067,-1.1221,-1.0859,-1.0684,0.0,0.0,0.0,0.0,0.0,0.0,-1.1221,-1.1641,-1.1885,-1.1885,-1.2135,-1.2233,-1.2233,0.0,-1.2039,-1.1686,-1.1686,-1.1658,-1.1477,-1.0689,-1.0416,-1.0573,-0.9717,-0.9494,-0.9729,-0.9737,-0.9688,-0.9591,-0.9354,-0.9169,0.0,-0.9259,-0.9925,-1.0732,-1.03,-1.0587,-1.1066,-1.1303,-1.163,-1.1984,-1.2647,-1.2966,-1.3273,-1.3567,-1.3861,-1.4088,-1.4088,-1.4088,-1.4048,-1.3895,-1.3854,-1.3774,-1.348,-1.342,-1.346,-1.3607,-1.3881,-1.4229,-1.4649,-1.5097,-1.5444,-1.5585,-1.5732,-1.6046,-1.6633,-1.6707,-1.6934,-1.7522,-1.8003,-1.8337,-1.8477,-1.8905,-1.9219,-1.9359,-1.9366,-1.9366,-1.9366,-1.9366,-1.9366,-1.9366,-1.9366,-1.9446,-1.9593,-1.9593,-1.9746,-2.0027,-2.0027,-2.0187,-2.0461,-2.0461,-2.0548,-2.0688,-2.0688,-2.0775,-2.0902,-2.0902,-2.0989,-2.1109,-2.1109,-2.1109,-2.1109,0.0,0.0,0.0,0.0,0.0,0.0,0.0,-1.1416,-1.1783,-1.1881,-1.189,-1.189,-1.189,-1.1367,-1.1055,0.0,0.0,0.0,0.0,0.0,0.0,0.0,0.0,0.0,-1.1459,0.0,0.0,-1.1606,-1.1606,0.0,0.0,0.0,0.0,0.0,-1.1165,-1.0913,-1.1139,-0.9818,-0.952,0.0,0.0,-0.9474,-0.9703,0.0,0.0,0.0,0.0,-0.988,-1.0677,-1.0038,-1.0291,-1.088,-1.1181,-1.1536,-1.1891,-1.2553,-1.2866,-1.316,-1.3387,-1.3667,-1.3901,-1.3901,-1.3901,-1.3841,-1.3607,-1.3547,-1.3467,-1.3173,-1.3113,-1.3113,-1.3113,-1.3487,-1.3861,-1.4055,-1.4716,-1.5251,-1.5378,-1.5645,-1.6046,-1.6633,-1.6707,-1.6934,-1.7522,-1.8136,-1.849,-1.849,-1.9038,-1.9366,-1.9366,-1.9366,-1.9366,-1.9366,-1.9366,-1.9366,-1.9366,-1.9432,-1.9573,-1.98,-1.986,-2.0047,-2.0327,-2.0327,-2.0488,-2.0768,-2.0768,-2.0902,-2.1109,-2.1109,-2.1109,-2.1109,-2.1109,-2.1109,-2.1109,-2.1109,-2.1109,-2.1109,0.0,0.0,0.0,0.0,0.0,0.0,0.0,-1.1885,-1.2314,-1.2705,-1.2764,-1.2764,-1.2764,-1.2057,-1.1547,0.0,0.0,0.0,0.0,0.0,0.0,0.0,0.0,0.0,0.0,0.0,0.0,-1.1606,-1.1606,0.0,0.0,0.0,0.0,0.0,0.0,-1.0633,-1.066,-1.049,0.0,0.0,0.0,0.0,0.0,0.0,0.0,0.0,0.0,-0.9932,-0.915,-0.9984,-1.008,-0.9991,-1.0755,-1.1229,-1.1583,-1.2171,-1.2552,-1.2876,-1.2896,-1.3053,-1.3293,-1.3293,-1.3293,-1.328,-1.326,-1.3253,-1.316,-1.2852,-1.2869,-1.2869,-1.2869,-1.2909,-1.3218,-1.3955,-1.4376,-1.4783,-1.5317,-1.5645,-1.6046,-1.6633,-1.6707,-1.6934,-1.7522,-1.8136,-1.849,-1.849,-1.9038,-1.9366,-1.9366,-1.9366,-1.9366,-1.9366,-1.9366,-1.9366,-1.9366,-1.9626,-1.9773,-1.9806,-2.0067,-2.0347,-2.0635,-2.0635,-2.0795,-2.1069,-2.1069,-2.1082,-2.1109,-2.1109,-2.1109,-2.1109,-2.1109,-2.1109,-2.1109,-2.1109,-2.1109,-2.1109,0.0,0.0,0.0,0.0,0.0,0.0,-1.1577,-1.2168,-1.2686,-1.2861,-1.2881,-1.2881,-1.2881,-1.2616,-1.2184,-1.1655,0.0,0.0,0.0,0.0,0.0,0.0,0.0,0.0,0.0,0.0,-1.0832,-1.0832,-1.0832,0.0,0.0,0.0,0.0,0.0,0.0,-1.0074,-1.0281,-0.9708,0.0,0.0,0.0,0.0,0.0,0.0,0.0,0.0,0.0,0.0,-0.9962,-0.9724,-0.9925,-1.0371,-1.0634,-1.1049,-1.1543,-1.2131,-1.2512,-1.2822,-1.2822,-1.2973,-1.3213,-1.3213,-1.3213,-1.3113,-1.2746,-1.2665,-1.2525,-1.2051,-1.1951,-1.1951,-1.1951,-1.2238,-1.2652,-1.3193,-1.3975,-1.4663,-1.5077,-1.5538,-1.6046,-1.6633,-1.6707,-1.6934,-1.7522,-1.8136,-1.8637,-1.8991,-1.9239,-1.9366,-1.9366,-1.9366,-1.9366,-1.9366,-1.9366,-1.9452,-1.9626,-1.974,-1.998,-2.0327,-2.0448,-2.0655,-2.0935,-2.0935,-2.1002,-2.1109,-2.1109,-2.1109,-2.1109,-2.1109,-2.1109,-2.1109,-2.1109,-2.1109,-2.1109,-2.1109,-2.1109,-2.1109,0.0,0.0,0.0,0.0,0.0,-1.1606,-1.1606,-1.2361,-1.2881,-1.2881,-1.2881,-1.2881,-1.2881,-1.2881,-1.2577,-1.1685,-1.1279,0.0,0.0,0.0,0.0,0.0,0.0,0.0,0.0,0.0,-1.0283,-1.0283,-1.0283,-1.0283,0.0,0.0,-1.0439,-1.0713,0.0,0.0,0.0,0.0,0.0,0.0,0.0,0.0,0.0,0.0,0.0,0.0,0.0,0.0,0.0,0.0,0.0,-1.0265,-1.0418,-1.0768,-1.1303,-1.1977,-1.2385,-1.2619,-1.2619,-1.2772,-1.2939,-1.2939,-1.2879,-1.2705,-1.2271,-1.2104,-1.1924,-1.151,-1.1423,-1.1423,-1.1423,-1.1837,-1.2298,-1.2761,-1.3674,-1.4529,-1.491,-1.5464,-1.6046,-1.6633,-1.6707,-1.6934,-1.7522,-1.8136,-1.8738,-1.9325,-1.9366,-1.9366,-1.9366,-1.9366,-1.9366,-1.9366,-1.9452,-1.9593,-1.98,-1.9973,-2.0267,-2.0675,-2.0762,-2.0909,-2.1109,-2.1109,-2.1109,-2.1109,-2.1109,-2.1109,-2.1109,-2.1109,-2.1109,-2.1109,-2.1109,-2.1109,-2.1109,-2.1109,-2.1109,-2.1109,0.0,0.0,0.0,0.0,0.0,0.0,-1.1606,-1.2361,-1.2881,-1.2881,-1.2881,-1.2881,-1.2881,-1.2881,-1.2577,-1.1685,-1.1596,0.0,0.0,0.0,0.0,0.0,0.0,0.0,0.0,0.0,-1.0283,-1.0283,-1.0283,-1.0283,-1.0283,-1.0283,-1.0283,-1.0332,0.0,0.0,0.0,0.0,0.0,0.0,0.0,0.0,0.0,0.0,0.0,0.0,0.0,0.0,0.0,0.0,0.0,0.0,0.0,-1.0327,-1.0806,-1.1617,-1.2078,-1.2305,-1.2305,-1.2311,-1.2311,-1.2311,-1.2098,-1.1877,-1.1877,-1.165,-1.143,-1.1423,-1.1423,-1.1423,-1.1423,-1.167,-1.2064,-1.2728,-1.35,-1.4295,-1.4883,-1.5464,-1.6046,-1.6633,-1.6707,-1.6934,-1.7522,-1.8136,-1.8738,-1.9325,-1.9366,-1.9366,-1.9366,-1.9366,-1.9366,-1.9366,-1.9646,-1.98,-1.98,-2.0374,-2.0668,-2.0681,-2.0969,-2.1109,-2.1109,-2.1109,-2.1109,-2.1109,-2.1109,-2.1109,-2.1109,-2.1109,-2.1109,-2.1109,-2.1109,-2.1109,-2.1109,-2.1109,-2.1109,-2.1109,0.0,0.0,0.0,0.0,0.0,0.0,0.0,-1.2361,-1.2881,-1.2881,-1.2881,-1.2881,-1.2881,-1.2617,-1.2197,-1.1655,-1.1606,0.0,0.0,0.0,0.0,0.0,0.0,0.0,0.0,-1.0713,-1.0859,-1.1194,-1.1194,-1.1194,-1.1194,-1.1194,-1.1194,-1.1185,-1.084,-1.0713,0.0,0.0,0.0,0.0,0.0,0.0,-0.9971,0.0,0.0,0.0,0.0,0.0,0.0,0.0,0.0,0.0,0.0,0.0,0.0,-1.096,-1.1463,-1.2004,-1.2004,-1.2151,-1.2258,-1.2058,-1.1937,-1.1764,-1.1363,-1.1196,-1.1069,-1.0875,-1.0835,-1.0835,-1.0835,-1.1236,-1.1757,-1.2345,-1.3367,-1.4289,-1.4883,-1.5464,-1.6046,-1.6633,-1.7061,-1.7542,-1.8143,-1.8377,-1.8738,-1.9325,-1.9366,-1.9366,-1.9366,-1.9366,-1.9366,-1.9366,-1.9646,-1.9893,-2.0094,-2.0481,-2.0775,-2.0969,-2.1069,-2.1109,-2.1109,-2.1109,-2.1109,-2.1109,-2.1109,-2.1109,-2.1109,-2.1109,-2.1109,-2.1109,-2.1109,-2.1109,-2.1109,-2.1109,-2.1109,-2.1109,0.0,0.0,0.0,0.0,0.0,0.0,0.0,-1.1969,-1.243,-1.243,-1.243,-1.243,-1.243,-1.2139,-1.1797,-1.1348,-1.1351,0.0,0.0,0.0,0.0,0.0,0.0,0.0,-1.0898,-1.1064,-1.1332,-1.1606,-1.1606,-1.1606,-1.1606,-1.1606,-1.1606,-1.1596,-1.1279,-1.1064,0.0,0.0,0.0,0.0,0.0,0.0,-0.9359,0.0,0.0,0.0,0.0,0.0,0.0,0.0,0.0,0.0,0.0,0.0,0.0,0.0,-1.0862,-1.1423,-1.1643,-1.183,-1.1924,-1.1744,-1.1623,-1.1443,-1.1076,-1.0909,-1.0782,-1.0658,-1.0624,-1.0658,-1.0701,-1.1109,-1.1657,-1.2358,-1.338,-1.4289,-1.4883,-1.5464,-1.6046,-1.6633,-1.7221,-1.7822,-1.843,-1.849,-1.8738,-1.9325,-1.9366,-1.9366,-1.9366,-1.9366,-1.9419,-1.9526,-1.9813,-2.0107,-2.0394,-2.0695,-2.0929,-2.1109,-2.1109,-2.1109,-2.1109,-2.1109,-2.1109,-2.1109,-2.1109,-2.1109,0.0,-2.1109,-2.1109,-2.1109,-2.1109,-2.1109,-2.1109,-2.1109,-2.1109,-2.1109,0.0,0.0,0.0,0.0,0.0,0.0,0.0,-1.1279,-1.1606,-1.1606,-1.1606,-1.1606,-1.1606,-1.1577,-1.1348,-1.0947,0.0,0.0,0.0,0.0,0.0,0.0,0.0,0.0,-1.0957,-1.1387,-1.1665,-1.1694,-1.1694,-1.1694,-1.1694,-1.1694,-1.1694,-1.1694,-1.1665,-1.139,0.0,0.0,0.0,0.0,-0.8265,-0.8024,0.0,0.0,0.0,0.0,0.0,0.0,0.0,0.0,0.0,0.0,0.0,0.0,0.0,0.0,0.0,0.0,0.0,-1.1376,-1.1423,-1.1403,-1.1189,-1.0989,-1.0969,-1.0768,0.0,-1.0658,-1.0672,-1.0701,-1.0975,-1.1276,-1.1764,-1.2688,-1.352,-1.4315,-1.4883,-1.5498,-1.6092,-1.664,-1.7248,-1.7849,-1.843,-1.851,-1.8758,-1.9325,-1.9366,-1.9366,-1.9366,-1.9386,-1.9533,-1.982,-2.0114,-2.0394,-2.0675,-2.0962,-2.1109,-2.1109,-2.1109,-2.1109,-2.1109,-2.1109,-2.1109,-2.1109,-2.1109,-2.1109,-2.1109,-2.1109,-2.1109,-2.1109,-2.1109,-2.1109,-2.1109,-2.1109,-2.1109,-2.1109,0.0,0.0,0.0,0.0,0.0,0.0,0.0,0.0,0.0,0.0,-1.1606,-1.1606,-1.1606,-1.126,-1.1025,0.0,0.0,0.0,0.0,0.0,0.0,0.0,0.0,0.0,-1.1439,-1.1846,-1.2236,-1.2568,-1.2568,-1.2568,-1.2568,-1.2568,-1.2568,-1.2606,-1.2227,-1.1641,0.0,0.0,0.0,0.0,-0.8904,-0.8762,0.0,0.0,0.0,0.0,-0.8853,-0.9004,0.0,0.0,0.0,0.0,0.0,0.0,0.0,0.0,-0.9653,-0.9967,-1.0327,0.0,-1.1369,-1.1149,-1.1042,-1.0935,0.0,-1.0782,-1.0895,-1.0895,-1.1069,-1.1243,-1.1309,-1.1744,-1.2238,-1.2755,-1.3687,-1.4543,-1.491,-1.5852,-1.6553,-1.6693,-1.7435,-1.8083,-1.8457,-1.8691,-1.8971,-1.9339,-1.9366,-1.9366,-1.9366,-1.9579,-1.9833,-2.012,-2.0421,-2.0608,-2.0675,-2.0962,-2.1109,-2.1109,-2.1109,-2.1109,-2.1109,-2.1109,-2.1109,-2.1109,-2.1109,-2.1109,-2.1109,-2.1109,-2.1109,-2.1109,-2.1109,-2.1109,-2.1109,-2.1109,-2.1109,-2.1109,0.0,0.0,0.0,0.0,0.0,0.0,0.0,0.0,0.0,0.0,0.0,-1.1018,0.0,0.0,0.0,0.0,0.0,0.0,0.0,0.0,0.0,0.0,0.0,-1.1416,-1.1855,-1.2305,-1.2646,-1.2881,-1.2881,-1.2881,-1.2881,-1.2881,-1.2881,-1.2861,-1.2422,-1.1846,0.0,0.0,0.0,-0.9864,-0.9085,0.0,0.0,0.0,0.0,0.0,-0.8177,-0.8414,0.0,-0.9435,-0.9247,-0.891,0.0,0.0,0.0,0.0,-0.9352,-0.9546,-0.984,-1.0361,-1.0822,-1.0802,-1.0795,-1.0788,-1.0768,-1.0882,-1.1029,-1.1162,-1.1316,-1.151,-1.1777,-1.2198,-1.2692,-1.3267,-1.4128,-1.4923,-1.5484,-1.6226,-1.676,-1.6894,-1.7582,-1.8163,-1.8464,-1.8751,-1.9045,-1.9345,-1.9366,-1.9366,-1.9366,-1.9639,-1.9933,-2.0221,-2.0521,-2.0742,-2.0875,-2.1029,-2.1109,-2.1109,-2.1109,-2.1109,-2.1109,-2.1109,-2.1109,-2.1109,-2.1109,-2.1109,-2.1109,-2.1109,-2.1109,-2.1109,-2.1109,-2.1109,-2.1109,-2.1109,-2.1109,-2.0982,0.0,0.0,0.0,0.0,0.0,0.0,0.0,0.0,0.0,0.0,0.0,0.0,0.0,0.0,0.0,0.0,0.0,0.0,0.0,0.0,0.0,0.0,-1.141,-1.1768,-1.2171,-1.2656,-1.2881,-1.2881,-1.2881,-1.2881,-1.2881,-1.2881,-1.2881,-1.2861,-1.2422,-1.1982,-1.1557,-1.0753,-1.0097,-0.957,-0.8994,0.0,0.0,0.0,0.0,0.0,0.0,0.0,0.0,-0.9175,-0.9206,-0.8956,-0.9718,0.0,0.0,0.0,0.0,0.0,-0.9593,-0.9893,-1.0174,-1.0428,-1.0591,-1.0698,-1.0929,-1.1029,-1.1156,-1.149,-1.1597,-1.1804,-1.2398,-1.2752,-1.3213,-1.4021,-1.4643,-1.5317,-1.6159,-1.652,-1.6814,-1.7114,-1.7722,-1.8217,-1.8464,-1.8798,-1.9098,-1.9352,-1.9366,-1.9366,-1.9366,-1.9686,-1.998,-2.0227,-2.0561,-2.0862,-2.1109,-2.1109,-2.1109,-2.1109,-2.1109,-2.1109,-2.1109,-2.1109,-2.1109,-2.1109,-2.1109,-2.1109,-2.1109,-2.1109,-2.1109,-2.1109,-2.1109,-2.1109,-2.1109,-2.1109,-2.1109,-2.0849,0.0,0.0,0.0,0.0,0.0,0.0,0.0,0.0,0.0,0.0,0.0,0.0,0.0,0.0,0.0,0.0,0.0,0.0,0.0,0.0,0.0,-1.1469,-1.1567,-1.1768,-1.2171,-1.2656,-1.2881,-1.2881,-1.2881,-1.2881,-1.2881,-1.2881,-1.2881,-1.2861,-1.2422,-1.1982,-1.1567,-1.1025,-1.0565,-1.0079,-0.909,0.0,0.0,0.0,0.0,0.0,0.0,0.0,0.0,-0.9739,-0.9595,-0.9008,-1.0261,0.0,0.0,0.0,0.0,0.0,-0.9539,-0.9893,-1.0127,-1.0174,-1.0374,-1.0698,-1.0929,-1.1182,-1.1516,-1.2058,-1.2365,-1.2726,-1.3327,-1.3681,-1.4008,-1.4389,-1.495,-1.5551,-1.6186,-1.652,-1.6814,-1.7114,-1.7903,-1.8437,-1.849,-1.8978,-1.9319,-1.9366,-1.9366,-1.9366,-1.9366,-1.9873,-2.0187,-2.0234,-2.0762,-2.1069,-2.1109,-2.1109,-2.1109,-2.1109,-2.1109,-2.1109,-2.1109,-2.1109,-2.1109,-2.1109,-2.1109,-2.1109,-2.1109,-2.1109,-2.1109,-2.1109,-2.1109,-2.1109,-2.1109,-2.1109,-2.1109,-2.0849,0.0,0.0,0.0,0.0,0.0,0.0,0.0,0.0,0.0,0.0,0.0,0.0,0.0,0.0,0.0,0.0,0.0,0.0,0.0,0.0,-1.0704,-1.1567,-1.1606,-1.193,-1.2568,-1.2783,-1.2881,-1.2881,-1.3105,-1.3105,-1.2881,-1.2881,-1.2881,-1.2871,-1.2676,-1.2197,-1.1596,-1.139,-1.0879,-1.0205,0.0,0.0,0.0,0.0,0.0,0.0,0.0,0.0,0.0,0.0,-0.9543,-0.9061,-1.0364,0.0,0.0,0.0,0.0,0.0,-0.9325,-0.9659,-0.996,-1.0274,-1.0695,-1.1142,-1.1597,-1.1804,-1.2071,-1.2665,-1.3026,-1.3367,-1.3801,-1.4255,-1.471,-1.5157,-1.5591,-1.6019,-1.6446,-1.676,-1.7114,-1.7582,-1.8143,-1.8551,-1.8711,-1.9112,-1.9366,-1.9366,-1.9366,-1.9366,-1.9366,-1.992,-2.0234,-2.0234,-2.0802,-2.1109,-2.1109,-2.1109,-2.1109,-2.1109,-2.1109,-2.1109,-2.1109,-2.1109,-2.1109,-2.1109,-2.1109,-2.1109,-2.1109,-2.1109,-2.1109,-2.1109,-2.1109,-2.1109,-2.0982,-2.0062,-1.8506,-1.6824,0.0,0.0,0.0,0.0,0.0,0.0,0.0,0.0,0.0,0.0,0.0,0.0,0.0,0.0,0.0,0.0,0.0,0.0,0.0,0.0,-1.0704,-1.1567,-1.1606,-1.2018,-1.2861,-1.2881,-1.2881,-1.2881,-1.3203,-1.3193,-1.2881,-1.2881,-1.2881,-1.2881,-1.2881,-1.2451,-1.1709,-1.1645,-1.1165,-1.0341,0.0,0.0,0.0,0.0,0.0,0.0,0.0,0.0,0.0,0.0,0.0,0.0,0.0,0.0,0.0,-0.8804,-0.8851,-0.8971,-0.9265,-0.9659,-1.0114,-1.0635,-1.1049,-1.1496,-1.2151,-1.2305,-1.2512,-1.326,-1.3594,-1.3881,-1.4315,-1.4816,-1.5337,-1.5852,-1.6126,-1.64,-1.676,-1.7007,-1.7375,-1.7976,-1.831,-1.8604,-1.8891,-1.9192,-1.9366,-1.9366,-1.9366,-1.9366,-1.9366,-1.992,-2.0234,-2.0234,-2.0802,-2.1109,-2.1109,-2.1109,-2.1109,-2.1109,-2.1109,-2.1109,-2.1109,-2.1109,-2.1109,-2.1109,-2.1109,-2.1109,-2.1109,-2.1109,-2.1109,-2.1109,-2.1109,-2.0849,-2.0329,-1.9024,-1.6302,-1.3325,0.0,0.0,0.0,0.0,0.0,0.0,0.0,0.0,0.0,0.0,0.0,0.0,0.0,0.0,0.0,0.0,0.0,0.0,0.0,0.0,-1.0704,-1.1567,-1.1606,-1.2018,-1.2861,-1.2881,-1.2881,-1.2881,-1.291,-1.291,-1.2881,-1.2881,-1.2881,-1.2881,-1.2881,-1.2617,-1.2148,-1.1738,-1.1332,-1.0789,-0.9824,0.0,0.0,0.0,0.0,0.0,0.0,0.0,0.0,0.0,0.0,0.0,0.0,0.0,-0.8804,-0.8804,-0.8998,-0.9216,-0.9573,-1.0261,-1.0975,-1.1283,-1.1189,-1.1249,-1.2104,-1.2305,-1.2632,-1.3788,-1.4041,-1.4315,-1.515,-1.5558,-1.5872,-1.6186,-1.6259,-1.6473,-1.7041,-1.7134,-1.7375,-1.7976,-1.831,-1.8604,-1.8891,-1.9192,-1.9366,-1.9366,-1.9366,-1.9366,-1.9366,-1.992,-2.0234,-2.0234,-2.0802,-2.1109,-2.1109,-2.1109,-2.1109,-2.1109,-2.1109,-2.1109,-2.1109,-2.1109,-2.1109,-2.1109,-2.1109,-2.1109,-2.1109,-2.1109,-2.1109,-2.1109,-2.1109,-2.0068,-1.8634,-1.8506,-1.6302,-1.3325,0.0,0.0,0.0,0.0,0.0,0.0,0.0,0.0,0.0,0.0,0.0,0.0,0.0,0.0,0.0,0.0,0.0,0.0,0.0,-1.0527,-1.0937,-1.1577,-1.1826,-1.2256,-1.2871,-1.2881,-1.2881,-1.2881,-1.2881,-1.3018,-1.3262,-1.2998,-1.2881,-1.2881,-1.2881,-1.2637,-1.2151,-1.1748,-1.1351,-1.0828,-0.9882,-0.9359,0.0,0.0,0.0,0.0,0.0,0.0,0.0,0.0,-0.898,-0.9019,-0.9719,-0.9409,-0.8804,-0.8804,-0.9011,-0.9289,-0.982,-1.0327,-1.0929,-1.1764,-1.2024,-1.2225,-1.2746,-1.3153,-1.3594,-1.4229,-1.4649,-1.5057,-1.5571,-1.5905,-1.6146,-1.6253,-1.658,-1.6894,-1.7217,-1.7475,-1.7862,-1.827,-1.8584,-1.8878,-1.9172,-1.9299,-1.9366,-1.9366,-1.9366,-1.9366,-1.9366,-1.992,-2.0234,-2.0234,-2.0802,-2.1109,-2.1109,-2.1109,-2.1109,-2.1109,-2.1109,-2.1109,-2.1109,-2.1109,-2.1109,-2.1109,-2.1109,-2.1109,-2.1109,-2.1109,-2.1109,-2.0982,-1.9935,-1.8378,-1.6695,-1.5654,-1.3713,-1.1633,0.0,0.0,0.0,0.0,0.0,0.0,0.0,0.0,0.0,0.0,0.0,0.0,0.0,0.0,0.0,0.0,0.0,0.0,-1.0283,-1.0547,-1.0967,-1.1577,-1.1855,-1.2295,-1.2871,-1.2881,-1.2881,-1.2881,-1.2881,-1.3027,-1.3301,-1.3018,-1.2881,-1.2881,-1.2881,-1.2715,-1.2393,-1.1807,-1.143,-1.1023,-1.0139,-0.9558,0.0,0.0,0.0,0.0,0.0,0.0,0.0,0.0,-0.8768,-0.8868,-0.9256,-0.9112,-0.8824,-0.8918,-0.9152,-0.9506,-1.0094,-1.0608,-1.1189,-1.2078,-1.2665,-1.3106,-1.3414,-1.3868,-1.4335,-1.4716,-1.5264,-1.5705,-1.5812,-1.6146,-1.6413,-1.6413,-1.6827,-1.7215,-1.7402,-1.7789,-1.819,-1.8577,-1.8804,-1.9038,-1.9339,-1.9366,-1.9366,-1.9366,-1.9366,-1.9366,-1.9366,-1.992,-2.0234,-2.0234,-2.0802,-2.1109,-2.1109,-2.1109,-2.1109,-2.1109,-2.1109,-2.1109,-2.1109,-2.1109,-2.1109,-2.1109,-2.1109,-2.1109,-2.1109,-2.1109,-2.0722,-2.0195,-1.9024,-1.7082,-1.4879,-1.3713,-1.2153,-1.0721,0.0,0.0,0.0,0.0,0.0,0.0,0.0,0.0,-1.0283,-1.0283,-1.0283,0.0,0.0,0.0,0.0,0.0,0.0,0.0,-1.0283,-1.0283,-1.0674,-1.1567,-1.1606,-1.2028,-1.2861,-1.2881,-1.2881,-1.2881,-1.2881,-1.2881,-1.2881,-1.2881,-1.2881,-1.2881,-1.2881,-1.2881,-1.2822,-1.1979,-1.1606,-1.1528,-1.0635,-0.9637,-0.8756,0.0,0.0,0.0,0.0,0.0,0.0,0.0,-0.8656,-0.8072,-0.9085,-0.9112,-0.8858,-0.9097,-0.9446,-0.9813,-1.0463,-1.1202,-1.1937,-1.2238,-1.2986,-1.3728,-1.4028,-1.4315,-1.4689,-1.5277,-1.5865,-1.6179,-1.5885,-1.6313,-1.6707,-1.6707,-1.6961,-1.7361,-1.7963,-1.805,-1.827,-1.8851,-1.8925,-1.9045,-1.9339,-1.9366,-1.9366,-1.9366,-1.9366,-1.9366,-1.9366,-1.992,-2.0234,-2.0234,-2.0802,-2.1109,-2.1109,-2.1109,-2.1109,-2.1109,-2.1109,-2.1109,-2.1109,-2.1109,-2.1109,-2.1109,-2.1109,-2.1109,-2.1109,-2.1109,-2.0068,-1.8506,-1.8506,-1.6431,-1.332,-1.332,-1.2153,-1.0721,0.0,0.0,0.0,0.0,0.0,0.0,0.0,0.0,-1.0283,-1.0283,-1.0283,0.0,0.0,0.0,0.0,0.0,0.0,0.0,-1.0283,-1.0557,-1.0977,-1.1577,-1.1865,-1.2295,-1.2871,-1.2881,-1.2881,-1.2881,-1.2881,-1.2881,-1.2881,-1.2881,-1.2881,-1.2881,-1.2881,-1.2881,-1.2822,-1.1979,-1.1606,-1.1484,-1.0252,-0.9755,-0.9765,0.0,0.0,0.0,0.0,0.0,0.0,0.0,0.0,0.0,-0.8289,-0.8405,-0.8557,-0.8851,-0.9292,-0.9813,-1.0463,-1.1049,-1.1784,-1.2705,-1.3454,-1.4088,-1.4589,-1.477,-1.4997,-1.5578,-1.5838,-1.5999,-1.6119,-1.6453,-1.6774,-1.6981,-1.7261,-1.7589,-1.7989,-1.823,-1.8497,-1.8878,-1.9112,-1.9272,-1.9359,-1.9366,-1.9366,-1.9366,-1.9366,-1.9366,-1.9366,-1.992,-2.0234,-2.0234,-2.0802,-2.1109,-2.1109,-2.1109,-2.1109,-2.1109,-2.1109,-2.1109,-2.1109,-2.1109,-2.1109,-2.1109,-2.1109,-2.1109,-2.1109,-2.1109,-2.0849,-2.0068,-1.7597,-1.6043,-1.4879,-1.2413,-1.1111,-1.0721,0.0,0.0,0.0,0.0,0.0,0.0,-1.0283,-1.0283,-1.0283,-1.0283,-1.0283,-1.0215,0.0,0.0,0.0,-1.002,-1.002,-1.0098,-1.0273,-1.0518,-1.085,-1.1279,-1.1562,-1.1992,-1.2607,-1.2793,-1.2881,-1.2881,-1.2881,-1.2881,-1.2881,-1.2881,-1.2881,-1.2881,-1.2881,-1.2881,-1.2822,-1.1979,-1.1606,-1.1484,-1.0293,-0.9883,-0.9922,0.0,0.0,0.0,0.0,0.0,0.0,0.0,0.0,0.0,-0.793,-0.8136,-0.8457,-0.8858,-0.9312,-0.984,-1.0541,-1.1156,-1.1864,-1.2939,-1.3654,-1.4275,-1.4977,-1.5224,-1.5404,-1.5758,-1.6012,-1.6199,-1.6259,-1.67,-1.7074,-1.7134,-1.7495,-1.7876,-1.8183,-1.8477,-1.8771,-1.9065,-1.9259,-1.9366,-1.9366,-1.9366,-1.9366,-1.9366,-1.9366,-1.9366,-1.9366,-1.992,-2.0234,-2.0234,-2.0802,-2.1109,-2.1109,-2.1109,-2.1109,-2.1109,-2.1109,-2.1109,-2.1109,-2.1109,-2.1109,-2.1109,-2.1109,-2.1109,-2.1109,-2.0329,-1.9674,-1.8768,-1.5913,-1.4488,-1.3582,-1.1501,-1.0721,-1.0721,0.0,0.0,0.0,0.0,0.0,0.0,-1.0166,-1.0166,-1.0166,-1.0166,-1.0166,-1.001,0.0,0.0,0.0,-0.9534,-0.9573,-0.9795,-1.0195,-1.0302,-1.0469,-1.0889,-1.0947,-1.1348,-1.2148,-1.2598,-1.2822,-1.2822,-1.2861,-1.2881,-1.2881,-1.2881,-1.2881,-1.2881,-1.2881,-1.2881,-1.2871,-1.2028,-1.1645,-1.1528,-1.0624,-0.9999,-0.9558,-0.9478,0.0,0.0,0.0,0.0,0.0,0.0,0.0,0.0,-0.7822,-0.8116,-0.845,-0.9031,-0.9432,-0.9866,-1.0722,-1.1383,-1.2051,-1.2979,-1.3694,-1.4389,-1.5244,-1.5645,-1.5838,-1.5865,-1.6293,-1.66,-1.6393,-1.7007,-1.7468,-1.7228,-1.7669,-1.815,-1.845,-1.8738,-1.9032,-1.9332,-1.9366,-1.9366,-1.9366,-1.9366,-1.9366,-1.9366,-1.9366,-1.9366,-1.9366,-1.9893,-2.0201,-2.0234,-2.0775,-2.1082,-2.1109,-2.1109,-2.1109,-2.1109,-2.1109,-2.1109,-2.1109,-2.1109,-2.1109,-2.1109,-2.1109,-2.1109,-2.0976,-1.9158,-1.7597,-1.5918,-1.4101,-1.2281,-1.0982,-1.0717,-1.0721,-1.0721,0.0,0.0,0.0,0.0,0.0,0.0,-0.9277,-0.9277,-0.9277,-0.9277,-0.9277,-0.9238,-0.915,-0.9141,0.0,-0.9141,-0.9408,-0.9631,-0.9729,-1.0098,-1.0469,-1.0889,-1.123,-1.1557,-1.1699,-1.2139,-1.2373,-1.2373,-1.2715,-1.2881,-1.2881,-1.2881,-1.2881,-1.2881,-1.2881,-1.2881,-1.2842,-1.2314,-1.1885,-1.1514,-1.0559,-1.0124,-1.004,-0.9199,-0.9079,0.0,0.0,0.0,0.0,0.0,0.0,0.0,-0.7716,-0.7928,-0.8143,-0.8731,-0.9272,-0.9826,-1.0537,-1.1076,-1.1797,-1.2926,-1.4001,-1.4943,-1.5591,-1.5785,-1.5892,-1.6126,-1.6279,-1.6486,-1.6887,-1.7114,-1.7295,-1.7462,-1.7802,-1.815,-1.845,-1.8738,-1.9032,-1.9332,-1.9366,-1.9366,-1.9366,-1.9366,-1.9366,-1.9366,-1.9366,-1.9366,-1.9366,-1.97,-2.0,-2.0227,-2.0581,-2.0882,-2.1109,-2.1109,-2.1109,-2.1109,-2.1109,-2.1109,-2.1109,-2.1109,-2.1109,-2.1109,-2.1109,-2.1109,-2.0976,-1.9158,-1.825,-1.7597,-1.4488,-1.3062,-1.2545,-1.124,-1.0721,-1.0721,0.0,0.0,0.0,0.0,0.0,0.0,0.0,0.0,-0.9004,-0.9004,-0.9004,-0.8926,-0.873,-0.8701,0.0,0.0,-0.8906,-0.9199,-0.9563,-0.9844,-1.0156,-1.0586,-1.1016,-1.125,-1.125,-1.1895,-1.218,-1.218,-1.2666,-1.2881,-1.2881,-1.2881,-1.2881,-1.2881,-1.2881,-1.2881,-1.2852,-1.2412,-1.21,-1.1836,-1.1084,-1.0582,-1.0124,-0.9594,-0.9275,-0.9039,-0.8521,0.0,0.0,0.0,0.0,0.0,0.0,0.0,-0.8001,-0.8637,-0.9225,-0.978,-1.0227,-1.0875,-1.1744,-1.3086,-1.4195,-1.5077,-1.5524,-1.5732,-1.5952,-1.6393,-1.648,-1.662,-1.7068,-1.7261,-1.7455,-1.7756,-1.8063,-1.8364,-1.8657,-1.8951,-1.9192,-1.9352,-1.9366,-1.9366,-1.9366,-1.9366,-1.9366,-1.9366,-1.9366,-1.9366,-1.9366,-1.9639,-1.9867,-2.002,-2.0314,-2.0601,-2.0902,-2.0902,-2.0969,-2.1109,-2.1109,-2.1109,-2.1109,-2.1109,-2.1109,-2.1109,-2.1109,-2.1109,-2.0849,-1.8378,-1.7211,-1.6953,-1.3451,-1.2025,-1.189,-1.0979,-1.0721,-1.0721,0.0,0.0,0.0,0.0,0.0,0.0,0.0,0.0,0.0,-0.8789,-0.8789,-0.8652,-0.8301,-0.8262,-0.8262,0.0,0.0,0.0,-0.9259,-0.9375,-0.9568,-0.9973,-1.0429,-1.0693,-1.0693,-1.1553,-1.2002,-1.2002,-1.252,-1.2773,-1.2773,-1.2842,-1.2881,-1.2881,-1.2881,-1.2881,-1.2852,-1.25,-1.2248,-1.2151,-1.1727,-1.1007,-1.0164,-0.9941,-0.9368,-0.8615,-0.8085,-0.7915,-0.7823,-0.7291,0.0,0.0,0.0,0.0,-0.8001,-0.8637,-0.9185,-0.9679,-1.002,-1.0868,-1.1971,-1.3307,-1.4309,-1.5037,-1.5331,-1.5618,-1.5985,-1.652,-1.6667,-1.6814,-1.7161,-1.7422,-1.7689,-1.7996,-1.8297,-1.8591,-1.8885,-1.9178,-1.9366,-1.9366,-1.9366,-1.9366,-1.9366,-1.9366,-1.9366,-1.9366,-1.9366,-1.9366,-1.9366,-1.9593,-1.9746,-1.98,-2.0034,-2.0301,-2.0601,-2.0601,-2.0748,-2.1036,-2.1082,-2.1109,-2.1109,-2.0843,-2.0849,-2.1109,-2.0456,-2.0329,-2.0329,-1.6953,-1.5394,-1.5139,-1.1894,-1.0721,-1.0721,-1.0721,-1.0721,-1.0721,0.0,0.0,0.0,0.0,0.0,0.0,0.0,0.0,0.0,0.0,-0.787,-0.7851,-0.7793,-0.7783,-0.7783,-0.7783,-0.7794,-0.7853,-0.8038,0.0,0.0,-0.8636,-0.9389,-0.9768,-0.9768,-1.0645,-1.1084,-1.1084,-1.1914,-1.2268,-1.2278,-1.2705,-1.2881,-1.2881,-1.2881,-1.2881,-1.2881,-1.2812,-1.2578,-1.2124,-1.1519,-1.0967,-1.0401,-0.931,-0.8791,-0.8616,-0.8082,-0.7903,-0.7862,-0.7547,-0.7453,0.0,0.0,0.0,-0.8001,-0.8637,-0.9045,-0.9362,-0.9967,-1.1316,-1.2746,-1.346,-1.4309,-1.5037,-1.5331,-1.5618,-1.5925,-1.6259,-1.6526,-1.6874,-1.7422,-1.7555,-1.7689,-1.7996,-1.8297,-1.8591,-1.8885,-1.9178,-1.9366,-1.9366,-1.9366,-1.9366,-1.9366,-1.9366,-1.9366,-1.9366,-1.9366,-1.9366,-1.9366,-1.9406,-1.9539,-1.9793,-1.9833,-2.0,-2.0287,-2.0294,-2.0441,-2.0735,-2.0989,-2.1109,-2.1109,-1.9546,-1.9674,-2.0976,-1.7859,-1.7468,-1.8634,-1.5139,-1.3713,-1.3451,-1.1501,-1.0721,-1.0721,-1.0721,-1.0721,-1.0721,0.0,0.0,0.0,0.0,0.0,0.0,0.0,0.0,0.0,0.0,0.0,-0.7793,-0.8066,-0.7841,-0.7598,-0.7373,-0.7351,-0.7387,-0.7416,-0.7834,-0.8061,-0.8061,-0.861,-0.9028,-0.9253,-1.0118,-1.0674,-1.0908,-1.1543,-1.1855,-1.1855,-1.1767,-1.2167,-1.2881,-1.2452,-1.2501,-1.2881,-1.2452,-1.2134,-1.1918,-1.127,-1.0561,-0.9865,-0.9303,-0.8721,-0.82,-0.7977,-0.7882,-0.7862,-0.7776,-0.7729,-0.7776,-0.8083,0.0,0.0,0.0,-0.9011,-0.9382,-1.0361,-1.141,-1.2438,-1.3206,-1.4062,-1.479,-1.5084,-1.5504,-1.5912,-1.6213,-1.6373,-1.664,-1.7228,-1.7475,-1.7689,-1.7996,-1.8297,-1.8591,-1.8885,-1.9178,-1.9366,-1.9366,-1.9366,-1.9366,-1.9366,-1.9366,-1.9366,-1.9366,-1.9366,-1.9366,-1.9366,-1.9366,-1.9426,-1.9553,-1.9559,-1.9693,-1.9987,-1.9993,-2.0221,-2.0675,-2.0808,-2.0949,-2.0982,-1.9285,-1.9413,-2.0849,-1.7468,-1.6953,-1.8244,-1.4749,-1.3325,-1.3193,-1.1372,-1.0721,-1.0721,-1.0721,-1.0721,-1.0721,0.0,0.0,0.0,0.0,0.0,0.0,0.0,0.0,0.0,0.0,0.0,-0.8174,-0.8506,0.0,0.0,0.0,-0.7364,-0.7089,-0.6778,-0.7105,-0.7313,-0.7313,-0.7817,-0.8244,-0.8648,-0.9535,-1.0147,-1.0586,-1.1133,-1.1353,-1.1214,-1.0739,-1.1113,-1.2101,-1.1828,-1.1981,-1.2464,-1.1984,-1.1715,-1.1466,-1.0813,-1.0113,-0.9505,-0.9313,-0.8778,-0.8156,-0.8156,-0.8156,-0.8094,-0.807,-0.8043,-0.8083,-0.8303,-0.8427,0.0,0.0,0.0,-0.9409,-1.0494,-1.1249,-1.1971,-1.2866,-1.3754,-1.4509,-1.4877,-1.5357,-1.5805,-1.6099,-1.6219,-1.6406,-1.6847,-1.7221,-1.7602,-1.7989,-1.823,-1.8504,-1.8871,-1.9118,-1.9279,-1.9359,-1.9366,-1.9366,-1.9366,-1.9366,-1.9366,-1.9366,-1.9366,-1.9366,-1.9366,-1.9366,-1.9366,-1.9366,-1.9366,-1.9472,-1.9686,-1.9766,-2.002,-2.0454,-2.0145,-2.008,-2.0226,-1.854,-1.8575,-1.9546,-1.656,-1.6172,-1.7597,-1.4101,-1.2672,-1.2545,-1.124,-1.0721,-1.0721,-1.0721,-1.0721,-1.0721,0.0,0.0,0.0,0.0,0.0,0.0,0.0,0.0,0.0,0.0,0.0,-0.8945,-0.8975,-0.8955,-0.8936,-0.8902,-0.8096,-0.7048,-0.5862,-0.5913,-0.5997,-0.5997,-0.6739,0.0,-0.7765,-0.8629,-0.9263,-0.9661,-1.0537,-1.0689,-1.0185,-0.9887,-0.9848,-1.008,-1.1,-1.1358,-1.1291,-1.1661,-1.1408,-1.0813,-1.0115,-0.9806,-0.9688,-0.9086,-0.8778,-0.8764,-0.8764,-0.8764,-0.8717,-0.8444,-0.835,-0.835,-0.837,-0.8427,-0.843,0.0,0.0,0.0,-0.9993,-1.0795,-1.1663,-1.262,-1.3447,-1.4262,-1.483,-1.5197,-1.5504,-1.5792,-1.6079,-1.6286,-1.6313,-1.6787,-1.7361,-1.7949,-1.8063,-1.827,-1.8844,-1.8938,-1.9052,-1.9332,-1.9366,-1.9366,-1.9366,-1.9366,-1.9366,-1.9366,-1.9366,-1.9366,-1.9366,-1.9366,-1.9366,-1.9366,-1.9366,-1.9372,-1.9392,-1.9659,-1.9813,-1.9846,-1.8629,-1.8143,-1.8148,-1.6614,-1.5967,-1.6043,-1.4232,-1.4362,-1.5784,-1.2285,-1.085,-1.085,-1.0721,-1.0721,-1.0721,-1.0721,-1.0721,-1.0721,0.0,0.0,0.0,0.0,0.0,0.0,0.0,0.0,0.0,0.0,0.0,0.0,0.0,-0.916,-0.8902,-0.8652,-0.8053,-0.7298,-0.6289,-0.6256,-0.6067,-0.5529,-0.627,-0.6785,-0.6926,-0.7738,-0.8334,-0.8697,-0.9009,-0.9195,-0.9195,-0.8752,-0.8765,-0.9181,-0.9829,-1.0333,-1.0685,-1.0565,-1.0364,-1.0115,-0.9413,-0.9159,-0.9127,-0.9065,-0.903,-0.9112,-0.9305,-0.9372,-0.9325,-0.9031,-0.8931,-0.8898,-0.8711,-0.8651,-0.8671,-0.8778,-0.9011,-0.9309,-0.9953,-1.0488,-1.1122,-1.2198,-1.2999,-1.3681,-1.4269,-1.4917,-1.5424,-1.5531,-1.5785,-1.6046,-1.6239,-1.6754,-1.7221,-1.7435,-1.7782,-1.8103,-1.833,-1.8524,-1.8758,-1.9045,-1.9085,-1.9158,-1.9352,-1.9366,-1.9366,-1.9366,-1.9366,-1.9366,-1.9366,-1.9366,-1.9366,-1.9366,-1.9366,-1.9366,-1.9366,-1.9472,-1.9619,-1.98,-1.9289,-1.871,-1.8125,-1.7491,-1.6727,-1.5789,-1.4101,-1.3709,-1.4101,-1.1633,-1.0721,-1.0721,-1.0721,-1.0721,-1.0721,-1.0721,-1.0721,-1.0721,0.0,0.0,0.0,0.0,0.0,0.0,0.0,0.0,-0.9531,-0.9814,0.0,0.0,0.0,0.0,-0.8921,-0.8291,-0.7878,-0.7289,-0.6459,-0.6292,-0.5963,-0.5322,-0.582,-0.6168,-0.6294,-0.6851,-0.745,-0.7986,-0.8023,-0.8196,-0.8439,-0.8077,-0.7987,-0.8142,-0.869,-0.926,-0.9851,-0.9829,-0.9658,-0.942,-0.9064,-0.8951,-0.8998,-0.9329,-0.9475,-0.9502,-0.976,-0.9826,-0.9786,-0.9486,-0.9385,-0.9339,-0.9045,-0.8884,-0.8804,-0.8804,-0.8945,-0.9143,-0.9686,-1.0114,-1.0668,-1.1744,-1.2458,-1.3113,-1.3908,-1.4536,-1.5044,-1.5337,-1.5551,-1.5772,-1.6072,-1.6526,-1.6921,-1.7217,-1.7475,-1.7802,-1.8016,-1.8217,-1.845,-1.8744,-1.8778,-1.8891,-1.9192,-1.9219,-1.9259,-1.9359,-1.9366,-1.9366,-1.9366,-1.9366,-1.9366,-1.9366,-1.9366,-1.9366,-1.9366,-1.9366,-1.9466,-1.9653,-1.9161,-1.8184,-1.6993,-1.7077,-1.6102,-1.4003,-1.3556,-1.3325,-1.3193,-1.1372,-1.0721,-1.0721,-1.0721,-1.0721,-1.0721,-1.0721,-1.0721,-1.0721,0.0,0.0,0.0,0.0,0.0,0.0,0.0,0.0,-1.0303,-1.0361,0.0,0.0,0.0,0.0,0.0,-0.8051,-0.7651,-0.7121,-0.6297,-0.5934,-0.5605,-0.5336,-0.5322,-0.5505,-0.5882,-0.6037,-0.6561,-0.755,-0.7692,-0.777,-0.7855,-0.7855,-0.7565,-0.7005,-0.7609,-0.8207,-0.8739,-0.9437,-0.942,-0.8844,-0.907,-0.919,-0.9263,-0.9907,-1.0127,-1.0134,-1.0147,-1.0154,-1.0107,-0.982,-0.9719,-0.9659,-0.9352,-0.9051,-0.8824,-0.8824,-0.8811,-0.8871,0.0,0.0,0.0,-1.1182,-1.185,-1.2599,-1.3768,-1.4062,-1.4329,-1.5184,-1.5378,-1.5484,-1.5765,-1.6059,-1.6446,-1.7027,-1.7134,-1.7341,-1.7936,-1.8023,-1.813,-1.8444,-1.8477,-1.8591,-1.8885,-1.8911,-1.9038,-1.9332,-1.9352,-1.9359,-1.9366,-1.9366,-1.9366,-1.9366,-1.9366,-1.9366,-1.9366,-1.9366,-1.9366,-1.9366,-1.7806,-1.6261,-1.4801,-1.515,-1.3491,-1.0627,-1.2465,-1.3193,-1.3062,-1.1372,-1.0721,-1.0721,-1.0721,-1.0721,-1.0721,-1.0721,-1.0721,-1.0721,0.0,0.0,0.0,0.0,0.0,-1.0244,-1.0674,-1.0732,-1.085,0.0,0.0,0.0,-1.1031,-1.0594,-1.0089,-0.9544,-0.8964,-0.8187,-0.7135,-0.698,-0.6543,-0.5611,-0.5885,-0.5837,-0.5467,-0.5797,-0.6027,-0.6214,-0.6249,-0.6498,-0.6954,-0.6954,-0.6984,-0.7005,-0.7609,-0.7977,-0.8146,-0.8806,-0.9078,-0.907,-0.915,-0.9372,-0.9626,-1.0214,-1.0441,-1.0494,-1.0915,-1.1062,-1.1015,-1.0728,-1.0494,-1.0288,-0.9719,-0.9359,-0.9064,-0.9064,-0.8971,-0.8871,-0.9103,0.0,0.0,0.0,0.0,0.0,-1.2672,-1.3467,-1.4155,-1.4402,-1.495,-1.5424,-1.5504,-1.5752,-1.6079,-1.6453,-1.6693,-1.6961,-1.7341,-1.7395,-1.7589,-1.811,-1.817,-1.8283,-1.8577,-1.8611,-1.8731,-1.9025,-1.9045,-1.9138,-1.9359,-1.9366,-1.9366,-1.9366,-1.9366,-1.9366,-1.9366,-1.9366,-1.9366,-1.9366,-1.7806,-1.6261,-1.4801,-1.3789,-1.2365,-1.05,-1.1173,-1.1372,-1.1372,-1.085,-1.0721,-1.0721,-1.0721,-1.0721,-1.0721,-1.0721,-1.0721,-1.0721,0.0,0.0,-1.004,-1.0244,-1.043,-1.0625,-1.0869,-1.1064,-1.127,0.0,0.0,0.0,-1.129,-1.0695,-1.0107,-0.9619,-0.925,-0.8519,-0.732,-0.7237,-0.6842,-0.5954,-0.6013,-0.586,-0.5464,-0.5459,-0.5543,-0.5711,-0.5591,-0.5892,-0.6587,-0.6587,-0.6747,-0.7005,-0.7609,-0.7882,-0.7928,-0.8691,-0.903,-0.9196,-0.9379,-0.9673,-1.0114,-1.0701,-1.0995,-1.1169,-1.1623,-1.179,-1.1744,-1.1456,-1.1082,-1.0661,-1.0194,-0.9846,-0.9502,-0.9256,-0.9064,-0.8998,-0.9045,-0.9365,-0.98,-1.0261,0.0,0.0,-1.2178,-1.2939,-1.3634,-1.4015,-1.4589,-1.507,-1.5197,-1.5451,-1.5705,-1.5879,-1.6152,-1.6486,-1.6907,-1.6967,-1.7094,-1.7448,-1.7595,-1.7789,-1.8083,-1.823,-1.8424,-1.8724,-1.8744,-1.8871,-1.9165,-1.9185,-1.9239,-1.9366,-1.9366,-1.9366,-1.9366,-1.9366,-1.9366,-1.9366,-1.7806,-1.6211,-1.4676,-1.3265,-1.1826,-1.0415,-1.0629,-1.0721,-1.0721,-1.0721,-1.0721,-1.0721,-1.0721,-1.0721,-1.0721,-1.0721,-1.0721,-1.0721,0.0,0.0,-0.9716,-1.0205,-1.0625,-1.0928,-1.0977,-1.1348,-1.1694,0.0,-1.1655,-1.1423,-1.0876,-1.0231,-0.9616,-0.9035,-0.8894,-0.8352,-0.7161,-0.7094,-0.6827,-0.631,-0.5972,-0.5778,-0.5711,-0.5173,-0.5139,-0.5665,-0.5404,-0.5732,-0.6493,-0.6526,-0.67,-0.7001,-0.7596,-0.7882,-0.7941,-0.8818,-0.9223,-0.9309,-0.9659,-1.0114,-1.0739,-1.1289,-1.1683,-1.1957,-1.2285,-1.2405,-1.2358,-1.2064,-1.1623,-1.1136,-1.0873,-1.0501,-1.0147,-0.9559,-0.9309,-0.9216,-0.8985,-0.9312,-0.9793,-1.0053,-1.0555,0.0,-1.1977,-1.2438,-1.2919,-1.3721,-1.4175,-1.4516,-1.4816,-1.5104,-1.5311,-1.5344,-1.5591,-1.5985,-1.6573,-1.666,-1.6667,-1.67,-1.6941,-1.7201,-1.7462,-1.7769,-1.807,-1.837,-1.845,-1.8604,-1.8865,-1.8905,-1.9045,-1.9312,-1.9352,-1.9366,-1.9366,-1.9366,-1.9366,-1.9366,-1.7566,-1.602,-1.45,-1.3071,-1.163,-1.0297,-1.0575,-1.0704,-1.0721,-1.0721,-1.0721,-1.0721,-1.0721,-1.0721,-1.0721,-1.0721,-1.0721,-1.0721,-1.004,-1.0118,-1.0166,-1.0283,-1.0625,-1.1025,-1.142,-1.1816,-1.2227,-1.2578,-1.2148,-1.154,-1.0854,-1.0216,-0.9665,-0.9358,-0.8813,-0.8276,-0.7776,-0.7522,-0.7221,-0.6867,-0.6573,-0.6199,-0.5725,-0.5598,-0.5484,-0.5364,-0.5342,-0.5484,-0.5885,-0.6162,-0.6431,-0.6713,-0.7555,-0.7882,-0.7941,-0.8818,-0.9455,-0.9973,-1.0267,-1.0601,-1.0995,-1.1817,-1.2171,-1.2285,-1.2839,-1.3033,-1.2986,-1.2679,-1.2573,-1.2385,-1.1854,-1.141,-1.1056,-1.0474,-1.0134,-0.988,-0.9593,-0.9766,-1.0047,-1.01,-1.0555,0.0,-1.1209,-1.1844,-1.2438,-1.2619,-1.3273,-1.3901,-1.4202,-1.4496,-1.477,-1.501,-1.5291,-1.5685,-1.6273,-1.6359,-1.644,-1.6673,-1.676,-1.6814,-1.6867,-1.7148,-1.7442,-1.7736,-1.8217,-1.8517,-1.8577,-1.8798,-1.8951,-1.9011,-1.9239,-1.9366,-1.9366,-1.9366,-1.9366,-1.9366,-1.6503,-1.4955,-1.4495,-1.1717,-1.0409,-1.029,-1.0463,-1.0605,-1.0721,-1.0721,-1.0721,-1.0721,-1.0721,-1.0721,-1.0721,-1.0721,-1.0721,-1.0721,-0.9439,-0.9518,-0.9542,-0.969,-1.0049,-1.0436,-1.084,-1.1235,-1.1567,-1.1814,-1.1701,-1.1464,-1.128,-1.0931,-1.0485,-0.9895,-0.9517,-0.9022,-0.8183,-0.8009,-0.7789,-0.7443,-0.7047,-0.6667,-0.6373,-0.5939,-0.5638,-0.5498,-0.5351,-0.5537,-0.5939,-0.6122,-0.6505,-0.7054,-0.7662,-0.8009,-0.821,-0.9085,-0.9713,-1.014,-1.0441,-1.0995,-1.1697,-1.2131,-1.2579,-1.3033,-1.3487,-1.3741,-1.3841,-1.3681,-1.3534,-1.3313,-1.2726,-1.2438,-1.2138,-1.1249,-1.0788,-1.0454,-1.002,-1.0007,-1.0114,-1.0114,-1.0448,0.0,0.0,-1.1443,-1.1911,-1.2058,-1.2679,-1.324,-1.3394,-1.3781,-1.4135,-1.4282,-1.4676,-1.5064,-1.5357,-1.5778,-1.6106,-1.6253,-1.64,-1.6486,-1.6486,-1.6754,-1.7054,-1.7341,-1.7649,-1.7956,-1.8257,-1.8404,-1.8617,-1.8911,-1.9065,-1.9219,-1.9366,-1.9366,-1.9366,-1.9366,-1.6149,-1.4604,-1.449,-1.144,-1.0134,-1.0287,-1.0429,-1.0578,-1.0721,-1.0721,-1.0721,-1.0721,-1.0721,-1.0721,-1.0721,-1.0721,-1.0721,-1.0721,-0.8651,-0.8733,-0.8832,-0.9076,-0.9469,-0.99,-1.0148,-1.0541,-1.0795,-1.0707,-1.0979,-1.12,-1.1311,-1.1287,-1.1017,-1.0269,-1.0192,-0.9764,-0.8709,-0.8517,-0.835,-0.8061,-0.7477,-0.7098,-0.6985,-0.6326,-0.5912,-0.5798,-0.5564,-0.5726,-0.6196,-0.625,-0.6686,-0.7439,-0.7762,-0.8123,-0.8517,-0.9399,-0.9967,-1.0321,-1.0735,-1.1496,-1.2405,-1.2579,-1.3133,-1.3854,-1.4148,-1.4409,-1.4603,-1.4603,-1.4449,-1.4162,-1.3627,-1.3427,-1.3166,-1.2084,-1.1516,-1.1129,-1.0595,-1.0414,-1.0354,-1.0301,-1.0468,-1.0688,0.0,0.0,0.0,-1.165,-1.2197,-1.258,-1.264,-1.3019,-1.3367,-1.3307,-1.3895,-1.4309,-1.4195,-1.4937,-1.5538,-1.5651,-1.5925,-1.6106,-1.6106,-1.642,-1.6747,-1.7041,-1.7114,-1.7361,-1.7849,-1.7983,-1.8263,-1.8738,-1.8865,-1.9038,-1.9279,-1.9339,-1.9243,-1.8887,-1.6026,-1.4485,-1.4009,-1.1283,-1.0107,-1.0287,-1.0402,-1.0555,-1.0721,-1.0721,-1.0721,-1.0721,-1.0721,-1.0721,-1.0721,-1.0721,-1.0721,-1.0721,-0.8577,-0.8889,-0.9076,-0.9117,-0.9681,-1.0139,-1.0188,-1.0541,-1.068,-1.0425,-1.0594,-1.0528,-1.0013,-0.9904,-0.9891,-0.9806,-0.9748,-0.9721,-0.9539,-0.9051,-0.8744,-0.8711,-0.8143,-0.753,-0.7034,-0.6921,-0.662,-0.6142,-0.6109,-0.6129,-0.6203,-0.6458,-0.6734,-0.7101,-0.7629,-0.8237,-0.8818,-0.9693,-1.0388,-1.0962,-1.1777,-1.2338,-1.2856,-1.3581,-1.4108,-1.4456,-1.4756,-1.489,-1.491,-1.491,-1.489,-1.4803,-1.4476,-1.4195,-1.3861,-1.32,-1.2605,-1.2084,-1.1757,-1.1476,-1.1216,-1.0962,-1.0922,-1.0882,-1.0661,0.0,-1.1049,-1.1082,0.0,-1.1657,-1.1917,0.0,0.0,-1.2111,-1.3013,-1.3554,-1.3026,-1.3721,-1.4476,-1.4997,-1.5317,-1.5498,-1.5498,-1.5999,-1.644,-1.6734,-1.7001,-1.7181,-1.7248,-1.7756,-1.8076,-1.8143,-1.8651,-1.8938,-1.8978,-1.9232,-1.8648,-1.7208,-1.5429,-1.3889,-1.2453,-1.0679,-1.0005,-1.0283,-1.0297,-1.0463,-1.0721,-1.0721,-1.0721,-1.0721,-1.0721,-1.0721,-1.0721,-1.0721,-1.0721,-1.0721,-0.8155,-0.8209,-0.8282,-0.8631,-0.8963,-0.9204,-0.9336,-0.9687,-1.0031,-1.0439,-1.0583,-1.0677,-1.0655,-1.0695,-1.0628,-1.0461,-1.0287,-1.012,-0.9947,-0.9546,-0.9239,-0.9065,-0.8657,-0.8237,-0.7816,-0.7295,-0.6901,-0.666,-0.6357,-0.6283,-0.6451,-0.6707,-0.7094,-0.753,-0.817,-0.8671,-0.9112,-1.0,-1.0715,-1.1323,-1.2204,-1.3046,-1.3801,-1.4008,-1.4476,-1.507,-1.5357,-1.5464,-1.5464,-1.5464,-1.5464,-1.5411,-1.5124,-1.4943,-1.473,-1.4142,-1.3547,-1.3019,-1.2726,-1.2298,-1.1864,-1.157,-1.1503,-1.1423,-1.1129,-1.1156,-1.1196,-1.1029,0.0,0.0,0.0,0.0,0.0,0.0,-1.2171,-1.2525,-1.2271,-1.2712,-1.34,-1.4342,-1.471,-1.5023,-1.5364,-1.5772,-1.6139,-1.6433,-1.6573,-1.6787,-1.7134,-1.7388,-1.7689,-1.8036,-1.829,-1.8577,-1.8918,-1.8103,-1.753,-1.6968,-1.4475,-1.2813,-1.2093,-1.0539,-0.9988,-1.028,-1.028,-1.0446,-1.0721,-1.0721,-1.0721,-1.0721,-1.0721,-1.0721,-1.0721,-1.0721,-1.0721,-1.0721,-0.8156,-0.7923,-0.7903,-0.8346,-0.8437,-0.8591,-0.8884,-0.9312,-0.9833,-1.0537,-1.0833,-1.1076,-1.1503,-1.155,-1.1463,-1.1249,-1.0962,-1.0708,-1.0488,-1.02,-0.9913,-0.9613,-0.9245,-0.8871,-0.8504,-0.7769,-0.7355,-0.7231,-0.6854,-0.6747,-0.6961,-0.7174,-0.7548,-0.8076,-0.8584,-0.9058,-0.9475,-1.0341,-1.1062,-1.1744,-1.2632,-1.3701,-1.4743,-1.4616,-1.4957,-1.5545,-1.5752,-1.5832,-1.5832,-1.5832,-1.5832,-1.5792,-1.5578,-1.5464,-1.5311,-1.4883,-1.4342,-1.3834,-1.3627,-1.3133,-1.2599,-1.2311,-1.2171,-1.2011,-1.163,-1.155,-1.1443,-1.1069,-1.1156,0.0,0.0,0.0,-1.1229,-1.0989,0.0,-1.1543,-1.1303,-1.159,-1.2298,-1.3567,-1.4122,-1.4603,-1.511,-1.5491,-1.5798,-1.6019,-1.6179,-1.646,-1.6887,-1.7061,-1.7348,-1.7789,-1.7963,-1.829,-1.8804,-1.7242,-1.6478,-1.6256,-1.3522,-1.1976,-1.1495,-1.0301,-0.9988,-1.028,-1.028,-1.0446,-1.0721,-1.0721,-1.0721,-1.0721,-1.0721,-1.0721,-1.0721,-1.0721,-1.0721,-1.0721,-0.8724,-0.8544,-0.835,-0.842,-0.8604,-0.8891,-0.913,-0.996,-1.0591,-1.0618,-1.1296,-1.183,-1.1857,-1.1857,-1.185,-1.1844,-1.157,-1.1396,-1.1383,-1.1109,-1.0822,-1.0598,-0.9967,-0.9385,-0.8804,-0.849,-0.819,-0.7855,-0.7835,-0.7835,-0.7842,-0.7848,-0.8063,-0.8377,-0.8671,-0.9285,-1.0127,-1.0728,-1.1476,-1.2351,-1.3253,-1.4322,-1.5398,-1.5671,-1.5792,-1.5812,-1.5825,-1.5832,-1.5832,-1.5832,-1.5832,-1.5832,-1.5818,-1.5625,-1.5391,-1.5378,-1.495,-1.4489,-1.4482,-1.4048,-1.3453,-1.324,-1.2939,-1.264,-1.1984,-1.1857,-1.169,-1.1116,-1.1002,-1.0915,-1.0628,-1.0815,-1.0728,-0.988,-1.0461,0.0,0.0,-1.0254,-1.1223,-1.2688,-1.3567,-1.4215,-1.4522,-1.507,-1.5418,-1.5424,-1.5952,-1.6279,-1.6299,-1.684,-1.7257,-1.7181,-1.7742,-1.8196,-1.8504,-1.7151,-1.5892,-1.4604,-1.2928,-1.1378,-0.9819,-0.9819,-0.9988,-1.028,-1.028,-1.0446,-1.0721,-1.0721,-1.0721,-1.0721,-1.0721,-1.0721,-1.0721,-1.0721,-1.0721,-1.0721,-0.8791,-0.8731,-0.8657,-0.8657,-0.8744,-0.9038,-0.9713,-1.0241,-1.09,-1.161,-1.1971,-1.2311,-1.2712,-1.2759,-1.2759,-1.2759,-1.2478,-1.2298,-1.2298,-1.2024,-1.1643,-1.1156,-1.0762,-1.0187,-0.9406,-0.8911,-0.8517,-0.8223,-0.8029,-0.7882,-0.7888,-0.813,-0.8277,-0.8454,-0.9085,-0.9659,-1.018,-1.1156,-1.2091,-1.3013,-1.4289,-1.5157,-1.5691,-1.5792,-1.5952,-1.6119,-1.6119,-1.6246,-1.6413,-1.6413,-1.6279,-1.6119,-1.6119,-1.5919,-1.5678,-1.5678,-1.5404,-1.5104,-1.5104,-1.4816,-1.4449,-1.4148,-1.3854,-1.3534,-1.3133,-1.2732,-1.2338,-1.1937,-1.171,-1.1423,-1.0935,-1.0929,-1.0835,-1.0341,-1.0347,-1.0307,0.0,-1.014,-1.0521,-1.1283,-1.2499,-1.332,-1.3627,-1.4355,-1.4897,-1.5097,-1.5471,-1.5865,-1.6253,-1.646,-1.6747,-1.7141,-1.7348,-1.7782,-1.8484,-1.6973,-1.5736,-1.4604,-1.2933,-1.1378,-0.9822,-0.9822,-0.9988,-1.028,-1.028,-1.0446,-1.0721,-1.0721,-1.0721,-1.0721,-1.0721,-1.0721,-1.0721,-1.0721,-1.0721,-1.0721,-0.8804,-0.8804,-0.8804,-0.8804,-0.8978,-0.9379,-1.0154,-1.0701,-1.1336,-1.2191,-1.2579,-1.2973,-1.3467,-1.352,-1.3567,-1.3667,-1.34,-1.3227,-1.3227,-1.2946,-1.2512,-1.1917,-1.1516,-1.0942,-1.0167,-0.9472,-0.9025,-0.8838,-0.8437,-0.8243,-0.8243,-0.8437,-0.853,-0.8564,-0.9339,-0.996,-1.0494,-1.1463,-1.2512,-1.3627,-1.489,-1.5631,-1.5985,-1.5985,-1.6172,-1.6426,-1.6426,-1.6547,-1.6707,-1.6707,-1.6587,-1.6426,-1.6426,-1.6293,-1.6119,-1.6019,-1.5858,-1.5685,-1.5578,-1.5337,-1.507,-1.4877,-1.4616,-1.4322,-1.4021,-1.3574,-1.3113,-1.2705,-1.2305,-1.1904,-1.153,-1.1289,-1.1049,-1.0762,-1.0468,-1.0167,0.0,-0.9893,-1.0033,-1.0221,-1.145,-1.2478,-1.2993,-1.3748,-1.4422,-1.493,-1.5237,-1.5605,-1.6086,-1.6213,-1.6493,-1.6974,-1.7094,-1.7528,-1.8323,-1.6269,-1.5031,-1.4478,-1.2299,-1.0778,-0.9822,-0.9822,-0.9988,-1.028,-1.028,-1.0446,-1.0721,-1.0721,-1.0721,-1.0721,-1.0721,-1.0721,-1.0721,-1.0721,-1.0721,-1.0721,-0.8811,-0.8818,-0.8844,-0.8884,-0.9352,-0.9927,-1.0577,-1.1404,-1.2011,-1.2345,-1.3133,-1.3781,-1.4095,-1.4128,-1.4242,-1.4516,-1.4203,-1.4044,-1.4128,-1.3695,-1.3272,-1.2916,-1.2184,-1.1593,-1.1049,-1.0126,-0.9674,-0.9706,-0.9118,-0.8831,-0.8831,-0.8811,-0.8818,-0.8851,-0.9446,-1.0194,-1.1056,-1.167,-1.2792,-1.4229,-1.5077,-1.5772,-1.6293,-1.6293,-1.648,-1.6747,-1.6734,-1.6734,-1.6747,-1.6747,-1.674,-1.6727,-1.6727,-1.6714,-1.6653,-1.6373,-1.6293,-1.6226,-1.5932,-1.5651,-1.5438,-1.5424,-1.5197,-1.491,-1.4629,-1.4329,-1.3955,-1.3387,-1.2792,-1.2365,-1.2351,-1.1864,-1.1376,-1.1082,-1.0768,-1.0254,-0.9329,-0.9492,-0.9673,-0.9699,-1.0688,-1.171,-1.2674,-1.324,-1.3961,-1.483,-1.5197,-1.5504,-1.5792,-1.6086,-1.6393,-1.6693,-1.6981,-1.7422,-1.7928,-1.516,-1.3914,-1.4023,-1.1291,-0.9819,-0.9822,-0.9822,-0.9988,-1.028,-1.028,-1.0446,-1.0721,-1.0721,-1.0721,-1.0721,-1.0721,-1.0721,-1.0721,-1.0721,-1.0721,-1.0721,-0.8851,-0.8978,-0.9339,-0.9993,-1.0295,-1.0534,-1.1116,-1.177,-1.2538,-1.3507,-1.3828,-1.4168,-1.4683,-1.4736,-1.477,-1.4843,-1.3862,-1.3729,-1.4736,-1.285,-1.2319,-1.3685,-1.1659,-1.0833,-1.1663,-1.0188,-0.9611,-1.0007,-0.9419,-0.907,-0.907,-0.8911,-0.8925,-0.9097,-0.974,-1.0494,-1.1383,-1.2425,-1.3714,-1.5097,-1.5538,-1.6072,-1.6593,-1.6593,-1.6914,-1.7328,-1.7114,-1.7174,-1.7355,-1.7355,-1.7215,-1.7034,-1.7034,-1.6881,-1.6693,-1.6613,-1.6593,-1.6533,-1.6239,-1.6106,-1.5992,-1.5772,-1.5504,-1.5264,-1.519,-1.4776,-1.4362,-1.4215,-1.3714,-1.3233,-1.3019,-1.2485,-1.1984,-1.169,-1.1102,-1.0327,-0.9666,-0.9446,-0.9512,-0.9953,-1.0267,-1.0795,-1.1677,-1.2498,-1.326,-1.3928,-1.4663,-1.5204,-1.5491,-1.5785,-1.6179,-1.6693,-1.678,-1.6678,-1.6466,-1.5841,-1.4495,-1.2516,-1.1885,-1.102,-0.9822,-0.9822,-0.9988,-1.028,-1.028,-1.0446,-1.0721,-1.0721,-1.0721,-1.0721,-1.0721,-1.0721,-1.0721,-1.0721,-1.0721,-1.0721,-0.9245,-0.9526,-1.0053,-1.0808,-1.0741,-1.0729,-1.0966,-1.212,-1.3008,-1.3277,-1.4038,-1.446,-1.4352,-1.4305,-1.4355,-1.4482,-1.3263,-1.3077,-1.4396,-1.2494,-1.172,-1.2698,-1.1123,-1.0486,-1.1029,-0.9818,-0.9416,-0.9903,-0.9297,-0.9149,-0.9426,-0.9265,-0.9345,-0.9639,-1.01,-1.0868,-1.1904,-1.336,-1.4529,-1.5431,-1.5852,-1.6299,0.0,-1.6847,-1.7268,-1.7762,-1.7602,-1.7649,-1.7802,-1.7936,-1.7869,-1.7716,-1.7582,-1.7428,-1.7241,-1.6974,-1.6901,-1.6834,-1.654,-1.646,-1.6393,-1.6099,-1.5899,-1.5745,-1.5611,-1.5231,-1.4903,-1.4903,-1.4436,-1.4015,-1.3981,-1.338,-1.2705,-1.2144,-1.1536,-1.0947,-1.0167,-0.992,-0.9893,-1.0094,-1.0114,-1.0461,-1.1343,-1.2225,-1.2999,-1.3594,-1.4342,-1.495,-1.5378,-1.5551,-1.5905,-1.65,-1.664,-1.6273,-1.5464,-1.5166,-1.3987,-1.1811,-1.1375,-1.066,-0.9822,-0.9822,-0.9988,-1.028,-1.028,-1.0446,-1.0721,-1.0721,-1.0721,-1.0721,-1.0721,-1.0721,-1.0721,-1.0721,-1.0721,-1.0721,-0.996,-1.0321,-1.0882,-1.1543,-1.1144,-1.0743,-1.0653,-1.2086,-1.2977,-1.2261,-1.3603,-1.4195,-1.3327,-1.3162,-1.3343,-1.3567,-1.2431,-1.2237,-1.3584,-1.2035,-1.107,-1.1139,-1.0413,-1.0028,-1.0045,-0.9274,-0.913,-0.9825,-0.9226,-0.9241,-0.9853,-0.9813,-0.9953,-1.0247,-1.0581,-1.1354,-1.2464,-1.4243,-1.5119,-1.5365,-1.6066,-1.6473,-1.68,-1.7094,-1.7555,-1.8056,-1.8136,-1.8136,-1.8143,-1.8404,-1.849,-1.8444,-1.819,-1.8103,-1.8003,-1.7475,-1.7295,-1.7201,-1.6901,-1.6794,-1.6693,-1.64,-1.6333,-1.6253,-1.5952,-1.5691,-1.5498,-1.5464,-1.5017,-1.4716,-1.4977,-1.4295,-1.342,-1.2559,-1.2178,-1.1703,-1.0967,-1.0819,-1.0635,-1.0374,-1.0347,0.0,-1.1356,-1.2158,-1.2893,-1.354,-1.4128,-1.4723,-1.5311,-1.5378,-1.5665,-1.6253,-1.6348,-1.5929,-1.5082,-1.393,-1.2799,-1.1578,-1.0397,-0.9822,-0.9822,-0.9822,-0.9988,-1.028,-1.028,-1.0446,-1.0721,-1.0721,-1.0721,-1.0721,-1.0721,-1.0721,-1.0721,-1.0721,-1.0721,-1.0721,-1.1129,-1.1202,-1.1617,-1.2705,-1.2123,-1.1316,-1.0859,-1.0864,-1.1123,-1.162,-1.1957,-1.2099,-1.2149,-1.2174,-1.219,-1.2231,-1.1068,-1.0877,-1.2139,-0.9964,-0.9474,-1.1358,-0.9411,-0.8946,-1.048,-0.9087,-0.908,-1.0602,-0.9893,-0.994,-1.0755,-1.0521,-1.0561,-1.0862,-1.1396,-1.2024,-1.2697,-1.452,-1.5049,-1.4625,-1.583,-1.6593,-1.7101,-1.7395,-1.7736,-1.811,-1.8597,-1.8617,-1.8424,-1.847,-1.849,-1.8484,-1.843,-1.841,-1.839,-1.829,-1.8083,-1.7822,-1.7508,-1.7255,-1.7001,-1.67,-1.6627,-1.6553,-1.6259,-1.6159,-1.6052,-1.5805,-1.5484,-1.5257,-1.5311,-1.4603,-1.3801,-1.316,-1.2792,-1.2452,-1.2051,-1.179,-1.1623,-1.157,-1.1563,-1.1523,-1.143,-1.179,0.0,-1.322,-1.3828,-1.4416,-1.501,-1.5264,-1.5665,-1.6253,-1.5332,-1.5082,-1.5347,-1.301,-1.1842,-1.1887,-1.0448,-0.9822,-0.9822,-0.9822,-0.9988,-1.028,-1.028,-1.0446,-1.0721,-1.0721,-1.0721,-1.0721,-1.0721,-1.0721,-1.0721,-1.0721,-1.0721,-1.0721,-1.2291,-1.2351,-1.2444,-1.2858,-1.1935,-1.0953,-1.0219,-0.9556,-0.941,-1.0522,-1.1225,-1.1574,-1.11,-1.1024,-1.1065,-1.1075,-0.9981,-0.9778,-1.1084,-0.9299,-0.8621,-0.9813,-0.8567,-0.8214,-0.9169,-0.828,-0.8723,-1.0379,-1.0042,-1.0461,-1.167,-1.153,-1.1623,-1.1937,-1.198,-1.2234,-1.2668,-1.3835,-1.4368,-1.4469,-1.5927,-1.6854,-1.7408,-1.7709,-1.8103,-1.8537,-1.8824,-1.8931,-1.8945,-1.8945,-1.8945,-1.8918,-1.8764,-1.8718,-1.8684,-1.8537,-1.839,-1.8243,-1.8096,-1.7842,-1.7542,-1.7235,-1.7048,-1.686,-1.6567,-1.65,-1.6413,-1.6119,-1.5945,-1.5758,-1.5451,-1.505,-1.4576,-1.3988,-1.3768,-1.346,-1.2859,-1.2652,-1.2452,-1.2131,-1.2091,0.0,0.0,0.0,0.0,0.0,0.0,-1.4182,-1.4923,-1.5097,-1.5153,-1.5036,-1.4648,-1.394,-1.2805,-1.1921,-1.1244,-1.0642,-1.0067,-0.9822,-0.9822,-0.9822,-0.9988,-1.028,-1.028,-1.0446,-1.0721,-1.0721,-1.0721,-1.0721,-1.0721,-1.0721,-1.0721,-1.0721,-1.0721,-1.0721,-1.3052,-1.3069,-1.2895,-1.2409,-1.1356,-1.0324,-0.9778,-0.868,-0.8297,-0.9356,-1.0453,-1.0816,-0.99,-0.9819,-0.9875,-1.002,-0.9104,-0.8895,-0.9928,-0.8991,-0.8316,-0.8316,-0.8055,-0.7909,-0.7909,-0.7736,-0.8364,-0.9819,-1.0032,-1.0746,-1.1771,-1.2381,-1.2678,-1.2745,-1.2457,-1.2201,-1.2018,-1.2774,-1.3335,-1.3663,-1.5242,-1.6413,-1.7271,-1.713,-1.7896,-1.8818,-1.8636,-1.8929,-1.9366,-1.9366,-1.9366,-1.9325,-1.9092,-1.9018,-1.8971,-1.8744,-1.8631,-1.8584,-1.8584,-1.837,-1.7968,-1.7394,-1.7338,-1.7158,-1.6126,-1.643,-1.6613,-1.6019,-1.6117,-1.6132,-1.5665,-1.5478,-1.5244,-1.4783,-1.4656,-1.4376,-1.3681,-1.3581,-1.338,-1.2839,-1.2719,0.0,-1.2679,0.0,0.0,0.0,0.0,-1.4095,-1.4917,-1.5023,-1.4819,-1.4345,-1.4178,-1.3238,-1.1431,-1.1193,-1.0651,-1.0008,-0.9813,-0.9822,-0.9822,-0.9822,-0.9988,-1.028,-1.028,-1.0446,-1.0721,-1.0721,-1.0721,-1.0721,-1.0721,-1.0721,-1.0721,-1.0721,-1.0721,-1.0721,-1.2829,-1.2621,-1.2426,-1.1734,-1.0508,-0.9694,-1.0054,-0.9022,-0.833,-0.8428,-0.854,-0.8607,-0.865,-0.8668,-0.8671,-0.8689,-0.8584,-0.8587,-0.8689,-0.8573,-0.8462,-0.8462,-0.8313,-0.8228,-0.8228,-0.794,-0.827,-0.9187,-1.0182,-1.0486,-1.0187,-1.2721,-1.3464,-1.2598,-1.2808,-1.1794,-0.988,-1.1629,-1.1851,-1.1165,-1.2606,-1.4344,-1.5908,-1.4713,-1.6226,-1.8724,-1.756,-1.8144,-1.9366,-1.9366,-1.9366,-1.9366,-1.9332,-1.9325,-1.9319,-1.9292,-1.9092,-1.8885,-1.8885,-1.8671,-1.8098,-1.6585,-1.7058,-1.7111,-1.4014,-1.5281,-1.6708,-1.5083,-1.5543,-1.6253,-1.6199,-1.5752,-1.5378,-1.5324,-1.509,-1.4897,-1.481,-1.4796,-1.4676,-1.4349,-1.4082,-1.3921,-1.3921,-1.3467,0.0,0.0,-1.4015,-1.4315,-1.493,-1.5211,-1.5405,-1.5622,-1.3679,-1.3214,-1.4579,-1.126,-1.0368,-1.1791,-1.0456,-0.9822,-0.9822,-0.9822,-0.9988,-1.028,-1.028,-1.0446,-1.0721,-1.0721,-1.0721,-1.0721,-1.0721,-1.0721,-1.0721,-1.0721,-1.0721,-1.0721,-1.2027,-1.1983,-1.1662,-1.0849,-1.0237,-0.9738,-0.9274,-0.8702,-0.8431,-0.8523,-0.8455,-0.8455,-0.8604,-0.8618,-0.8693,-0.8869,-0.8804,-0.8794,-0.8879,-0.872,-0.8618,-0.8618,-0.8476,-0.8357,-0.8272,-0.815,-0.8554,-0.9329,-1.0645,-1.1447,-1.179,-1.2916,-1.2856,-1.1695,-1.1096,-1.0464,-0.9705,-1.0649,-1.095,-1.0944,-1.2302,-1.3619,-1.4607,-1.4266,-1.4966,-1.6249,-1.5751,-1.6026,-1.6503,-1.6503,-1.7214,-1.7923,-1.7923,-1.7331,-1.6503,-1.6503,-1.6434,-1.6355,-1.6355,-1.616,-1.5738,-1.5156,-1.5203,-1.5116,-1.3679,-1.4259,-1.4674,-1.3794,-1.4476,-1.5519,-1.6427,-1.6199,-1.5925,-1.5925,-1.5678,-1.5424,-1.5251,-1.5224,-1.5117,-1.4823,-1.4683,-1.4543,-1.4362,-1.4295,-1.4289,-1.4342,-1.4182,-1.4342,-1.493,-1.5237,-1.5145,-1.4651,-1.3179,-1.2334,-1.221,-1.0328,-0.9754,-1.0394,-0.9943,-0.9822,-0.9822,-0.9822,-0.9988,-1.029,-1.0466,-1.0612,-1.0721,-1.0721,-1.0721,-1.0721,-1.0721,-1.0721,-1.0721,-1.0721,-1.0721,-1.0721,-1.1182,-1.121,-1.0815,-0.9896,-0.9741,-0.9393,-0.8628,-0.8587,-0.8669,-0.8821,-0.8784,-0.8771,-0.8835,-0.8879,-0.8991,-0.9201,-0.9127,-0.9113,-0.9215,-0.8981,-0.8842,-0.8842,-0.8652,-0.8503,-0.8401,-0.8353,-0.8631,-0.9182,-1.048,-1.1263,-1.1531,-1.189,-1.1619,-1.0816,-1.0069,-0.964,-0.9469,-0.9642,-0.9991,-1.0389,-1.1437,-1.252,-1.3356,-1.2924,-1.3579,-1.4485,-1.4004,-1.4247,-1.4604,-1.4604,-1.5074,-1.566,-1.6138,-1.5548,-1.4604,-1.4604,-1.4604,-1.4604,-1.4604,-1.4483,-1.4234,-1.3766,-1.3722,-1.3561,-1.2648,-1.306,-1.3522,-1.3197,-1.4022,-1.5065,-1.6024,-1.6295,-1.64,-1.64,-1.6152,-1.5885,-1.5685,-1.5578,-1.5444,-1.5244,-1.5144,-1.5044,-1.4917,-1.4937,-1.491,-1.479,-1.4589,-1.4649,-1.507,-1.4989,-1.4691,-1.3984,-1.2607,-1.1399,-1.0527,-0.9767,-0.9381,-0.9384,-0.968,-0.9822,-0.9825,-0.9914,-1.0076,-1.0297,-1.0592,-1.0721,-1.0721,-1.0721,-1.0721,-1.0721,-1.0721,-1.0721,-1.0721,-1.0721,-1.0721,-1.0721,-1.0638,-1.0431,-1.002,-0.879,-0.8479,-0.853,-0.8682,-0.8835,-0.8984,-0.9127,-0.9276,-0.9313,-0.9164,-0.9283,-0.9374,-0.9378,-0.9378,-0.9374,-0.9378,-0.9235,-0.9147,-0.9147,-0.8866,-0.8706,-0.8706,-0.8557,-0.8476,-0.8472,-0.9638,-0.9497,-0.8109,-0.9414,-1.0113,-1.026,-1.0347,-0.9711,-0.8486,-0.8638,-0.8794,-0.8947,-0.9205,-1.0352,-1.1812,-1.0306,-1.1708,-1.4366,-1.2813,-1.3292,-1.4604,-1.4604,-1.3526,-1.2573,-1.4128,-1.4604,-1.4604,-1.4604,-1.4604,-1.4604,-1.4604,-1.4599,-1.4242,-1.2569,-1.324,-1.3436,-1.0306,-1.1786,-1.363,-1.3532,-1.4402,-1.5128,-1.5082,-1.596,-1.67,-1.67,-1.646,-1.6266,-1.6259,-1.6012,-1.5818,-1.5818,-1.5565,-1.5504,-1.5785,-1.5297,-1.5084,-1.5364,-1.5384,-1.5384,-1.5391,-1.4502,-1.399,-1.4057,-1.1671,-1.0531,-1.0724,-0.9825,-0.9381,-0.9384,-0.968,-0.9822,-0.9832,-1.0134,-1.0276,-1.0297,-1.0592,-1.0721,-1.0721,-1.0721,-1.0721,-1.0721,-1.0721,-1.0721,-1.0721,-1.0721,-1.0721,-1.0721,-0.9205,-0.91,-0.9068,-0.8865,-0.8794,-0.8879,-0.913,-0.9208,-0.9259,-0.9303,-0.9442,-0.9517,-0.9469,-0.9415,-0.9422,-0.9527,-0.9442,-0.9425,-0.953,-0.9395,-0.931,-0.931,-0.912,-0.8967,-0.8869,-0.8716,-0.8587,-0.8482,-0.9768,-1.0103,-0.9624,-1.0113,-0.9875,-0.9027,-0.9078,-0.9016,-0.8798,-0.8845,-0.9011,-0.9252,-0.9405,-0.987,-1.0317,-0.9954,-1.0379,-1.1257,-1.0778,-1.0899,-1.1378,-1.1378,-1.102,-1.066,-1.114,-1.1378,-1.1378,-1.1378,-1.1378,-1.1378,-1.1378,-1.1378,-1.1257,-1.066,-1.0857,-1.0936,-0.9988,-1.0343,-1.1105,-1.1946,-1.2415,-1.3199,-1.5178,-1.5571,-1.5971,-1.6932,-1.676,-1.6567,-1.6567,-1.6319,-1.6132,-1.6132,-1.5872,-1.5732,-1.5818,-1.5665,-1.5591,-1.5685,-1.5691,-1.5605,-1.5404,-1.4496,-1.408,-1.4068,-1.1813,-1.0724,-1.0795,-0.988,-0.9435,-0.954,-0.973,-0.9822,-0.9829,-1.0032,-1.0181,-1.029,-1.048,-1.0622,-1.0721,-1.0721,-1.0721,-1.0721,-1.0721,-1.0721,-1.0721,-1.0721,-1.0721,-1.0721,-0.8821,-0.8821,-0.8879,-0.9072,-0.9106,-0.9167,-0.9354,-0.9432,-0.9466,-0.9466,-0.9598,-0.969,-0.969,-0.9602,-0.9585,-0.968,-0.9602,-0.9588,-0.9683,-0.9551,-0.9466,-0.9466,-0.932,-0.9195,-0.9106,-0.9011,-0.8886,-0.8733,-0.9462,-0.9785,-0.9723,-0.9789,-0.933,-0.8655,-0.871,-0.8872,-0.9106,-0.9106,-0.9245,-0.9476,-0.9571,-0.9642,-0.97,-0.9788,-0.9822,-0.9822,-0.9822,-0.9822,-0.9822,-0.9822,-0.9822,-0.9822,-0.9822,-0.9822,-0.9822,-0.9822,-0.9822,-0.9822,-0.9822,-0.9822,-0.9822,-0.9822,-0.9822,-0.9822,-0.9822,-0.9751,-0.9881,-1.065,-1.1185,-1.2161,-1.3765,-1.4382,-1.5081,-1.6449,-1.6386,-1.6266,-1.6786,-1.662,-1.6433,-1.6433,-1.6273,-1.6159,0.0,-1.6159,-1.6159,-1.6159,-1.6159,-1.5783,-1.5121,-1.4045,-1.3252,-1.2822,-1.0918,-1.0097,-1.0212,-0.971,-0.9459,-0.9612,-0.9754,-0.9822,-0.9825,-0.9978,-1.0134,-1.0287,-1.0429,-1.0578,-1.0721,-1.0721,-1.0721,-1.0714,-1.0656,-1.0633,-1.0629,-1.0575,-1.0555,-1.0555,-0.9381,-0.9381,-0.9384,-0.9395,-0.9398,-0.9401,-0.9412,-0.9534,-0.9625,-0.9625,-0.9741,-0.9822,-0.9822,-0.9822,-0.9822,-0.9822,-0.9822,-0.9822,-0.9822,-0.9696,-0.9625,-0.9625,-0.9479,-0.9398,-0.9398,-0.9388,-0.931,-0.9167,-0.8893,-0.8686,-0.8547,-0.8689,-0.8835,-0.8977,-0.911,-0.9252,-0.9398,-0.9398,-0.9486,-0.9625,-0.9625,-0.9703,-0.9822,-0.9832,-0.9836,-0.9839,-0.9849,-0.9852,-0.9852,-0.9839,-0.9836,-0.9836,-0.9825,-0.9822,-0.9822,-0.9822,-0.9822,-0.9822,-0.9822,-0.9822,-0.9822,-0.9822,-0.9822,-0.9822,-0.9822,-0.9822,-0.9785,-0.9652,-1.0676,-1.167,-1.1594,-1.2694,-1.3984,-1.5325,-1.5418,-1.5713,-1.6931,-1.6947,-1.676,-1.6633,-1.6513,0.0,-1.64,-1.6393,-1.6393,-1.6393,-1.6393,-1.579,-1.4372,-1.2936,-1.1694,-1.0715,-0.937,-0.8879,-0.9164,-0.932,-0.9473,-0.9625,-0.9758,-0.9822,-0.9825,-0.9968,-1.0117,-1.0273,-1.0402,-1.0548,-1.069,-1.069,-1.069,-1.0677,-1.0531,-1.0477,-1.0463,-1.0331,-1.028,-1.028,-0.9381,-0.9381,-0.9418,-0.9537,-0.9554,-0.9591,-0.97,-0.9747,-0.9771,-0.9771,-0.9798,-0.9822,-0.9822,-0.9822,-0.9822,-0.9822,-0.9822,-0.9822,-0.9822,-0.9788,-0.9771,-0.9771,-0.9632,-0.9554,-0.9554,-0.9442,-0.9364,-0.9327,-0.9256,-0.9201,-0.9171,-0.9205,-0.9242,-0.9279,-0.9313,-0.9412,-0.9554,-0.9554,-0.9639,-0.9771,-0.9771,-0.9791,-0.9832,-0.9951,-0.9995,-1.0012,-1.0131,-1.0171,-1.0154,-1.0036,-0.9995,-0.9975,-0.9859,-0.9822,-0.9822,-0.9822,-0.9822,-0.9822,-0.9822,-0.9822,-0.9822,-0.9822,-0.9822,-0.9822,-0.9822,-0.9822,-0.9812,-0.9778,-1.0009,-1.0554,-1.1557,-1.1987,-1.2614,-1.3994,-1.5155,-1.5928,-1.6,-1.681,-1.6866,-1.5597,-1.5185,-1.4648,-1.3529,-1.3427,-1.3427,0.0,-1.3427,-1.2884,-1.17,-1.1247,-1.0949,-1.0724,-0.9695,-0.9137,-0.9323,-0.9479,-0.9629,-0.9771,-0.9805,-0.9822,-0.9822,-0.9859,-0.9958,-1.0107,-1.0141,-1.0243,-1.0385,-1.0385,-1.0385,-1.0382,-1.0344,-1.0331,-1.0327,-1.0293,-1.028,-1.028,-0.9581,-0.9581,-0.9608,-0.9693,-0.9707,-0.9734,-0.9808,-0.988,-0.9924,-0.9924,-0.9988,-1.0032,-1.0032,-1.0032,-1.0032,-1.0032,-0.9903,-0.9822,-0.9822,-0.9822,-0.9822,-0.9822,-0.9747,-0.9707,-0.9707,-0.9625,-0.9551,-0.9486,-0.9415,-0.9381,-0.9381,-0.9381,-0.9418,-0.9486,-0.9486,-0.9568,-0.9707,-0.9707,-0.9751,-0.9825,-0.9897,-0.9924,-0.9941,-1.0097,-1.0154,-1.0168,-1.0249,-1.028,-1.0266,-1.0181,-1.0154,-1.0127,-0.9975,-0.9924,-0.9914,-0.9842,-0.9822,-0.9822,-0.9822,-0.9822,-0.9822,-0.9822,-0.9822,-0.9822,-0.9822,-0.9822,-0.9822,-0.9822,-0.9822,-1.0037,-1.0782,-1.0886,-1.13,-1.2619,-1.3509,-1.4344,-1.4676,-1.5412,-1.5453,-1.4454,-1.4199,-1.3757,-1.2916,-1.2805,-1.2805,-1.2805,-1.2805,-1.2259,-1.1067,-1.0971,-1.0647,-1.0002,-0.9514,-0.9259,-0.9483,-0.9632,-0.9744,-0.9822,-0.9822,-0.9822,-0.9822,-0.9822,-0.9903,-1.0049,-1.0049,-1.0137,-1.028,-1.028,-1.028,-1.0273,-1.0202,-1.0175,-1.0168,-1.0097,-1.007,-1.007,-0.989,-0.989,-0.989,-0.989,-0.989,-0.989,-0.989,-1.0002,-1.0086,-1.0086,-1.0198,-1.028,-1.028,-1.028,-1.028,-1.028,-1.0042,-0.989,-0.989,-0.9869,-0.9856,-0.9856,-0.9832,-0.9822,-0.9822,-0.9822,-0.9764,-0.9642,-0.951,-0.9449,-0.9449,-0.9449,-0.9517,-0.9642,-0.9642,-0.972,-0.9856,-0.9856,-0.9869,-0.9903,-1.0032,-1.0086,-1.01,-1.0253,-1.0314,-1.0317,-1.0337,-1.0348,-1.0344,-1.0321,-1.0314,-1.0287,-1.0134,-1.007,-1.0022,-0.9893,-0.9839,-0.9822,-0.9822,-0.9822,-0.9822,-0.9822,-0.9822,-0.9822,-0.9822,-0.9822,-0.9822,-0.9822,-0.9822,-0.9822,-0.9822,-0.9822,-1.0258,-1.1655,-1.1867,-1.2264,-1.3546,-1.374,-1.3665,-1.3233,-1.3208,-1.3024,-1.2731,-1.2711,-1.2711,-1.2711,-1.2711,-1.2243,-1.1072,-1.0968,-1.0424,-0.9336,-0.9222,-0.9357,-0.9639,-0.9761,-0.9822,-0.9822,-0.9822,-0.9822,-0.9822,-0.9822,-0.989,-1.0015,-1.0015,-1.009,-1.0212,-1.0212,-1.0212,-1.0198,-1.0066,-1.0015,-0.9998,-0.9869,-0.9822,-0.9822,-1.0209,-1.0209,-1.0209,-1.0209,-1.0209,-1.0209,-1.0209,-1.0229,-1.0246,-1.0246,-1.0266,-1.028,-1.028,-1.028,-1.028,-1.028,-1.0236,-1.0209,-1.0209,-1.0086,-1.0015,-1.0015,-0.989,-0.9822,-0.9822,-0.9822,-0.9812,-0.9788,-0.9764,-0.9751,-0.9751,-0.9751,-0.9764,-0.9788,-0.9788,-0.9873,-1.0015,-1.0015,-1.009,-1.0212,-1.0236,-1.0246,-1.0259,-1.0402,-1.046,-1.0477,-1.0605,-1.0653,-1.0633,-1.0504,-1.046,-1.0432,-1.029,-1.0154,-1.0042,-1.0022,-0.9924,-0.9822,-0.9822,-0.9822,-0.9822,-0.9822,-0.9822,-0.9822,-0.9822,-0.9822,-0.9822,-0.9822,-0.9822,-0.9822,-0.9822,-0.9822,-1.0293,-1.1939,-1.217,-1.2579,-1.3882,-1.4084,-1.3543,-1.1972,-1.1837,-1.1376,-1.0108,-0.9993,-0.9993,-0.9993,-0.9993,-0.9889,-0.9687,-0.9687,-0.9634,-0.9534,-0.954,-0.9618,-0.9785,-0.9812,-0.9822,-0.9822,-0.9822,-0.9822,-0.9822,-0.9822,-0.9832,-0.9856,-0.9856,-0.9869,-0.9893,-0.9893,-0.9893,-0.989,-0.9866,-0.9856,-0.9852,-0.9829,-0.9822,-0.9822,-1.028,-1.028,-1.028,-1.028,-1.028,-1.028,-1.028,-1.0344,-1.0395,-1.0395,-1.0466,-1.0517,-1.0517,-1.0517,-1.0517,-1.0517,-1.0517,-1.0517,-1.0517,-1.03,-1.0175,-1.0175,-1.0103,-1.007,-1.007,-1.007,-1.007,-1.007,-1.007,-1.007,-1.007,-1.007,-1.007,-1.007,-1.007,-1.0107,-1.0175,-1.0175,-1.0215,-1.0287,-1.0365,-1.0395,-1.0412,-1.0558,-1.0616,-1.0622,-1.0697,-1.0721,-1.0711,-1.0639,-1.0616,-1.0588,-1.0439,-1.0344,-1.0273,-1.0195,-1.0005,-0.9822,-0.9822,-0.9822,-0.9822,-0.9822,-0.9822,-0.9822,-0.9822,-0.9822,-0.9822,-0.9822,-0.9822,-0.9822,-0.9822,-0.9822,-1.0061,-1.0778,-1.0899,-1.111,-1.1737,-1.1844,-1.1545,-1.0559,-1.0424,-1.016,-0.9504,-0.9381,-0.9381,-0.9381,-0.9381,-0.9415,-0.95,-0.9503,-0.9571,-0.972,-0.9724,-0.9754,-0.9822,-0.9822,-0.9822,-0.9822,-0.9822,-0.9822,-0.9822,-0.9822,-0.9822,-0.9822,-0.9822,-0.9822,-0.9822,-0.9822,-0.9822,-0.9822,-0.9822,-0.9822,-0.9822,-0.9822,-0.9822,-0.9822,-1.0382,-1.0382,-1.0382,-1.0382,-1.0382,-1.0382,-1.0382,-1.0477,-1.0544,-1.0544,-1.0646,-1.0721,-1.0721,-1.0721,-1.0721,-1.0721,-1.0721,-1.0721,-1.0721,-1.051,-1.0368,-1.0331,-1.0297,-1.028,-1.028,-1.028,-1.028,-1.028,-1.028,-1.028,-1.028,-1.028,-1.028,-1.028,-1.028,-1.0297,-1.0331,-1.0331,-1.0351,-1.0392,-1.05,-1.0544,-1.0558,-1.0677,-1.0721,-1.0721,-1.0721,-1.0721,-1.0721,-1.0721,-1.0721,-1.07,-1.0582,-1.0521,-1.047,-1.0361,-1.0114,-0.9866,-0.9832,-0.9822,-0.9822,-0.9822,-0.9822,-0.9822,-0.9822,-0.9822,-0.9822,-0.9822,-0.9822,-0.9822,-0.9822,-0.9822,-0.994,-1.0301,-1.0061,-0.994,-1.0301,-1.0061,-0.9781,-0.9673,-0.9659,-0.9612,-0.9496,-0.9483,-0.9483,-0.9483,-0.9483,-0.9534,-0.9652,-0.9659,-0.9707,-0.9819,-0.9822,-0.9822,-0.9822,-0.9822,-0.9822,-0.9822,-0.9822,-0.9822,-0.9822,-0.9822,-0.9822,-0.9822,-0.9822,-0.9822,-0.9822,-0.9822,-0.9822,-0.9822,-0.9822,-0.9822,-0.9822,-0.9822,-0.9822,-0.9822,-1.0687,-1.0687,-1.0687,-1.0687,-1.0687,-1.0687,-1.0687,-1.0697,-1.0704,-1.0704,-1.0714,-1.0721,-1.0721,-1.0721,-1.0721,-1.0721,-1.0721,-1.0721,-1.0721,-1.07,-1.0626,-1.0483,-1.0351,-1.028,-1.028,-1.028,-1.028,-1.028,-1.028,-1.028,-1.028,-1.028,-1.028,-1.028,-1.028,-1.0351,-1.0477,-1.0477,-1.0558,-1.0687,-1.07,-1.0704,-1.0704,-1.0717,-1.0721,-1.0721,-1.0721,-1.0721,-1.0721,-1.0721,-1.0721,-1.0717,-1.0707,-1.0605,-1.049,-1.048,-1.0266,-1.0002,-0.9859,-0.9822,-0.9822,-0.9822,-0.9822,-0.9822,-0.9822,-0.9822,-0.9822,-0.9822,-0.9822,-0.9822,-0.9822,-0.9822,-1.0301,-1.1736,-1.0781,-1.0301,-1.1856,-1.0781,-0.9819,-0.9805,-0.9805,-0.9802,-0.9788,-0.9788,-0.9788,-0.9788,-0.9788,-0.9791,-0.9805,-0.9805,-0.9812,-0.9822,-0.9822,-0.9822,-0.9822,-0.9822,-0.9822,-0.9822,-0.9822,-0.9822,-0.9822,-0.9822,-0.9822,-0.9822,-0.9822,-0.9822,-0.9822,-0.9822,-0.9822,-0.9822,-0.9822,-0.9822,-0.9822,-0.9822,-0.9822,-0.9822,-1.0721,-1.0721,-1.0721,-1.0721,-1.0721,-1.0721,-1.0721,-1.0721,-1.0721,-1.0721,-1.0721,-1.0721,-1.0721,-1.0721,-1.0721,-1.0721,-1.0721,-1.0721,-1.0721,-1.0721,-1.0694,-1.0636,-1.0582,-1.0555,-1.0555,-1.0555,-1.0555,-1.0555,-1.0555,-1.0555,-1.0555,-1.0555,-1.0555,-1.0555,-1.0555,-1.0582,-1.0633,-1.0633,-1.0666,-1.0721,-1.0721,-1.0721,-1.0721,-1.0721,-1.0721,-1.0721,-1.0721,-1.0721,-1.0721,-1.0721,-1.0721,-1.0721,-1.0721,-1.068,-1.0616,-1.0521,-1.0412,-1.0293,-1.0148,-0.9964,-0.9822,-0.9822,-0.9822,-0.9822,-0.9822,-0.9822,-0.9822,-0.9822,-0.9822,-0.9822,-0.9822,-0.9822,-0.994,-1.066,-1.0179,-1.0061,-1.066,-1.0179,-0.9822,-0.9822,-0.9822,-0.9822,-0.9822,-0.9822,-0.9822,-0.9822,-0.9822,-0.9822,-0.9822,-0.9822,-0.9822,-0.9822,-0.9822,-0.9822,-0.9822,-0.9822,-0.9822,-0.9822,-0.9822,-0.9822,-0.9822,-0.9822,-0.9822,-0.9822,-0.9822,-0.9822,-0.9822,-0.9822,-0.9822,-0.9822,-0.9822,-0.9822,-0.9822,-0.9822,-0.9822,-0.9822,-1.0721,-1.0721,-1.0721,-1.0721,-1.0721,-1.0721,-1.0721,-1.0721,-1.0721,-1.0721,-1.0721,-1.0721,-1.0721,-1.0721,-1.0721,-1.0721,-1.0721,-1.0721,-1.0721,-1.0721,-1.0721,-1.0721,-1.0721,-1.0721,-1.0721,-1.0721,-1.0721,-1.0721,-1.0721,-1.0721,-1.0721,-1.0721,-1.0721,-1.0721,-1.0721,-1.0721,-1.0721,-1.0721,-1.0721,-1.0721,-1.0721,-1.0721,-1.0721,-1.0721,-1.0721,-1.0721,-1.0721,-1.0721,-1.0721,-1.0721,-1.0721,-1.0721,-1.0721,-1.0721,-1.07,-1.0595,-1.0527,-1.047,-1.0375,-1.0161,-0.9954,-0.9907,-0.9856,-0.9822,-0.9822,-0.9822,-0.9822,-0.9822,-0.9822,-0.9822,-0.9822,-0.9822,-0.9822,-0.9822,-0.9822,-0.9822,-0.9822,-0.9822,-0.9822,-0.9822,-0.9822,-0.9822,-0.9822,-0.9822,-0.9822,-0.9822,-0.9822,-0.9822,-0.9822,-0.9822,-0.9822,-0.9822,-0.9822,-0.9822,-0.9822,-0.9822,-0.9822,-0.9822,-0.9822,-0.9822,-0.9822,-0.9822,-0.9822,-0.9822,-0.9822,-0.9822,-0.9822,-0.9822,-0.9822,-0.9822,-0.9822,-0.9822,-0.9822,-0.9822,-0.9822,-0.9822,-1.0721,-1.0721,-1.0721,-1.0721,-1.0721,-1.0721,-1.0721,-1.0721,-1.0721,-1.0721,-1.0721,-1.0721,-1.0721,-1.0721,-1.0721,-1.0721,-1.0721,-1.0721,-1.0721,-1.0721,-1.0721,-1.0721,-1.0721,-1.0721,-1.0721,-1.0721,-1.0721,-1.0721,-1.0721,-1.0721,-1.0721,-1.0721,-1.0721,-1.0721,-1.0721,-1.0721,-1.0721,-1.0721,-1.0721,-1.0721,-1.0721,-1.0721,-1.0721,-1.0721,-1.0721,-1.0721,-1.0721,-1.0721,-1.0721,-1.0721,-1.0721,-1.0721,-1.0721,-1.0721,-1.0721,-1.0721,-1.0612,-1.0493,-1.0493,-1.0388,-1.0246,-1.009,-0.9934,-0.9822,-0.9822,-0.9822,-0.9822,-0.9822,-0.9822,-0.9822,-0.9822,-0.9822,-0.9822,-0.9822,-0.9822,-0.9822,-0.9822,-0.9822,-0.9822,-0.9822,-0.9822,-0.9822,-0.9822,-0.9822,-0.9822,-0.9822,-0.9822,-0.9822,-0.9822,-0.9822,-0.9822,-0.9822,-0.9822,-0.9822,-0.9822,-0.9822,-0.9822,-0.9822,-0.9822,-0.9822,-0.9822,-0.9822,-0.9822,-0.9822,-0.9822,-0.9822,-0.9822,-0.9822,-0.9822,-0.9822,-0.9822,-0.9822,-0.9822,-0.9822,-0.9822,-0.9822,-1.0721,-1.0721,-1.0721,-1.0721,-1.0721,-1.0721,-1.0721,-1.0721,-1.0721,-1.0721,-1.0721,-1.0721,-1.0721,-1.0721,-1.0721,-1.0721,-1.0721,-1.0721,-1.0721,-1.0721,-1.0721,-1.0721,-1.0721,-1.0721,-1.0721,-1.0721,-1.0721,-1.0721,-1.0721,-1.0721,-1.0721,-1.0721,-1.0721,-1.0721,-1.0721,-1.0721,-1.0721,-1.0721,-1.0721,-1.0721,-1.0721,-1.0721,-1.0721,-1.0721,-1.0721,-1.0721,-1.0721,-1.0721,-1.0721,-1.0721,-1.0721,-1.0721,-1.0721,-1.0721,-1.0721,-1.0721,-1.0687,-1.0653,-1.0653,-1.0541,-1.0368,-1.0114,-1.0015,-0.9951,-0.9846,-0.9822,-0.9822,-0.9822,-0.9822,-0.9822,-0.9822,-0.9822,-0.9822,-0.9822,-0.9822,-0.9822,-0.9822,-0.9822,-0.9822,-0.9822,-0.9822,-0.9822,-0.9822,-0.9822,-0.9822,-0.9822,-0.9822,-0.9822,-0.9822,-0.9822,-0.9822,-0.9822,-0.9822,-0.9822,-0.9822,-0.9822,-0.9822,-0.9822,-0.9822,-0.9822,-0.9822,-0.9822,-0.9822,-0.9822,-0.9822,-0.9822,-0.9822,-0.9822,-0.9822,-0.9822,-0.9822,-0.9822,-0.9822,-0.9822,-0.9822,-0.9822,-1.0721,-1.0721,-1.0721,-1.0721,-1.0721,-1.0721,-1.0721,-1.0721,-1.0721,-1.0721,-1.0721,-1.0721,-1.0721,-1.0721,-1.0721,-1.0721,-1.0721,-1.0721,-1.0721,-1.0721,-1.0721,-1.0721,-1.0721,-1.0721,-1.0721,-1.0721,-1.0721,-1.0721,-1.0721,-1.0721,-1.0721,-1.0721,-1.0721,-1.0721,-1.0721,-1.0721,-1.0721,-1.0721,-1.0721,-1.0721,-1.0721,-1.0721,-1.0721,-1.0721,-1.0721,-1.0721,-1.0721,-1.0721,-1.0721,-1.0721,-1.0721,-1.0721,-1.0721,-1.0721,-1.0721,-1.0721,-1.0721,-1.0721,-1.0721,-1.0653,-1.051,-1.0215,-1.0097,-1.0008,-0.9856,-0.9822,-0.9822,-0.9822,-0.9822,-0.9822,-0.9822,-0.9822,-0.9822,-0.9822,-0.9822,-0.9822,-0.9822,-0.9822,-0.9822,-0.9822,-0.9822,-0.9822,-0.9822,-0.9822,-0.9822,-0.9822,-0.9822,-0.9822,-0.9822,-0.9822,-0.9822,-0.9822,-0.9822,-0.9822,-0.9822,-0.9822,-0.9822,-0.9822,-0.9822,-0.9822,-0.9822,-0.9822,-0.9822,-0.9822,-0.9822,-0.9822,-0.9822,-0.9822,-0.9822,-0.9822,-0.9822,-0.9822,-0.9822,-0.9822,-0.9822,-0.9822,-1.0721,-1.0721,-1.0721,-1.0721,-1.0721,-1.0721,-1.0721,-1.0721,-1.0721,-1.0721,-1.0721,-1.0721,-1.0721,-1.0721,-1.0721,-1.0721,-1.0721,-1.0721,-1.0721,-1.0721,-1.0721,-1.0721,-1.0721,-1.0721,-1.0721,-1.0721,-1.0721,-1.0721,-1.0721,-1.0721,-1.0721,-1.0721,-1.0721,-1.0721,-1.0721,-1.0721,-1.0721,-1.0721,-1.0721,-1.0721,-1.0721,-1.0721,-1.0721,-1.0721,-1.0721,-1.0721,-1.0721,-1.0721,-1.0721,-1.0721,-1.0721,-1.0721,-1.0721,-1.0721,-1.0721,-1.0721,-1.0721,-1.0721,-1.0721,-1.0721,-1.0653,-1.0371,-1.0185,-1.0025,-0.9859,-0.9822,-0.9822,-0.9822,-0.9822,-0.9822,-0.9822,-0.9822,-0.9822,-0.9822,-0.9822,-0.9822,-0.9822,-0.9822,-0.9822,-0.9822,-0.9822,-0.9822,-0.9822,-0.9822,-0.9822,-0.9822,-0.9822,-0.9822,-0.9822,-0.9822,-0.9822,-0.9822,-0.9822,-0.9822,-0.9822,-0.9822,-0.9822,-0.9822,-0.9822,-0.9822,-0.9822,-0.9822,-0.9822,-0.9822,-0.9822,-0.9822,-0.9822,-0.9822,-0.9822,-0.9822,-0.9822,-0.9822,-0.9822,-0.9822,-0.9822,-0.9822,-1.0721,-1.0721,-1.0721,-1.0721,-1.0721,-1.0721,-1.0721,-1.0721,-1.0721,-1.0721,-1.0721,-1.0721,-1.0721,-1.0721,-1.0721,-1.0721,-1.0721,-1.0721,-1.0721,-1.0721,-1.0721,-1.0721,-1.0721,-1.0721,-1.0721,-1.0721,-1.0721,-1.0721,-1.0721,-1.0721,-1.0721,-1.0721,-1.0721,-1.0721,-1.0721,-1.0721,-1.0721,-1.0721,-1.0721,-1.0721,-1.0721,-1.0721,-1.0721,-1.0721,-1.0721,-1.0721,-1.0721,-1.0721,-1.0721,-1.0721,-1.0721,-1.0721,-1.0721,-1.0721,-1.0721,-1.0721,-1.0721,-1.0721,-1.0721,-1.0721,-1.0677,-1.049,-1.0337,-1.0158,-0.9883,-0.9822,-0.9822,-0.9822,-0.9822,-0.9822,-0.9822,-0.9822,-0.9822,-0.9822,-0.9822,-0.9822,-0.9822,-0.9822,-0.9822,-0.9822,-0.9822,-0.9822,-0.9822,-0.9822,-0.9822,-0.9822,-0.9822,-0.9822,-0.9822,-0.9822,-0.9822,-0.9822,-0.9822,-0.9822,-0.9822,-0.9822,-0.9822,-0.9822,-0.9822,-0.9822,-0.9822,-0.9822,-0.9822,-0.9822,-0.9822,-0.9822,-0.9822,-0.9822,-0.9822,-0.9822,-0.9822,-0.9822,-0.9822,-0.9822,-0.9822,-0.9822,-1.0721,-1.0721,-1.0721,-1.0721,-1.0721,-1.0721,-1.0721,-1.0721,-1.0721,-1.0721,-1.0721,-1.0721,-1.0721,-1.0721,-1.0721,-1.0721,-1.0721,-1.0721,-1.0721,-1.0721,-1.0721,-1.0721,-1.0721,-1.0721,-1.0721,-1.0721,-1.0721,-1.0721,-1.0721,-1.0721,-1.0721,-1.0721,-1.0721,-1.0721,-1.0721,-1.0721,-1.0721,-1.0721,-1.0721,-1.0721,-1.0721,-1.0721,-1.0721,-1.0721,-1.0721,-1.0721,-1.0721,-1.0721,-1.0721,-1.0721,-1.0721,-1.0721,-1.0721,-1.0721,-1.0721,-1.0721,-1.0721,-1.0721,-1.0721,-1.0721,-1.0683,-1.0531,-1.0385,-1.0219,-0.9981,-0.9873,-0.9822,-0.9822,-0.9822,-0.9822,-0.9822,-0.9822,-0.9822,-0.9822,-0.9822,-0.9822,-0.9822,-0.9822,-0.9822,-0.9822,-0.9822,-0.9822,-0.9822,-0.9822,-0.9822,-0.9822,-0.9822,-0.9822,-0.9822,-0.9822,-0.9822,-0.9822,-0.9822,-0.9822,-0.9822,-0.9822,-0.9822,-0.9822,-0.9822,-0.9822,-0.9822,-0.9822,-0.9822,-0.9822,-0.9822,-0.9822,-0.9822,-0.9822,-0.9822,-0.9822,-0.9822,-0.9822,-0.9822,-0.9822,-0.9822,-0.9822,-1.0721,-1.0721,-1.0721,-1.0721,-1.0721,-1.0721,-1.0721,-1.0721,-1.0721,-1.0721,-1.0721,-1.0721,-1.0721,-1.0721,-1.0721,-1.0721,-1.0721,-1.0721,-1.0721,-1.0721,-1.0721,-1.0721,-1.0721,-1.0721,-1.0721,-1.0721,-1.0721,-1.0721,-1.0721,-1.0721,-1.0721,-1.0721,-1.0721,-1.0721,-1.0721,-1.0721,-1.0721,-1.0721,-1.0721,-1.0721,-1.0721,-1.0721,-1.0721,-1.0721,-1.0721,-1.0721,-1.0721,-1.0721,-1.0721,-1.0721,-1.0721,-1.0721,-1.0721,-1.0721,-1.0721,-1.0721,-1.0721,-1.0721,-1.0721,-1.0721,-1.069,-1.0561,-1.0405,-1.0246,-1.0117,-0.9951,-0.9822,-0.9822,-0.9822,-0.9822,-0.9822,-0.9822,-0.9822,-0.9822,-0.9822,-0.9822,-0.9822,-0.9822,-0.9822,-0.9822,-0.9822,-0.9822,-0.9822,-0.9822,-0.9822,-0.9822,-0.9822,-0.9822,-0.9822,-0.9822,-0.9822,-0.9822,-0.9822,-0.9822,-0.9822,-0.9822,-0.9822,-0.9822,-0.9822,-0.9822,-0.9822,-0.9822,-0.9822,-0.9822,-0.9822,-0.9822,-0.9822,-0.9822,-0.9822,-0.9822,-0.9822,-0.9822,-0.9822,-0.9822,-0.9822,-0.9822,-1.0724,-1.0721,-1.0721,-1.0721,-1.0721,-1.0721,-1.0721,-1.0721,-1.0721,-1.0721,-1.0721,-1.0721,-1.0721,-1.0721,-1.0721,-1.0721,-1.0721,-1.0721,-1.0721,-1.0721,-1.0721,-1.0721,-1.0721,-1.0721,-1.0721,-1.0721,-1.0721,-1.0721,-1.0721,-1.0721,-1.0721,-1.0721,-1.0721,-1.0721,-1.0721,-1.0721,-1.0721,-1.0721,-1.0721,-1.0721,-1.0721,-1.0721,-1.0721,-1.0721,-1.0721,-1.0721,-1.0721,-1.0721,-1.0721,-1.0721,-1.0721,-1.0721,-1.0721,-1.0721,-1.0721,-1.0721,-1.0721,-1.0721,-1.0721,-1.0721,-1.0714,-1.0694,-1.0483,-1.0276,-1.0253,-1.0029,-0.9822,-0.9822,-0.9822,-0.9822,-0.9822,-0.9822,-0.9822,-0.9822,-0.9822,-0.9822,-0.9822,-0.9822,-0.9822,-0.9822,-0.9822,-0.9822,-0.9822,-0.9822,-0.9822,-0.9822,-0.9822,-0.9822,-0.9822,-0.9822,-0.9822,-0.9822,-0.9822,-0.9822,-0.9822,-0.9822,-0.9822,-0.9822,-0.9822,-0.9822,-0.9822,-0.9822,-0.9822,-0.9822,-0.9822,-0.9822,-0.9822,-0.9822,-0.9822,-0.9822,-0.9822,-0.9822,-0.9822,-0.9822,-0.9822,-0.9822,-1.0635,-1.0635,-1.0635,-1.0635,-1.0751,-1.0744,-1.0765,-1.0741,-1.0724,-1.0738,-1.0727,-1.0721,-1.0721,-1.0721,-1.0721,-1.0721,-1.0721,-1.0721,-1.0721,-1.0721,-1.0721,-1.0721,-1.0721,-1.0721,-1.0721,-1.0721,-1.0721,-1.0721,-1.0721,-1.0721,-1.0721,-1.0721,-1.0721,-1.0721,-1.0721,-1.0721,-1.0721,-1.0721,-1.0721,-1.0721,-1.0721,-1.0721,-1.0721,-1.0721,-1.0721,-1.0721,-1.0721,-1.0721,-1.0721,-1.0721,-1.0721,-1.0721,-1.0721,-1.0721,-1.0721,-1.0721,-1.0721,-1.0721,-1.0721,-1.0721,-1.0721,-1.0721,-1.0558,-1.0378,-1.0297,-1.0107,-0.9924,-0.9839,-0.9822,-0.9822,-0.9822,-0.9822,-0.9822,-0.9822,-0.9822,-0.9822,-0.9822,-0.9822,-0.9822,-0.9822,-0.9822,-0.9822,-0.9822,-0.9822,-0.9822,-0.9822,-0.9822,-0.9822,-0.9822,-0.9822,-0.9822,-0.9822,-0.9822,-0.9822,-0.9822,-0.9822,-0.9822,-0.9822,-0.9822,-0.9822,-0.9822,-0.9822,-0.9822,-0.9822,-0.9822,-0.9822,-0.9822,-0.9822,-0.9822,-0.9822,-0.9822,-0.9822,-0.9822,-0.9822,-0.9822,-0.9822]}]]